Date StartTime U_cm/s V_cm/s W_cm/s Ustd_cm/s Vstd_cm/s Wstd_cm/s Uvar_(cm/s)^2 Vvar_(cm/s)^2 Wvar_(cm/s)^2 KE_(m/s)^2 TurbulentKE_(m/s)^2 HorizWindSpeed_cm/s FrictionSpeec_cm/s DragCoef SpeedOfSound_m/s SonicTemperature_C Pressure_mb 
02/05/2014  00:00:00       33.519       23.101        2.082       13.882        8.565       10.770      192.719       73.354      116.001        0.102        0.019       40.708        8.576        0.044      332.056        0.473      860.487
02/05/2014  00:01:00        6.624       18.600        8.827        8.422        8.472        8.817       70.928       71.775       77.744        0.034        0.011       19.745        6.594        0.112      332.064        0.484      860.505
02/05/2014  00:02:00        2.292       -3.252       12.014        7.959       11.456        6.097       63.339      131.229       37.174        0.020        0.012        3.979        6.681        2.819      332.026        0.420      860.521
02/05/2014  00:03:00       -8.803       -6.298        7.606       10.328       10.857        6.811      106.666      117.878       46.385        0.022        0.014       10.824        3.832        0.125      331.978        0.342      860.527
02/05/2014  00:04:00      -20.207       -0.257        3.156        9.206        7.894        6.374       84.757       62.309       40.629        0.030        0.009       20.209        4.609        0.052      331.928        0.260      860.515
02/05/2014  00:05:00       -0.607       -0.886        1.616       11.175        5.420        7.029      124.877       29.372       49.413        0.010        0.010        1.074        4.008       13.940      331.939        0.277      860.514
02/05/2014  00:06:00        6.539       25.298       -0.208       10.272        8.194        6.403      105.510       67.142       41.004        0.045        0.011       26.129        6.019        0.053      332.009        0.394      860.512
02/05/2014  00:07:00        3.307       43.497       -2.013       16.903       12.283        7.001      285.699      150.884       49.008        0.120        0.024       43.623        6.915        0.025      331.988        0.358      860.511
02/05/2014  00:08:00       10.933       61.059       -8.113        8.954        8.306        4.328       80.180       68.985       18.731        0.204        0.008       62.030        1.592        0.001      332.011        0.395      860.518
02/05/2014  00:09:00       21.088       71.274       -6.770        9.938       16.018        7.811       98.767      256.572       61.009        0.299        0.021       74.328        4.460        0.004      332.008        0.391      860.520
02/05/2014  00:10:00       33.357       62.183       -8.590        8.248       10.552        7.911       68.029      111.335       62.585        0.265        0.012       70.565        4.539        0.004      331.991        0.365      860.522
02/05/2014  00:11:00       22.976       40.203       -5.935       10.142       16.281        9.540      102.856      265.056       91.018        0.132        0.023       46.305        8.029        0.030      331.909        0.230      860.524
02/05/2014  00:12:00       30.598       40.455       -4.084       15.890       25.563       16.898      252.504      653.479      285.552        0.189        0.060       50.723       11.705        0.053      331.848        0.126      860.538
02/05/2014  00:13:00       37.351       52.649       -9.294       14.858       15.022        9.952      220.764      225.661       99.048        0.240        0.027       64.553        9.440        0.021      331.774        0.005      860.551
02/05/2014  00:14:00       23.011       30.469       -5.083       17.298       18.627       12.273      299.222      346.959      150.638        0.114        0.040       38.182        8.855        0.054      331.720       -0.082      860.559
02/05/2014  00:15:00       19.800       60.285       -7.297       16.623       23.199        5.715      276.316      538.208       32.661        0.246        0.042       63.454        5.389        0.007      331.759       -0.016      860.554
02/05/2014  00:16:00        8.497       83.082       -7.995        6.896       14.488        5.280       47.550      209.889       27.875        0.366        0.014       83.515        2.947        0.001      331.923        0.254      860.538
02/05/2014  00:17:00       10.185       54.809       -2.563       12.223       14.545        4.713      149.391      211.556       22.217        0.175        0.019       55.748        5.002        0.008      331.922        0.252      860.538
02/05/2014  00:18:00      -20.901       -1.806       -0.937       17.688       15.378        7.876      312.863      236.485       62.036        0.053        0.031       20.978        8.128        0.150      331.677       -0.153      860.541
02/05/2014  00:19:00      -59.805       -5.800      -11.725        8.766        6.116        6.464       76.851       37.408       41.781        0.195        0.008       60.086        2.871        0.002      331.675       -0.155      860.552
02/05/2014  00:20:00      -67.252       -7.928      -10.135       14.001       11.021        6.550      196.027      121.464       42.897        0.252        0.018       67.718        4.489        0.004      331.653       -0.191      860.554
02/05/2014  00:21:00      -75.342       -5.333       -7.999        7.910        5.968        8.055       62.567       35.617       64.880        0.297        0.008       75.530        2.330        0.001      331.620       -0.246      860.547
02/05/2014  00:22:00      -53.821       -0.428      -11.034        7.058        2.922        5.299       49.815        8.536       28.078        0.155        0.004       53.823        1.980        0.001      331.723       -0.076      860.546
02/05/2014  00:23:00      -32.955        7.905       -5.404        8.482        5.105        3.694       71.950       26.058       13.642        0.064        0.006       33.890        0.444        0.000      331.785        0.026      860.536
02/05/2014  00:24:00       11.715       21.714        2.345       14.442        5.784        6.375      208.563       33.458       40.637        0.045        0.014       24.673        1.370        0.003      331.967        0.326      860.515
02/05/2014  00:25:00       21.356       11.648        1.779       14.719        5.622        6.896      216.663       31.609       47.552        0.045        0.015       24.326        6.112        0.063      331.967        0.325      860.496
02/05/2014  00:26:00       -9.651       15.685        6.082        6.085        9.322        7.771       37.028       86.896       60.384        0.028        0.009       18.417        5.037        0.075      331.896        0.208      860.485
02/05/2014  00:27:00      -11.263        0.000        4.512        5.573        8.657        4.734       31.062       74.947       22.410        0.014        0.006       11.263        3.110        0.076      331.796        0.040      860.482
02/05/2014  00:28:00      -19.399        3.910        5.808        7.492        9.234        5.165       56.133       85.260       26.682        0.030        0.008       19.789        4.200        0.045      331.810        0.065      860.475
02/05/2014  00:29:00      -40.237       -0.835       -4.903        6.673       10.909        5.633       44.528      119.007       31.736        0.092        0.010       40.246        2.336        0.003      331.631       -0.231      860.476
02/05/2014  00:30:00      -63.128      -27.854       -5.548       14.919       10.849        6.620      222.574      117.698       43.819        0.259        0.019       69.000        4.115        0.004      331.391       -0.625      860.493
02/05/2014  00:31:00      -83.284      -36.022      -15.008       16.329       21.116       12.403      266.627      445.901      153.825        0.466        0.043       90.740        9.931        0.012      331.297       -0.779      860.500
02/05/2014  00:32:00      -65.368      -30.164       -4.945       19.545       29.492       18.244      381.993      869.752      332.861        0.340        0.079       71.992        8.840        0.015      331.313       -0.752      860.494
02/05/2014  00:33:00     -115.075       -0.400      -11.680       28.268       14.777       12.839      799.092      218.362      164.842        0.728        0.059      115.075       12.684        0.012      331.209       -0.922      860.491
02/05/2014  00:34:00      -87.932      -17.024      -10.275       17.112       17.574       13.300      292.827      308.854      176.883        0.445        0.039       89.564        8.506        0.009      331.213       -0.915      860.488
02/05/2014  00:35:00      -79.837      -31.210       -9.422       28.522       16.685       16.694      813.519      278.394      278.680        0.440        0.069       85.721       16.106        0.035      331.247       -0.860      860.502
02/05/2014  00:36:00     -101.034      -40.360      -10.990       18.197       18.921       12.143      331.132      357.992      147.449        0.640        0.042      108.797        8.857        0.007      331.295       -0.782      860.514
02/05/2014  00:37:00      -96.265      -49.367       -8.230       26.916       24.922       15.685      724.490      621.104      246.024        0.668        0.080      108.186        8.316        0.006      331.206       -0.928      860.517
02/05/2014  00:38:00      -91.360       -5.982       -7.163       28.601       27.942       19.383      818.025      780.763      375.704        0.520        0.099       91.556       15.529        0.029      331.215       -0.913      860.504
02/05/2014  00:39:00      -88.097       18.283      -13.938       45.198       33.400       18.994     2042.834     1115.568      360.761        0.590        0.176       89.975       17.786        0.039      331.110       -1.088      860.493
02/05/2014  00:40:00      -74.406        9.027       -7.745       29.511       24.473       17.465      870.920      598.923      305.017        0.373        0.089       74.951       14.963        0.040      331.109       -1.087      860.482
02/05/2014  00:41:00      -87.919      -10.467      -12.284       22.853       19.534       12.713      522.254      381.578      161.611        0.453        0.053       88.540        6.274        0.005      331.156       -1.011      860.452
02/05/2014  00:42:00      -46.429      -11.796       -1.459       38.426       25.357       17.433     1476.527      642.991      303.904        0.236        0.121       47.904       17.000        0.126      331.146       -1.027      860.438
02/05/2014  00:43:00      -62.988       -5.211      -11.515       16.084       21.253       12.998      258.693      451.703      168.954        0.250        0.044       63.203        6.707        0.011      331.169       -0.989      860.436
02/05/2014  00:44:00      -62.360      -24.536       -1.650       29.392       29.342       15.835      863.870      860.972      250.746        0.323        0.099       67.013       14.383        0.046      331.104       -1.097      860.440
02/05/2014  00:45:00      -36.043      -28.039        1.063       37.380       29.041       18.277     1397.242      843.371      334.050        0.233        0.129       45.665       16.563        0.132      331.129       -1.055      860.433
02/05/2014  00:46:00      -29.048      -13.819       -0.401       28.507       20.409       12.650      812.631      416.537      160.031        0.121        0.069       32.168       11.728        0.133      331.047       -1.190      860.424
02/05/2014  00:47:00      -43.186       -7.407       -2.567       19.669       13.436       14.825      386.875      180.532      219.770        0.136        0.039       43.817        9.261        0.045      331.136       -1.045      860.399
02/05/2014  00:48:00      -35.563       -5.615       -6.974       21.325        8.830       10.970      454.756       77.963      120.337        0.100        0.033       36.004        5.012        0.019      331.176       -0.978      860.385
02/05/2014  00:49:00      -45.360       -9.041       -4.248       14.790       15.039        9.196      218.735      226.179       84.559        0.134        0.026       46.252        5.053        0.012      331.200       -0.937      860.379
02/05/2014  00:50:00      -55.582       16.272      -11.610       14.621       12.705        9.343      213.787      161.419       87.300        0.198        0.023       57.915        7.065        0.015      331.469       -0.496      860.369
02/05/2014  00:51:00      -66.362        0.183      -11.192       11.320       20.088        8.918      128.135      403.518       79.530        0.257        0.031       66.362        8.323        0.016      331.418       -0.580      860.372
02/05/2014  00:52:00     -121.743      -23.239      -13.488       36.531       20.995       14.411     1334.516      440.780      207.684        0.876        0.099      123.941       14.069        0.013      331.030       -1.218      860.384
02/05/2014  00:53:00     -140.826      -31.647      -14.656       44.379       47.129       25.121     1969.531     2221.124      631.057        1.293        0.241      144.338       21.910        0.023      330.954       -1.343      860.395
02/05/2014  00:54:00     -109.312      -60.875       -2.431       47.383       35.515       26.621     2245.120     1261.345      708.664        0.994        0.211      125.120       21.014        0.028      331.065       -1.160      860.420
02/05/2014  00:55:00     -119.071      -19.046      -12.589       24.275       23.141       16.308      589.296      535.518      265.936        0.804        0.070      120.585        6.271        0.003      331.051       -1.183      860.430
02/05/2014  00:56:00      -61.427      -14.162       -6.609       28.281       18.814       14.136      799.814      353.955      199.813        0.269        0.068       63.038       17.636        0.078      331.052       -1.182      860.417
02/05/2014  00:57:00      -79.659       -7.670       -3.138       28.382       18.947       15.283      805.512      358.976      233.557        0.391        0.070       80.027       10.707        0.018      331.036       -1.207      860.399
02/05/2014  00:58:00      -55.097       21.521      -10.828       46.827       37.294       22.618     2192.753     1390.852      511.556        0.385        0.205       59.151       17.594        0.088      331.058       -1.171      860.380
02/05/2014  00:59:00      -70.806       28.223      -12.380       21.524       20.273       15.177      463.291      411.002      230.354        0.353        0.055       76.224       10.251        0.018      331.165       -0.997      860.374
02/05/2014  01:00:00      -67.431        7.478       -8.612       17.743       15.522       11.462      314.812      240.943      131.368        0.268        0.034       67.844        6.738        0.010      331.240       -0.871      860.366
02/05/2014  01:01:00      -51.891      -30.109      -10.648       11.416       10.712        7.911      130.327      114.746       62.591        0.201        0.015       59.994        4.001        0.004      331.199       -0.941      860.378
02/05/2014  01:02:00      -57.516      -23.646      -13.171       11.140       13.774        9.682      124.097      189.732       93.741        0.222        0.020       62.187        5.664        0.008      331.147       -1.025      860.378
02/05/2014  01:03:00      -46.010      -19.048       -7.890       23.178       13.403        8.728      537.223      179.648       76.179        0.167        0.040       49.798        9.491        0.036      331.185       -0.962      860.384
02/05/2014  01:04:00      -42.475      -13.569      -10.847       10.970       14.223        7.285      120.340      202.290       53.070        0.124        0.019       44.589        4.669        0.011      331.248       -0.858      860.379
02/05/2014  01:05:00      -62.590      -19.804      -20.657       14.863       14.971       11.121      220.902      224.143      123.681        0.265        0.028       65.648        4.971        0.006      331.270       -0.821      860.366
02/05/2014  01:06:00      -83.603      -26.902      -14.732       11.200       12.800       11.619      125.446      163.833      134.999        0.418        0.021       87.825        5.431        0.004      331.103       -1.097      860.346
02/05/2014  01:07:00      -52.874      -21.599       -9.442        8.315        9.423        6.932       69.142       88.792       48.057        0.178        0.010       57.115        3.252        0.003      331.078       -1.138      860.325
02/05/2014  01:08:00      -14.779      -20.121       -2.681       14.288       11.512       10.872      204.147      132.523      118.199        0.054        0.023       24.965        9.021        0.131      331.243       -0.867      860.304
02/05/2014  01:09:00       -7.673      -14.845        1.818       16.470        8.685        9.991      271.246       75.432       99.817        0.036        0.022       16.711       10.309        0.381      331.260       -0.839      860.297
02/05/2014  01:10:00      -41.293      -12.096       -6.729        7.313        6.454        5.803       53.476       41.657       33.679        0.101        0.006       43.028        3.514        0.007      331.286       -0.797      860.297
02/05/2014  01:11:00      -21.738       -7.299       -4.079       12.694        7.392        4.502      161.127       54.648       20.269        0.039        0.012       22.930        3.074        0.018      331.232       -0.886      860.292
02/05/2014  01:12:00       10.343       29.790       -1.297       15.740       14.125        5.749      247.757      199.523       33.053        0.074        0.024       31.534        4.133        0.017      331.328       -0.729      860.286
02/05/2014  01:13:00        2.558       90.181      -14.049       12.993       31.800        8.461      168.808     1011.250       71.591        0.479        0.063       90.217        8.121        0.008      331.142       -1.034      860.284
02/05/2014  01:14:00      -19.519       86.990      -12.430       25.427       40.555       11.656      646.530     1644.709      135.863        0.526        0.121       89.153       13.231        0.022      331.323       -0.736      860.286
02/05/2014  01:15:00      -40.850       -3.916       -5.808       20.335       15.111       10.541      413.511      228.342      111.120        0.124        0.038       41.037        9.531        0.054      331.171       -0.986      860.284
02/05/2014  01:16:00      -56.559      -13.397       -9.299       14.950       10.779       10.325      223.495      116.183      106.596        0.196        0.022       58.124        7.878        0.018      331.085       -1.128      860.275
02/05/2014  01:17:00      -62.574      -32.052      -14.421       10.368        9.615        7.823      107.485       92.442       61.193        0.271        0.013       70.306        2.136        0.001      330.912       -1.409      860.274
02/05/2014  01:18:00      -39.126      -27.915      -11.680       14.477       16.465        7.302      209.569      271.106       53.319        0.149        0.027       48.063        5.875        0.015      330.924       -1.391      860.270
02/05/2014  01:19:00       20.507       -3.475       -9.993       16.294       14.902        8.608      265.480      222.065       74.099        0.055        0.028       20.799        6.794        0.107      331.295       -0.781      860.246
02/05/2014  01:20:00       26.486       23.547       29.753       23.370       33.740       23.361      546.140     1138.392      545.754        0.219        0.112       35.440       23.156        0.427      331.280       -0.808      860.220
02/05/2014  01:21:00        9.700       83.961       74.023       36.898       40.933       21.688     1361.456     1675.503      470.370        0.806        0.175       84.520       13.098        0.024      331.235       -0.879      860.201
02/05/2014  01:22:00       49.617       81.508       68.352       51.839       40.192       34.376     2687.260     1615.399     1181.735        0.963        0.274       95.422       29.161        0.093      331.304       -0.767      860.192
02/05/2014  01:23:00       38.556       62.318       63.623       49.728       35.743       37.495     2472.846     1277.583     1405.902        0.729        0.258       73.281       29.118        0.158      331.232       -0.885      860.199
02/05/2014  01:24:00       32.017       39.964       48.442       30.088       28.032       25.917      905.294      785.806      671.716        0.367        0.118       51.208       18.019        0.124      331.082       -1.133      860.209
02/05/2014  01:25:00       28.913       39.290       31.039       23.843       22.834       19.150      568.471      521.385      366.730        0.240        0.073       48.782       13.079        0.072      331.046       -1.191      860.218
02/05/2014  01:26:00       16.876       32.377       37.123       20.049       20.076       17.327      401.976      403.059      300.240        0.191        0.055       36.511       14.335        0.154      331.044       -1.194      860.220
02/05/2014  01:27:00       27.148       27.549       30.580       21.738       15.918       18.377      472.523      253.372      337.699        0.175        0.053       38.678        9.797        0.064      331.074       -1.147      860.218
02/05/2014  01:28:00       53.255       43.986        7.274       15.644       17.634       17.081      244.747      310.957      291.754        0.284        0.042       69.072        5.482        0.006      331.052       -1.183      860.214
02/05/2014  01:29:00       80.991       54.818       22.613       14.328       10.133       12.679      205.287      102.676      160.765        0.527        0.023       97.799        7.143        0.005      331.038       -1.205      860.199
02/05/2014  01:30:00       59.377       40.047       38.159       26.845       24.027       22.030      720.669      577.306      485.326        0.418        0.089       71.620       11.901        0.028      331.031       -1.216      860.193
02/05/2014  01:31:00       83.835       53.069       25.586       17.748       17.794       20.627      314.995      316.629      425.462        0.578        0.053       99.220       10.975        0.012      330.983       -1.295      860.179
02/05/2014  01:32:00       78.885       55.534       32.555       24.235       16.123       26.682      587.325      259.944      711.941        0.596        0.078       96.472       17.911        0.034      331.055       -1.177      860.171
02/05/2014  01:33:00       48.744       52.318       48.759       23.916       18.762       12.375      571.998      351.995      153.132        0.428        0.054       71.506       11.931        0.028      331.049       -1.186      860.167
02/05/2014  01:34:00        1.280       12.393       28.320       15.043       15.425       10.377      226.285      237.937      107.683        0.076        0.029       12.459       10.007        0.645      331.037       -1.206      860.177
02/05/2014  01:35:00       22.556       21.129       10.074       19.012       13.646       12.799      361.439      186.210      163.824        0.088        0.036       30.906        8.124        0.069      331.097       -1.107      860.174
02/05/2014  01:36:00        9.303       65.918       -8.410        9.197       15.399        5.749       84.585      237.133       33.054        0.243        0.018       66.571        2.882        0.002      331.009       -1.252      860.164
02/05/2014  01:37:00        9.214       73.003       -8.754       12.275       11.748       10.173      150.677      138.013      103.486        0.294        0.020       73.583        8.134        0.012      330.986       -1.290      860.161
02/05/2014  01:38:00        9.989       78.069      -10.829        9.426       10.940        8.922       88.841      119.685       79.594        0.330        0.014       78.705        7.221        0.008      330.987       -1.288      860.171
02/05/2014  01:39:00        8.357       47.082       -6.225       13.378       14.372        5.226      178.960      206.544       27.313        0.137        0.021       47.817        4.182        0.008      330.989       -1.286      860.178
02/05/2014  01:40:00        0.050       16.992       -1.352        5.984       12.339        8.545       35.814      152.256       73.018        0.028        0.013       16.992        8.574        0.255      331.007       -1.254      860.190
02/05/2014  01:41:00      -14.249        5.619       -1.177        8.539        6.277        9.277       72.915       39.400       86.058        0.022        0.010       15.317        7.452        0.237      330.906       -1.420      860.203
02/05/2014  01:42:00        2.704       18.651       -1.533       17.678       14.550       15.425      312.498      211.706      237.932        0.056        0.038       18.846        9.386        0.248      330.986       -1.291      860.206
02/05/2014  01:43:00        7.879       11.234        4.169       13.005       11.217        9.211      169.134      125.811       84.843        0.029        0.019       13.721        7.862        0.328      330.895       -1.438      860.205
02/05/2014  01:44:00      -10.113       10.166       -4.704       18.774        9.494        5.782      352.462       90.131       33.428        0.035        0.024       14.339        3.694        0.066      331.055       -1.175      860.203
02/05/2014  01:45:00      -71.221      -14.725       -9.110       12.675        8.480        6.729      160.663       71.916       45.283        0.282        0.014       72.727        4.100        0.003      330.840       -1.528      860.209
02/05/2014  01:46:00      -75.214      -19.418       -7.384       13.264       11.609        6.306      175.945      134.764       39.760        0.322        0.018       77.680        4.370        0.003      330.821       -1.560      860.210
02/05/2014  01:47:00      -62.972      -16.995       -9.506       11.086        7.736        7.008      122.897       59.852       49.108        0.229        0.012       65.225        5.020        0.006      330.818       -1.568      860.204
02/05/2014  01:48:00      -27.194       -8.305       -3.123       13.708       15.311        7.595      187.922      234.418       57.689        0.065        0.024       28.434        4.853        0.029      330.770       -1.646      860.205
02/05/2014  01:49:00      -30.524       -4.992       -2.333       13.322       11.157        9.549      177.474      124.473       91.181        0.068        0.020       30.930        6.813        0.049      330.822       -1.561      860.223
02/05/2014  01:50:00      -46.799       -8.662       -7.891       16.620       10.410        6.205      276.225      108.376       38.497        0.138        0.021       47.593        3.482        0.005      330.823       -1.556      860.238
02/05/2014  01:51:00      -50.520        3.402       -2.125       22.327       13.789       10.390      498.475      190.131      107.944        0.168        0.040       50.634       10.727        0.045      330.789       -1.615      860.248
02/05/2014  01:52:00      -49.179        9.572       -7.848       15.008        8.174        5.529      225.239       66.811       30.568        0.145        0.016       50.102        2.116        0.002      330.896       -1.436      860.243
02/05/2014  01:53:00      -44.371        9.677       -3.808       16.970       10.037       10.942      287.987      100.748      119.731        0.129        0.025       45.414        6.058        0.018      330.821       -1.561      860.233
02/05/2014  01:54:00      -41.204       10.934       -2.104       17.050       12.318       10.874      290.706      151.744      118.249        0.119        0.028       42.630        9.768        0.052      330.773       -1.638      860.225
02/05/2014  01:55:00      -39.240       40.758       -4.802       22.444       30.986       14.117      503.756      960.104      199.299        0.244        0.083       56.578       13.217        0.055      330.750       -1.677      860.216
02/05/2014  01:56:00      -15.810       77.703       -0.440       29.517       32.580       18.853      871.229     1061.424      355.441        0.429        0.114       79.295       19.616        0.061      331.119       -1.072      860.209
02/05/2014  01:57:00       -6.986       56.249        1.492       23.596       35.573       15.154      556.776     1265.430      229.633        0.263        0.103       56.681       15.109        0.071      331.230       -0.890      860.208
02/05/2014  01:58:00       -0.020      108.411      -12.059       20.773       26.452       13.363      431.503      699.707      178.569        0.660        0.065      108.411        9.368        0.007      331.362       -0.673      860.215
02/05/2014  01:59:00      -52.486       79.369      -11.256       28.591       36.618       20.415      817.451     1340.902      416.776        0.588        0.129       95.153       21.260        0.050      331.216       -0.911      860.231
02/05/2014  02:00:00      -74.666       45.003      -17.741       26.106       38.174       14.953      681.502     1457.242      223.586        0.514        0.118       87.180       14.577        0.028      330.983       -1.295      860.239
02/05/2014  02:01:00      -46.144       -9.464       -8.817       17.966       15.435       13.010      322.778      238.227      169.248        0.151        0.037       47.104        9.607        0.042      330.705       -1.751      860.243
02/05/2014  02:02:00      -48.342      -11.907       -3.596       23.351       20.765       17.547      545.269      431.185      307.909        0.189        0.064       49.787       12.534        0.063      330.471       -2.136      860.229
02/05/2014  02:03:00      -57.619        2.231      -22.055       20.962       18.005       15.011      439.399      324.182      225.331        0.240        0.049       57.662        8.183        0.020      330.502       -2.085      860.228
02/05/2014  02:04:00     -100.852      -37.369      -16.584       37.770       40.617       21.868     1426.577     1649.712      478.224        0.770        0.178      107.552       15.815        0.022      330.433       -2.197      860.233
02/05/2014  02:05:00     -127.624      -26.974       -8.743       38.612       30.737       18.631     1490.900      944.762      347.125        0.994        0.139      130.444       16.465        0.016      330.346       -2.340      860.244
02/05/2014  02:06:00      -43.971      -29.769       -6.758       24.237       23.398       16.837      587.433      547.481      283.485        0.214        0.071       53.100       15.763        0.088      330.384       -2.278      860.245
02/05/2014  02:07:00      -25.790      -19.118        6.781       25.044       19.298       15.556      627.227      372.432      241.997        0.116        0.062       32.103       10.132        0.100      330.511       -2.071      860.239
02/05/2014  02:08:00     -140.740      -59.690       -5.894       43.591       21.336       13.367     1900.181      455.221      178.671        1.297        0.127      152.874       14.165        0.009      330.364       -2.312      860.229
02/05/2014  02:09:00     -126.022      -60.088       -1.891       55.285       33.792       22.618     3056.445     1141.924      511.596        1.210        0.235      139.615       23.007        0.027      330.369       -2.304      860.220
02/05/2014  02:10:00      -92.436      -21.909      -10.241       32.029       18.787       10.741     1025.851      352.962      115.371        0.531        0.075       94.997        6.697        0.005      330.534       -2.031      860.213
02/05/2014  02:11:00      -73.941      -24.868       -1.738       33.343       28.845       16.601     1111.746      832.006      275.590        0.415        0.111       78.011       15.708        0.041      330.645       -1.850      860.198
02/05/2014  02:12:00      -54.876      -12.612       -8.891       14.533       14.907        9.901      211.216      222.226       98.032        0.189        0.027       56.306        6.803        0.015      330.595       -1.930      860.196
02/05/2014  02:13:00      -44.434      -27.393       -2.451       13.301       15.923        8.955      176.913      253.557       80.188        0.162        0.026       52.199        6.676        0.016      330.669       -1.809      860.201
02/05/2014  02:14:00       -9.867       -2.287       -7.477       10.252       15.610        9.816      105.103      243.659       96.353        0.030        0.022       10.129       10.902        1.158      330.637       -1.863      860.199
02/05/2014  02:15:00        6.654      -17.351        1.487       16.461       11.761       12.832      270.952      138.328      164.654        0.046        0.029       18.583       11.024        0.352      330.749       -1.681      860.185
02/05/2014  02:16:00      -48.271      -30.287       -7.646       22.195       14.108       12.322      492.610      199.041      151.836        0.207        0.042       56.986        7.487        0.017      330.682       -1.788      860.174
02/05/2014  02:17:00      -82.295      -13.131      -10.446       14.176       22.333        8.014      200.958      498.775       64.220        0.391        0.038       83.336        6.456        0.006      330.576       -1.963      860.166
02/05/2014  02:18:00      -87.984        3.183      -17.052        8.685        7.380        8.687       75.434       54.465       75.466        0.412        0.010       88.042        5.071        0.003      330.476       -2.129      860.150
02/05/2014  02:19:00      -73.028       -1.681       -8.815       16.425       12.152        9.154      269.780      147.672       83.788        0.296        0.025       73.047        8.877        0.015      330.548       -2.010      860.135
02/05/2014  02:20:00      -91.440       -3.334      -14.884       20.075       15.952       11.476      403.025      254.470      131.689        0.469        0.039       91.500        8.313        0.008      330.542       -2.019      860.127
02/05/2014  02:21:00      -74.571      -27.173       -6.617       16.438       20.005       11.842      270.212      400.211      140.223        0.358        0.041       79.367        4.869        0.004      330.459       -2.155      860.133
02/05/2014  02:22:00     -100.434      -18.557       -7.676       37.523       37.938       22.034     1407.951     1439.255      485.519        0.691        0.167      102.134       22.673        0.049      330.410       -2.235      860.142
02/05/2014  02:23:00     -110.392       27.816      -20.411       48.332       48.901       27.726     2335.944     2391.288      768.706        0.944        0.275      113.843       17.987        0.025      330.185       -2.604      860.151
02/05/2014  02:24:00     -111.864       10.604      -21.560       26.491       40.135       20.949      701.754     1610.824      438.853        0.792        0.138      112.365       16.963        0.023      330.159       -2.648      860.166
02/05/2014  02:25:00      -91.442      -26.414      -10.728       25.083       30.142       22.890      629.171      908.556      523.963        0.562        0.103       95.181       12.094        0.016      330.221       -2.547      860.170
02/05/2014  02:26:00      -86.498      -29.137       -8.769       27.560       21.419       17.702      759.531      458.770      313.356        0.497        0.077       91.274       15.583        0.029      330.134       -2.688      860.165
02/05/2014  02:27:00      -56.969      -14.511      -19.311       22.756       15.256       14.113      517.833      232.741      199.180        0.239        0.047       58.788       10.167        0.030      330.225       -2.539      860.162
02/05/2014  02:28:00      -39.895      -34.315       -7.712       25.583       18.861       20.234      654.502      355.723      409.400        0.212        0.071       52.622       14.659        0.078      330.347       -2.338      860.155
02/05/2014  02:29:00      -74.382      -33.399      -13.330       20.523       29.551       15.693      421.174      873.236      246.285        0.418        0.077       81.536       13.116        0.026      330.285       -2.441      860.153
02/05/2014  02:30:00     -128.677      -25.638      -14.264       29.050       32.295       14.852      843.878     1042.962      220.581        0.976        0.105      131.206        7.766        0.004      330.067       -2.796      860.153
02/05/2014  02:31:00     -109.876      -16.822       -7.063       39.001       26.518       25.147     1521.099      703.193      632.364        0.763        0.143      111.156       24.075        0.047      330.021       -2.872      860.137
02/05/2014  02:32:00      -61.741      -13.584       -5.736       32.988       22.330       12.506     1088.203      498.615      156.401        0.289        0.087       63.218        3.760        0.004      330.108       -2.730      860.100
02/05/2014  02:33:00      -71.098       -2.220       -9.937       24.338       18.378        9.172      592.322      337.744       84.117        0.309        0.051       71.133        4.804        0.005      330.122       -2.709      860.079
02/05/2014  02:34:00      -62.863      -43.208       -9.282       25.232       19.698       16.345      636.639      388.025      267.165        0.360        0.065       76.280        7.902        0.011      330.218       -2.548      860.086
02/05/2014  02:35:00     -119.699      -50.525      -21.365       34.348       20.503       17.947     1179.792      420.371      322.105        0.963        0.096      129.925       14.261        0.012      330.120       -2.712      860.102
02/05/2014  02:36:00     -138.522      -56.632      -10.863       30.117       31.707       21.429      907.049     1005.347      459.221        1.244        0.119      149.652       18.458        0.015      330.093       -2.757      860.109
02/05/2014  02:37:00     -133.025      -46.467      -12.058       21.098       22.121       13.875      445.130      489.359      192.519        1.056        0.056      140.907        9.641        0.005      330.155       -2.653      860.117
02/05/2014  02:38:00      -98.527      -19.595      -11.361       21.883       13.356       12.444      478.883      178.391      154.862        0.552        0.041      100.456       12.394        0.015      330.157       -2.649      860.123
02/05/2014  02:39:00     -108.127      -27.491      -18.934       23.621       17.110       13.640      557.929      292.740      186.061        0.692        0.052      111.567       10.505        0.009      330.127       -2.699      860.125
02/05/2014  02:40:00     -125.990      -42.877      -19.290       22.983       35.465       17.543      528.216     1257.745      307.747        1.009        0.105      133.086       14.742        0.012      330.077       -2.781      860.135
02/05/2014  02:41:00     -147.910      -39.315      -12.417       36.470       37.478       19.594     1330.049     1404.627      383.906        1.335        0.156      153.046       12.141        0.006      330.114       -2.722      860.136
02/05/2014  02:42:00     -127.231      -58.548       -9.095       47.957       41.989       22.763     2299.905     1763.075      518.167        1.214        0.229      140.056       19.829        0.020      330.158       -2.648      860.136
02/05/2014  02:43:00     -135.904      -17.262       -6.348       57.536       30.029       21.654     3310.396      901.750      468.904        1.174        0.234      136.996       25.743        0.035      330.067       -2.798      860.144
02/05/2014  02:44:00     -132.420      -64.450       -5.787       38.400       42.137       26.313     1474.558     1775.567      692.397        1.283        0.197      147.271       22.259        0.023      330.059       -2.809      860.144
02/05/2014  02:45:00     -104.988      -27.674       -1.620       57.606       37.998       26.326     3318.419     1443.816      693.052        0.862        0.273      108.574       21.427        0.039      330.017       -2.879      860.138
02/05/2014  02:46:00     -105.566      -57.524       -2.490       46.787       43.542       22.147     2189.029     1895.881      490.505        0.952        0.229      120.222       14.047        0.014      330.007       -2.895      860.123
02/05/2014  02:47:00     -111.716      -50.917       -2.749       36.616       36.384       18.576     1340.729     1323.772      345.083        0.904        0.150      122.772       15.314        0.016      330.069       -2.795      860.104
02/05/2014  02:48:00     -101.538      -53.870       -4.207       34.466       40.003       21.493     1187.902     1600.201      461.965        0.824        0.163      114.943       11.812        0.011      330.061       -2.807      860.103
02/05/2014  02:49:00      -93.327      -23.434       -2.524       50.479       34.275       22.502     2548.162     1174.803      506.359        0.675        0.211       96.224       21.997        0.052      330.052       -2.822      860.108
02/05/2014  02:50:00     -130.581       13.835       -5.851       39.284       43.055       25.735     1543.199     1853.720      662.286        1.067        0.203      131.312       20.232        0.024      330.040       -2.842      860.113
02/05/2014  02:51:00     -150.587        6.514      -15.013       37.877       33.955       18.088     1434.687     1152.962      327.182        1.293        0.146      150.727       11.358        0.006      330.097       -2.747      860.116
02/05/2014  02:52:00     -138.134      -29.041       -9.764       43.777       44.110       29.445     1916.398     1945.722      867.019        1.237        0.236      141.153       28.506        0.041      330.052       -2.821      860.122
02/05/2014  02:53:00     -121.004      -31.379       -7.192       40.802       29.272       22.626     1664.764      856.854      511.947        0.936        0.152      125.006       22.237        0.032      330.065       -2.801      860.130
02/05/2014  02:54:00     -130.643      -15.342       -8.982       46.216       28.649       22.891     2135.897      820.763      523.987        1.043        0.174      131.541       24.468        0.035      330.120       -2.712      860.136
02/05/2014  02:55:00     -160.636       22.297      -20.599       22.676       20.693       15.837      514.212      428.201      250.815        1.396        0.060      162.176        9.651        0.004      330.071       -2.790      860.144
02/05/2014  02:56:00     -130.775        7.202      -13.777       45.327       32.479       22.941     2054.508     1054.864      526.295        1.049        0.182      130.973       20.699        0.025      330.050       -2.825      860.139
02/05/2014  02:57:00     -170.867      -11.766      -18.198       40.396       36.757       23.069     1631.876     1351.084      532.186        1.659        0.176      171.272       20.539        0.014      330.042       -2.839      860.121
02/05/2014  02:58:00     -180.477       22.064      -24.953       59.467       33.780       28.567     3536.350     1141.074      816.071        1.959        0.275      181.820       29.693        0.027      330.006       -2.899      860.128
02/05/2014  02:59:00     -178.039       35.964      -15.480       38.500       39.207       26.943     1482.223     1537.159      725.951        1.849        0.187      181.635       16.019        0.008      330.090       -2.762      860.140
02/05/2014  03:00:00     -176.881       71.622      -19.611       47.016       33.862       26.044     2210.493     1146.640      678.302        2.042        0.202      190.831       19.346        0.010      330.248       -2.502      860.138
02/05/2014  03:01:00     -160.843       44.203      -19.039       38.792       31.894       26.397     1504.856     1017.254      696.806        1.570        0.161      166.807       17.731        0.011      330.257       -2.486      860.126
02/05/2014  03:02:00     -151.532       34.591      -23.572       42.533       31.251       22.011     1809.064      976.608      484.482        1.399        0.164      155.430       10.618        0.005      330.071       -2.791      860.126
02/05/2014  03:03:00     -156.534      -13.591      -20.120       27.377       33.127       19.701      749.492     1097.369      388.136        1.366        0.112      157.123       14.561        0.009      330.124       -2.704      860.122
02/05/2014  03:04:00     -140.910        5.613      -19.408       45.352       33.704       22.140     2056.842     1135.945      490.160        1.197        0.184      141.021       19.755        0.020      330.110       -2.727      860.111
02/05/2014  03:05:00     -122.129      -28.296      -12.938       27.838       42.347       22.495      774.940     1793.243      506.039        0.948        0.154      125.365       11.856        0.009      330.139       -2.681      860.103
02/05/2014  03:06:00      -99.240      -19.017       -6.026       44.759       39.737       27.726     2003.384     1579.045      768.711        0.730        0.218      101.046       22.483        0.050      330.117       -2.717      860.107
02/05/2014  03:07:00     -127.830      -32.247      -20.034       36.979       44.268       27.648     1367.459     1959.697      764.386        1.094        0.205      131.835       15.315        0.013      330.122       -2.709      860.107
02/05/2014  03:08:00     -153.436      -23.527      -19.750       39.562       43.578       20.291     1565.166     1899.001      411.704        1.418        0.194      155.229       11.153        0.005      330.104       -2.738      860.098
02/05/2014  03:09:00     -157.599      -17.529      -20.716       45.553       35.715       26.910     2075.110     1275.526      724.150        1.482        0.204      158.571       25.181        0.025      330.028       -2.862      860.094
02/05/2014  03:10:00     -105.668      -44.991      -17.651       41.990       28.826       18.996     1763.185      830.956      360.863        0.823        0.148      114.847       15.344        0.018      330.136       -2.684      860.076
02/05/2014  03:11:00      -23.236      -13.034        0.109       22.722       25.707       16.435      516.310      660.852      270.124        0.108        0.072       26.642       14.225        0.285      330.091       -2.759      860.057
02/05/2014  03:12:00      -23.838      -25.518       -2.203       48.400       23.113       12.584     2342.521      534.196      158.357        0.213        0.152       34.920       12.554        0.129      330.245       -2.506      860.060
02/05/2014  03:13:00      -76.793      -46.323       -9.404       40.979       19.712       17.647     1679.262      388.555      311.433        0.525        0.119       89.683       16.661        0.035      330.124       -2.702      860.066
02/05/2014  03:14:00      -78.143      -36.097       -5.510       27.499       19.825       13.812      756.176      393.026      190.761        0.439        0.067       86.078       14.843        0.030      330.024       -2.865      860.055
02/05/2014  03:15:00      -46.459      -20.369        4.491       29.493       23.502       12.591      869.856      552.365      158.529        0.209        0.079       50.729       11.553        0.052      330.088       -2.764      860.044
02/05/2014  03:16:00      -37.834       -0.344        2.872       14.615       18.666        9.609      213.590      348.416       92.338        0.105        0.033       37.835        8.430        0.050      330.072       -2.789      860.029
02/05/2014  03:17:00      -41.715      -22.803       -8.106       13.408        8.406        8.715      179.767       70.658       75.953        0.133        0.016       47.540        5.582        0.014      330.164       -2.639      860.012
02/05/2014  03:18:00      -30.467      -36.310       -2.858       20.997       12.468        9.695      440.877      155.439       93.986        0.147        0.035       47.399        8.587        0.033      330.255       -2.490      860.009
02/05/2014  03:19:00      -78.426      -52.015      -12.238       16.222       14.224        9.151      263.158      202.331       83.743        0.478        0.027       94.107        4.157        0.002      330.189       -2.599      860.001
02/05/2014  03:20:00     -119.202      -57.445       -7.629       16.302       34.744       11.505      265.758     1207.164      132.360        0.959        0.080      132.322       12.199        0.008      330.259       -2.482      860.016
02/05/2014  03:21:00      -80.140      -50.312       -8.245       31.192       29.889       16.197      972.927      893.353      262.349        0.557        0.106       94.624       15.553        0.027      330.300       -2.414      860.022
02/05/2014  03:22:00      -54.732       10.290      -13.964       13.441       12.467       10.872      180.655      155.414      118.204        0.188        0.023       55.691        5.936        0.011      330.387       -2.273      859.989
02/05/2014  03:23:00      -57.563        6.031       -7.548       13.273       15.545        9.589      176.184      241.662       91.944        0.196        0.025       57.878        4.300        0.006      330.384       -2.279      859.956
02/05/2014  03:24:00      -55.012      -17.082       -6.999       15.520       14.973        9.704      240.863      224.180       94.173        0.196        0.028       57.603        6.253        0.012      330.437       -2.191      859.924
02/05/2014  03:25:00      -29.495      -13.600       -2.994        8.758        7.085        6.129       76.701       50.197       37.565        0.061        0.008       32.480        2.657        0.007      330.465       -2.145      859.889
02/05/2014  03:26:00      -33.771      -12.705       -5.051        8.123        7.954        5.893       65.988       63.266       34.733        0.075        0.008       36.082        1.923        0.003      330.628       -1.877      859.845
02/05/2014  03:27:00      -74.851      -29.893       -6.212       24.592       11.168        8.936      604.781      124.713       79.857        0.367        0.040       80.600        5.561        0.005      330.466       -2.143      859.841
02/05/2014  03:28:00     -141.266      -42.956       -7.024       15.729       21.586       14.030      247.414      465.942      196.843        1.138        0.046      147.653        9.630        0.004      330.195       -2.588      859.841
02/05/2014  03:29:00      -99.829      -24.120       -3.219       45.006       31.115       19.348     2025.566      968.119      374.342        0.696        0.168      102.701       21.443        0.044      330.147       -2.666      859.838
02/05/2014  03:30:00      -80.902       10.537       -9.600       24.267       12.413        7.686      588.867      154.087       59.069        0.378        0.040       81.585        7.803        0.009      330.121       -2.708      859.822
02/05/2014  03:31:00      -58.353       10.505       -8.626       14.127       10.238        9.475      199.565      104.823       89.779        0.199        0.020       59.291        5.918        0.010      330.153       -2.657      859.793
02/05/2014  03:32:00      -91.677      -16.500       -8.417       26.047       20.193       13.188      678.461      407.743      173.926        0.500        0.063       93.150        8.011        0.007      330.289       -2.432      859.779
02/05/2014  03:33:00     -131.077      -19.874       -8.996       37.076       33.923       17.899     1374.652     1150.801      320.387        1.025        0.142      132.576       16.822        0.016      330.178       -2.616      859.772
02/05/2014  03:34:00      -67.300       30.656       -0.472       45.598       46.708       26.821     2079.155     2181.622      719.360        0.522        0.249       73.954       25.027        0.115      330.011       -2.889      859.787
02/05/2014  03:35:00      -20.665       43.202        7.087       19.915       34.492       30.652      396.610     1189.720      939.548        0.243        0.126       47.890       20.504        0.183      330.069       -2.795      859.826
02/05/2014  03:36:00      -28.415       20.990       -9.738       25.839       27.914       17.037      667.639      779.189      290.264        0.154        0.087       35.327       13.662        0.150      330.198       -2.583      859.852
02/05/2014  03:37:00      -30.713       16.731       -6.358       11.437       15.118       13.018      130.811      228.540      169.481        0.090        0.026       34.975        7.935        0.051      330.042       -2.838      859.853
02/05/2014  03:38:00       20.813       10.538       -6.766       24.785       17.443        8.942      614.278      304.259       79.967        0.079        0.050       23.329        9.287        0.158      330.177       -2.617      859.835
02/05/2014  03:39:00       59.505       56.403       11.100       23.172       17.835       19.511      536.939      318.072      380.667        0.404        0.062       81.988       14.376        0.031      330.215       -2.555      859.816
02/05/2014  03:40:00       49.483       47.046        8.827       22.157       22.704       15.872      490.949      515.477      251.932        0.300        0.063       68.278       11.602        0.029      330.142       -2.676      859.810
02/05/2014  03:41:00       27.315       45.329       -3.964       13.537        9.251       10.746      183.239       85.577      115.472        0.160        0.019       52.923        6.429        0.015      330.257       -2.487      859.820
02/05/2014  03:42:00       17.442       30.628       -6.422       10.335        9.685        6.939      106.814       93.792       48.151        0.077        0.012       35.246        5.953        0.029      330.421       -2.216      859.831
02/05/2014  03:43:00       15.054        5.754        3.865        8.033       10.006        7.401       64.531      100.121       54.771        0.025        0.011       16.116        5.945        0.136      330.447       -2.175      859.854
02/05/2014  03:44:00       28.920       16.589       11.359        9.353       10.392       10.509       87.476      107.989      110.429        0.077        0.015       33.340        6.769        0.041      330.545       -2.014      859.864
02/05/2014  03:45:00       39.062       20.911       11.765       13.425       10.761       11.428      180.236      115.797      130.591        0.126        0.021       44.307        4.836        0.012      330.510       -2.070      859.858
02/05/2014  03:46:00       47.996       31.151       12.555       16.423       12.482       11.353      269.720      155.808      128.887        0.199        0.028       57.219        9.696        0.029      330.414       -2.228      859.834
02/05/2014  03:47:00       66.897       44.839       18.623       17.408       15.252       12.500      303.035      232.632      156.238        0.376        0.035       80.534        9.507        0.014      330.384       -2.278      859.816
02/05/2014  03:48:00       68.381       51.554       12.757       23.925       15.311       14.038      572.415      234.433      197.078        0.425        0.050       85.638        7.293        0.007      330.395       -2.259      859.811
02/05/2014  03:49:00       38.563       43.729        3.206       17.602       30.313       19.029      309.834      918.871      362.086        0.250        0.080       58.303       20.156        0.120      330.245       -2.505      859.812
02/05/2014  03:50:00       35.365       37.163       -0.582       15.920       21.046       14.421      253.438      442.926      207.951        0.177        0.045       51.300       10.662        0.043      330.182       -2.609      859.824
02/05/2014  03:51:00       47.779       33.207        6.376       21.646       15.645       12.873      468.530      244.780      165.708        0.215        0.044       58.186        8.061        0.019      330.169       -2.630      859.823
02/05/2014  03:52:00       77.286       56.522       11.536       19.759       20.046       13.367      390.437      401.837      178.664        0.514        0.049       95.749        7.766        0.007      330.123       -2.706      859.814
02/05/2014  03:53:00       89.329       51.540        3.284       20.523       17.949       16.739      421.187      322.168      280.195        0.584        0.051      103.131       12.075        0.014      330.161       -2.643      859.799
02/05/2014  03:54:00       87.726       50.122       -0.939       19.354       18.378       14.834      374.580      337.758      220.043        0.557        0.047      101.035        8.327        0.007      330.135       -2.688      859.791
02/05/2014  03:55:00       69.474       36.737        8.494       22.458       21.232       18.383      504.377      450.781      337.927        0.377        0.065       78.589       15.829        0.041      330.083       -2.772      859.781
02/05/2014  03:56:00       70.739       32.970        1.238       19.344       23.260       11.459      374.185      541.029      131.304        0.357        0.052       78.045        5.109        0.004      330.032       -2.854      859.783
02/05/2014  03:57:00       41.086       17.060        6.751       16.432       14.791       18.154      269.998      218.782      329.566        0.142        0.041       44.487       12.017        0.073      330.040       -2.842      859.793
02/05/2014  03:58:00        4.179       22.320       -6.600       14.800        9.479        6.769      219.031       89.853       45.819        0.046        0.018       22.708        5.237        0.053      330.018       -2.876      859.816
02/05/2014  03:59:00       10.793       44.484       -5.404       10.403       14.936        7.089      108.230      223.082       50.249        0.125        0.019       45.775        4.010        0.008      330.145       -2.670      859.840
02/05/2014  04:00:00       26.435       36.511        6.330       16.300       20.316       14.454      265.693      412.748      208.921        0.148        0.044       45.076       14.223        0.100      330.135       -2.687      859.839
02/05/2014  04:01:00       36.047       26.487        7.191       17.757       13.561        9.896      315.296      183.893       97.926        0.132        0.030       44.732        4.666        0.011      330.138       -2.681      859.841
02/05/2014  04:02:00       60.529       29.821       14.242        8.704       11.123       10.628       75.761      123.724      112.950        0.253        0.016       67.477        6.149        0.008      330.252       -2.495      859.852
02/05/2014  04:03:00       38.011       24.438        6.357        9.886       14.705       10.232       97.736      216.250      104.685        0.125        0.021       45.189        7.378        0.027      330.172       -2.626      859.867
02/05/2014  04:04:00       25.800       24.498        1.131       16.091       15.405       10.904      258.922      237.316      118.893        0.094        0.031       35.578        9.504        0.071      330.097       -2.750      859.885
02/05/2014  04:05:00       20.017       25.289       -2.300       11.589       18.608        9.885      134.304      346.264       97.715        0.081        0.029       32.252        9.640        0.089      330.061       -2.808      859.899
02/05/2014  04:06:00       24.527       56.971       -5.950       13.727       20.182       12.643      188.422      407.300      159.836        0.232        0.038       62.027       11.080        0.032      330.020       -2.874      859.909
02/05/2014  04:07:00       25.334       70.127       -8.770       13.004       10.275       12.229      169.098      105.570      149.538        0.303        0.021       74.563        9.125        0.015      330.006       -2.897      859.905
02/05/2014  04:08:00       39.863       40.546        2.435       20.031       13.587       15.350      401.240      184.603      235.619        0.203        0.041       56.860        7.833        0.019      329.960       -2.972      859.896
02/05/2014  04:09:00       54.906       37.047        8.499       24.702       14.936       14.924      610.176      223.073      222.738        0.276        0.053       66.235        9.565        0.021      329.951       -2.987      859.905
02/05/2014  04:10:00       32.657       28.016       -0.900       15.436       15.421       12.880      238.276      237.818      165.898        0.125        0.032       43.028        9.420        0.048      329.970       -2.956      859.908
02/05/2014  04:11:00        6.384       25.461       -4.256        7.977       10.862        5.509       63.637      117.986       30.344        0.046        0.011       26.250        5.517        0.044      330.024       -2.867      859.916
02/05/2014  04:12:00      -24.314       20.272       -2.867       20.400       12.451        9.054      416.168      155.030       81.978        0.083        0.033       31.656        5.121        0.026      330.052       -2.822      859.925
02/05/2014  04:13:00      -61.162       -0.843       -7.263       10.259        7.886        5.203      105.249       62.189       27.075        0.199        0.010       61.168        4.444        0.005      329.845       -3.162      859.938
02/05/2014  04:14:00      -49.616      -10.193       -6.820       11.214       12.131       10.183      125.751      147.155      103.685        0.149        0.019       50.652        4.349        0.007      329.906       -3.062      859.944
02/05/2014  04:15:00      -44.301       13.452       -4.898       19.364       10.287       12.016      374.956      105.821      144.377        0.140        0.031       46.298       13.823        0.089      329.937       -3.012      859.947
02/05/2014  04:16:00       19.731       10.920       -4.924       16.820       16.607       14.844      282.904      275.794      220.346        0.066        0.039       22.551       13.004        0.333      330.114       -2.720      859.949
02/05/2014  04:17:00       39.856       35.091       10.782        8.886       11.184        8.784       78.960      125.089       77.156        0.161        0.014       53.103        6.160        0.013      330.305       -2.407      859.950
02/05/2014  04:18:00       22.503       32.767        0.777       16.149       15.797        8.013      260.781      249.549       64.216        0.108        0.029       39.749        7.885        0.039      330.294       -2.426      859.942
02/05/2014  04:19:00      -15.349       15.611       -1.609       27.826       14.926        5.967      774.267      222.774       35.603        0.076        0.052       21.893        8.410        0.148      330.229       -2.533      859.941
02/05/2014  04:20:00      -91.390       -3.772      -14.443       20.604       22.688       13.139      424.540      514.724      172.633        0.484        0.056       91.467        7.969        0.008      329.621       -3.528      859.949
02/05/2014  04:21:00      -91.571        1.238      -11.747       27.966       16.431       15.352      782.074      269.992      235.669        0.491        0.064       91.579       16.321        0.032      329.497       -3.731      859.964
02/05/2014  04:22:00      -60.762       -9.638      -13.661       23.449       12.360       10.413      549.858      152.781      108.424        0.239        0.041       61.522        9.566        0.024      329.511       -3.708      859.992
02/05/2014  04:23:00      -56.468      -19.169      -11.935       13.381        9.812        8.085      179.047       96.266       65.360        0.202        0.017       59.633        4.398        0.005      329.508       -3.712      860.018
02/05/2014  04:24:00      -39.866      -14.569       -5.806       11.947       11.068        9.857      142.726      122.506       97.156        0.110        0.018       42.444        8.121        0.037      329.695       -3.408      860.032
02/05/2014  04:25:00       24.698       45.264       -3.472       23.956       35.231        9.513      573.888     1241.248       90.489        0.229        0.095       51.564       10.519        0.042      330.088       -2.762      860.028
02/05/2014  04:26:00        9.324       92.441      -12.705       17.985       13.639        7.886      323.457      186.026       62.193        0.468        0.029       92.910        5.608        0.004      330.176       -2.620      860.012
02/05/2014  04:27:00      -14.246      114.565      -15.595       13.022       12.772       11.613      169.582      163.115      134.859        0.702        0.023      115.448        4.605        0.002      330.288       -2.435      860.007
02/05/2014  04:28:00      -36.438       81.603      -11.724       32.000       31.597       13.058     1024.012      998.352      170.515        0.516        0.110       89.369        9.823        0.012      330.267       -2.469      860.019
02/05/2014  04:29:00      -52.505       33.820      -10.232       28.147       34.605       16.872      792.245     1197.526      284.658        0.314        0.114       62.454       14.614        0.055      329.978       -2.944      860.037
02/05/2014  04:30:00      -32.583      -11.620      -10.638       16.745       20.618       12.178      280.391      425.120      148.314        0.108        0.043       34.593        9.116        0.069      329.885       -3.094      860.045
02/05/2014  04:31:00      -24.551      -29.042       -2.707        9.524       10.477        9.117       90.711      109.775       83.126        0.087        0.014       38.029        4.629        0.015      329.914       -3.048      860.037
02/05/2014  04:32:00      -44.439      -23.827       -5.165       21.459       13.970        9.728      460.472      195.174       94.643        0.166        0.038       50.424        9.498        0.035      329.840       -3.171      860.036
02/05/2014  04:33:00      -90.038      -10.652      -20.752       11.910       12.406       10.679      141.848      153.903      114.041        0.453        0.020       90.666        7.194        0.006      329.718       -3.369      860.041
02/05/2014  04:34:00      -96.288        3.405      -17.295       12.622        9.868        7.871      159.326       97.369       61.945        0.495        0.016       96.349        5.917        0.004      329.876       -3.110      860.062
02/05/2014  04:35:00      -59.621       14.286      -10.765       14.847       12.931        7.921      220.438      167.215       62.748        0.216        0.023       61.309        7.852        0.016      329.999       -2.909      860.072
02/05/2014  04:36:00      -36.867       51.440       -9.270       12.957       26.884       11.142      167.891      722.727      124.142        0.255        0.051       63.288        4.350        0.005      330.401       -2.251      860.065
02/05/2014  04:37:00      -33.367        5.161       -3.503       17.046       25.515       10.445      290.560      651.041      109.094        0.110        0.053       33.764        9.311        0.076      330.157       -2.650      860.081
02/05/2014  04:38:00     -100.703      -31.433      -13.632       15.713       22.288       13.247      246.887      496.760      175.491        0.612        0.046      105.494        8.147        0.006      329.492       -3.737      860.110
02/05/2014  04:39:00     -151.036      -63.016      -12.291       33.033       35.376       23.548     1091.158     1251.452      554.503        1.492        0.145      163.655       20.900        0.016      329.408       -3.876      860.146
02/05/2014  04:40:00     -134.231      -11.663       -5.229       42.632       29.309       21.186     1817.452      859.024      448.846        1.065        0.156      134.737       22.047        0.027      329.337       -3.993      860.173
02/05/2014  04:41:00     -100.813       -2.339       -7.569       47.944       27.676       22.247     2298.673      765.941      494.928        0.689        0.178      100.840       20.753        0.042      329.417       -3.861      860.177
02/05/2014  04:42:00      -93.374        9.063       -7.663       33.060       22.077       20.237     1092.955      487.389      409.553        0.542        0.099       93.813       18.542        0.039      329.490       -3.741      860.166
02/05/2014  04:43:00      -62.606       -9.197       -4.672       42.387       29.230       19.125     1796.649      854.392      365.777        0.352        0.151       63.278       17.403        0.076      329.434       -3.834      860.157
02/05/2014  04:44:00      -73.857      -16.603       -8.701       41.021       27.522       14.270     1682.710      757.487      203.628        0.422        0.132       75.701       11.453        0.023      329.442       -3.820      860.149
02/05/2014  04:45:00     -102.596      -18.516       -0.785       37.292       33.867       20.481     1390.715     1147.006      419.473        0.691        0.148      104.254       19.445        0.035      329.382       -3.919      860.141
02/05/2014  04:46:00     -138.918      -47.651       -2.813       38.968       37.263       22.217     1518.505     1388.564      493.585        1.249        0.170      146.863       10.360        0.005      329.391       -3.904      860.136
02/05/2014  04:47:00     -113.955        0.042       -1.685       67.701       52.051       31.262     4583.466     2709.274      977.343        1.063        0.414      113.955       29.813        0.068      329.302       -4.050      860.144
02/05/2014  04:48:00     -177.658       36.985      -15.428       66.814       26.933       22.572     4464.077      725.385      509.489        1.943        0.285      181.467       20.845        0.013      329.279       -4.088      860.135
02/05/2014  04:49:00     -149.192       46.582      -16.037       46.493       33.134       24.848     2161.596     1097.880      617.445        1.428        0.194      156.295       13.491        0.007      329.327       -4.009      860.097
02/05/2014  04:50:00     -127.814       12.700      -17.144       41.159       38.683       28.127     1694.082     1496.410      791.118        1.039        0.199      128.443       21.815        0.029      329.366       -3.945      860.051
02/05/2014  04:51:00     -135.549      -14.888      -15.306       35.383       39.911       18.645     1251.944     1592.873      347.650        1.101        0.160      136.364       14.672        0.012      329.457       -3.796      860.016
02/05/2014  04:52:00     -133.675      -31.153      -10.833       46.635       51.442       26.188     2174.792     2646.315      685.798        1.223        0.275      137.257       13.806        0.010      329.437       -3.828      860.002
02/05/2014  04:53:00     -182.006        9.149      -14.643       54.872       35.504       33.004     3010.907     1260.502     1089.236        1.939        0.268      182.236       33.161        0.033      329.407       -3.879      860.005
02/05/2014  04:54:00     -245.615       28.514      -24.445       31.933       40.914       22.034     1019.726     1673.916      485.510        3.246        0.159      247.265       15.684        0.004      329.405       -3.887      860.023
02/05/2014  04:55:00     -159.111       29.258      -19.457       48.618       36.105       29.226     2363.748     1303.561      854.133        1.554        0.226      161.779       27.905        0.030      329.388       -3.908      860.035
02/05/2014  04:56:00     -107.179       14.734      -11.513       32.788       33.689       21.266     1075.040     1134.979      452.225        0.725        0.133      108.187       17.207        0.025      329.447       -3.812      860.043
02/05/2014  04:57:00     -162.859        3.457      -11.353       44.195       42.042       24.453     1953.220     1767.500      597.957        1.549        0.216      162.896       24.982        0.024      329.413       -3.867      860.064
02/05/2014  04:58:00     -156.273       -4.812      -18.043       48.865       55.081       27.147     2387.815     3033.908      736.942        1.546        0.308      156.347       16.048        0.011      329.372       -3.936      860.083
02/05/2014  04:59:00     -121.319       -5.282      -19.480       36.394       45.785       26.789     1324.498     2096.241      717.630        0.963        0.207      121.434       17.429        0.021      329.314       -4.031      860.089
02/05/2014  05:00:00      -54.770       -9.792       -8.784       27.529       19.181       19.303      757.859      367.910      372.587        0.234        0.075       55.638       15.609        0.079      329.390       -3.904      860.073
02/05/2014  05:01:00       22.659        0.689       -6.309       16.863       19.062       15.243      284.362      363.367      232.345        0.072        0.044       22.669        9.436        0.173      329.641       -3.495      860.036
02/05/2014  05:02:00       18.823      -37.180        8.871       18.416       18.182       23.165      339.154      330.570      536.600        0.151        0.060       41.673        9.943        0.057      330.000       -2.907      859.998
02/05/2014  05:03:00      -36.654      -20.352      -11.202       40.529       18.812       16.504     1642.569      353.892      272.384        0.208        0.113       41.926        9.053        0.047      329.842       -3.167      859.996
02/05/2014  05:04:00     -140.186      -48.546       -6.296       24.643       25.409       15.290      607.288      645.618      233.771        1.177        0.074      148.354       10.222        0.005      329.398       -3.893      860.024
02/05/2014  05:05:00      -56.690      -53.293       -8.537       46.127       14.208       11.172     2127.704      201.867      124.824        0.429        0.123       77.807        9.076        0.014      329.312       -4.032      860.049
02/05/2014  05:06:00      -14.648      -32.129       -3.347       15.713       13.597       16.114      246.891      184.869      259.664        0.097        0.035       35.311       10.396        0.087      329.423       -3.849      860.048
02/05/2014  05:07:00      -66.608      -33.026       -3.105       30.721       22.314       12.881      943.764      497.911      165.914        0.357        0.080       74.346        7.021        0.009      329.501       -3.724      860.069
02/05/2014  05:08:00     -125.674      -72.779       -4.591       32.759       32.610       19.633     1073.159     1063.431      385.447        1.182        0.126      145.227       12.593        0.008      329.444       -3.818      860.108
02/05/2014  05:09:00     -104.712      -22.159      -10.797       12.802       18.866       10.699      163.895      355.910      114.472        0.610        0.032      107.031        2.153        0.000      329.418       -3.860      860.139
02/05/2014  05:10:00     -131.591        4.699      -16.156       54.930       22.332       15.326     3017.251      498.724      234.885        1.067        0.188      131.675       17.886        0.018      329.450       -3.808      860.158
02/05/2014  05:11:00     -181.556       -9.815      -12.675       71.007       54.417       33.257     5042.013     2961.250     1106.035        2.116        0.455      181.821       28.592        0.025      329.397       -3.895      860.177
02/05/2014  05:12:00     -191.040      -47.751      -24.801       47.878       41.530       32.286     2292.321     1724.743     1042.371        2.222        0.253      196.917       23.032        0.014      329.265       -4.110      860.202
02/05/2014  05:13:00      -92.076      -12.919       -8.013       52.460       37.341       22.806     2752.015     1394.382      520.119        0.669        0.233       92.978       18.743        0.041      329.304       -4.045      860.191
02/05/2014  05:14:00      -30.544      -33.166       -2.009       32.694       18.806       13.064     1068.866      353.650      170.667        0.181        0.080       45.088       10.514        0.054      329.399       -3.891      860.146
02/05/2014  05:15:00      -88.924      -41.696       -8.895       42.979       14.643       14.439     1847.164      214.411      208.488        0.600        0.114       98.215       16.574        0.028      329.446       -3.813      860.134
02/05/2014  05:16:00     -161.699      -15.859      -10.934       66.691       54.551       25.972     4447.651     2975.807      674.562        1.731        0.405      162.475       26.923        0.027      329.416       -3.864      860.152
02/05/2014  05:17:00     -158.509        1.044       -8.336       59.480       46.012       26.850     3537.867     2117.074      720.909        1.578        0.319      158.512       28.329        0.032      329.425       -3.849      860.179
02/05/2014  05:18:00      -58.782       19.607       -0.321       54.298       18.681       19.281     2948.324      348.981      371.767        0.375        0.183       61.966       22.115        0.127      329.425       -3.849      860.181
02/05/2014  05:19:00      -28.761      -34.258       -1.384       26.707       25.341       15.261      713.276      642.157      232.904        0.180        0.079       44.731        8.751        0.038      329.515       -3.702      860.185
02/05/2014  05:20:00     -120.992       -2.440       -8.792       33.019       30.589       23.152     1090.277      935.677      536.033        0.864        0.128      121.017       14.254        0.014      329.460       -3.791      860.226
02/05/2014  05:21:00      -67.918        6.384       -3.538       35.152       33.849       19.079     1235.693     1145.741      364.025        0.371        0.137       68.217       17.009        0.062      329.410       -3.873      860.254
02/05/2014  05:22:00       37.689       38.676        5.872       19.565       25.196       24.581      382.802      634.817      604.229        0.229        0.081       54.002       20.211        0.140      329.536       -3.666      860.272
02/05/2014  05:23:00       40.426       53.022        2.168       21.091       21.373       17.449      444.829      456.814      304.460        0.283        0.060       66.675       17.718        0.071      329.535       -3.667      860.305
02/05/2014  05:24:00       28.548       43.363       -2.060       16.499       22.992       16.992      272.207      528.647      288.714        0.189        0.054       51.916       16.518        0.101      329.444       -3.816      860.326
02/05/2014  05:25:00       37.892        3.010       10.322       34.612       26.100       20.232     1197.987      681.205      409.345        0.192        0.114       38.011       17.033        0.201      329.358       -3.958      860.334
02/05/2014  05:26:00       28.075       15.439        7.052       35.908       15.243       13.594     1289.363      232.353      184.796        0.139        0.085       32.040       13.454        0.176      329.369       -3.941      860.343
02/05/2014  05:27:00       13.639      -23.642       -2.186       15.084       15.908       16.078      227.541      253.069      258.517        0.074        0.037       27.294       12.311        0.203      329.540       -3.659      860.357
02/05/2014  05:28:00      -15.241       -6.714        1.895       15.655        8.240        5.214      245.075       67.904       27.184        0.031        0.017       16.654        4.092        0.060      329.412       -3.869      860.373
02/05/2014  05:29:00        4.927        2.801        3.627        6.258       11.988        8.529       39.160      143.720       72.737        0.015        0.013        5.667        5.547        0.958      329.711       -3.381      860.375
02/05/2014  05:30:00       14.306       15.902        5.638        8.909        8.117        8.977       79.365       65.880       80.588        0.036        0.011       21.390        4.829        0.051      330.022       -2.871      860.395
02/05/2014  05:31:00       37.785       24.171       20.132        8.788       15.304       15.049       77.225      234.214      226.474        0.148        0.027       44.855       10.149        0.051      329.933       -3.018      860.400
02/05/2014  05:32:00       53.771       38.475       22.520       16.241       21.583       21.110      263.769      465.846      445.645        0.303        0.059       66.118       13.194        0.040      329.765       -3.292      860.379
02/05/2014  05:33:00       -0.068       -1.965       12.221       29.032       28.470       11.753      842.873      810.535      138.136        0.097        0.090        1.966        7.816       15.805      329.798       -3.238      860.372
02/05/2014  05:34:00      -82.312       -8.759      -17.506       45.850       28.301       12.921     2102.253      800.939      166.964        0.511        0.154       82.777       16.339        0.039      329.683       -3.426      860.392
02/05/2014  05:35:00     -102.996       10.859       -5.985       53.776       37.545       27.334     2891.907     1409.661      747.130        0.790        0.252      103.567       29.430        0.081      329.259       -4.120      860.416
02/05/2014  05:36:00      -90.159       -6.228      -11.214       38.564       24.118       17.078     1487.190      581.668      291.641        0.533        0.118       90.373       16.934        0.035      329.192       -4.228      860.419
02/05/2014  05:37:00      -24.770       10.984       -1.973       25.264       16.266       16.262      638.279      264.580      264.455        0.095        0.058       27.096       15.629        0.333      329.557       -3.633      860.399
02/05/2014  05:38:00       29.490        3.281        4.251       16.718       11.477       12.468      279.507      131.728      155.440        0.073        0.028       29.672       10.917        0.135      330.065       -2.801      860.376
02/05/2014  05:39:00      -19.910      -14.313       -3.952       18.487       12.309        8.046      341.775      151.520       64.732        0.059        0.028       24.521        7.932        0.105      330.042       -2.839      860.390
02/05/2014  05:40:00      -46.262      -13.408       -0.475        9.002       19.204        7.278       81.042      368.789       52.964        0.141        0.025       48.166        6.233        0.017      329.788       -3.254      860.411
02/05/2014  05:41:00       21.231       18.675        3.902       32.530       16.480       13.716     1058.194      271.596      188.119        0.117        0.076       28.276       19.697        0.485      329.771       -3.281      860.408
02/05/2014  05:42:00       81.692       55.750       16.365       21.788       17.541       16.955      474.703      307.676      287.477        0.556        0.053       98.902       14.677        0.022      329.736       -3.338      860.392
02/05/2014  05:43:00      120.507       51.255       10.991       41.778       25.715       27.990     1745.380      661.250      783.437        1.023        0.160      130.955       19.484        0.022      329.866       -3.126      860.378
02/05/2014  05:44:00       39.388       44.838       45.098       44.231       22.791       17.529     1956.410      519.435      307.283        0.419        0.139       59.681       12.885        0.047      329.717       -3.371      860.389
02/05/2014  05:45:00      -14.024      -31.383       -0.091       18.569       17.317       15.279      344.810      299.877      233.443        0.103        0.044       34.374       13.677        0.158      329.843       -3.165      860.429
02/05/2014  05:46:00      -30.644      -19.260       15.172       46.652       29.258       23.618     2176.420      856.046      557.809        0.256        0.180       36.194       20.129        0.309      329.678       -3.434      860.483
02/05/2014  05:47:00      -63.520      -53.381        5.839       41.012       32.444       18.825     1681.961     1052.615      354.377        0.500        0.154       82.972       16.256        0.038      329.700       -3.398      860.523
02/05/2014  05:48:00      -12.626       10.918        3.891       32.898       17.648       15.034     1082.296      311.435      226.034        0.096        0.081       16.692       15.283        0.838      329.688       -3.418      860.556
02/05/2014  05:49:00       38.883       24.819       10.926        7.642       11.141        9.374       58.397      124.126       87.878        0.126        0.014       46.129        4.322        0.009      329.877       -3.107      860.581
02/05/2014  05:50:00       50.552       37.196       12.349       10.385        8.326       10.609      107.855       69.319      112.561        0.219        0.014       62.762        8.283        0.017      329.933       -3.017      860.605
02/05/2014  05:51:00       31.407       44.401        7.017       17.751       22.885       14.972      315.092      523.734      224.150        0.203        0.053       54.386       13.889        0.065      329.672       -3.445      860.627
02/05/2014  05:52:00       66.313       39.521        4.020       26.819       21.706       19.386      719.284      471.166      375.803        0.377        0.078       77.197        9.770        0.016      329.654       -3.473      860.636
02/05/2014  05:53:00      125.938       66.416       25.349       29.026       34.089       27.207      842.522     1162.058      740.206        1.183        0.137      142.378       17.278        0.015      329.669       -3.449      860.630
02/05/2014  05:54:00      101.199       62.131       17.819       27.910       22.320       23.409      778.962      498.195      548.001        0.812        0.091      118.750       14.086        0.014      329.570       -3.611      860.615
02/05/2014  05:55:00       54.461       34.862       27.212       28.810       18.059       18.341      830.009      326.130      336.396        0.321        0.075       64.663        8.752        0.018      329.664       -3.458      860.643
02/05/2014  05:56:00       67.649       37.184       12.052       22.109       16.982       13.684      488.823      288.391      187.248        0.353        0.048       77.194        5.495        0.005      329.673       -3.443      860.679
02/05/2014  05:57:00       60.122       53.997       44.612       28.908       22.290       33.877      835.662      496.836     1147.682        0.550        0.124       80.810       17.178        0.045      329.611       -3.545      860.685
02/05/2014  05:58:00       41.089       99.030       86.151       42.678       42.297       27.177     1821.451     1789.023      738.585        1.163        0.217      107.216       24.585        0.053      329.536       -3.665      860.660
02/05/2014  05:59:00       50.069       78.749       66.840       58.355       31.350       36.107     3405.318      982.825     1303.714        0.943        0.285       93.318       39.062        0.175      329.423       -3.853      860.684
02/05/2014  06:00:00       50.841       12.349        7.211       22.162       20.528       19.006      491.155      421.382      361.214        0.203        0.064       52.320       15.927        0.093      329.273       -4.097      860.731
02/05/2014  06:01:00       20.535       -2.184       20.879       21.344       11.247        8.528      455.546      126.505       72.729        0.076        0.033       20.651        8.474        0.168      329.313       -4.031      860.735
02/05/2014  06:02:00       31.765       -6.482       22.636       22.519       21.333       19.791      507.083      455.106      391.673        0.146        0.068       32.419       11.398        0.124      329.452       -3.803      860.710
02/05/2014  06:03:00       18.795       73.996       77.093       30.662       40.394       27.522      940.156     1631.714      757.444        0.755        0.166       76.346       27.333        0.128      329.339       -3.989      860.665
02/05/2014  06:04:00        8.937       99.410      105.758       22.681       45.347       21.995      514.439     2056.324      483.782        1.210        0.153       99.811       29.113        0.085      329.370       -3.938      860.596
02/05/2014  06:05:00       30.955       58.043       76.394       37.058       38.671       28.019     1373.303     1495.418      785.083        0.691        0.183       65.782       28.345        0.186      329.400       -3.889      860.558
02/05/2014  06:06:00       76.419       70.271       41.862       51.755       27.246       34.984     2678.593      742.358     1223.905        0.859        0.232      103.817       36.234        0.122      329.429       -3.841      860.574
02/05/2014  06:07:00       60.188       46.410       11.575       39.794       30.642       19.683     1583.551      938.943      387.426        0.441        0.145       76.003       12.647        0.028      329.359       -3.957      860.605
02/05/2014  06:08:00       44.445       20.653        5.497       21.878       16.860       17.131      478.661      284.266      293.464        0.174        0.053       49.009       12.181        0.062      329.351       -3.970      860.620
02/05/2014  06:09:00       29.961       32.780       29.554       27.889       26.400       27.708      777.790      696.954      767.740        0.254        0.112       44.410       23.140        0.271      329.376       -3.929      860.624
02/05/2014  06:10:00        2.091       47.489       62.375       13.823       29.943       21.123      191.087      896.570      446.198        0.384        0.077       47.535       22.123        0.217      329.427       -3.845      860.644
02/05/2014  06:11:00      -25.688      -29.154        9.424       43.795       22.430       20.050     1918.017      503.120      402.002        0.221        0.141       38.857       21.218        0.298      329.550       -3.645      860.672
02/05/2014  06:12:00     -110.181      -40.849       -5.602       25.044       18.423       12.724      627.207      339.416      161.888        0.748        0.056      117.510        3.960        0.001      329.650       -3.480      860.692
02/05/2014  06:13:00      -26.178      -31.173       14.783       69.518       26.259       25.248     4832.736      689.521      637.443        0.402        0.308       40.707       29.904        0.540      329.580       -3.594      860.701
02/05/2014  06:14:00      -10.840      -22.906       -1.628       36.257       60.695       32.044     1314.579     3683.898     1026.792        0.333        0.301       25.341       27.062        1.140      329.650       -3.480      860.670
02/05/2014  06:15:00        7.358       33.379       67.159       28.889       27.842       17.414      834.580      775.153      303.260        0.380        0.096       34.180       13.648        0.159      329.556       -3.634      860.648
02/05/2014  06:16:00        9.261       42.585       44.402       19.060       19.846       19.114      363.297      393.864      365.335        0.250        0.056       43.580       11.907        0.075      329.545       -3.651      860.655
02/05/2014  06:17:00        5.599       35.179        2.526       11.118        9.781       11.319      123.608       95.677      128.116        0.081        0.017       35.621        7.535        0.045      329.591       -3.576      860.684
02/05/2014  06:18:00      -18.222       17.358       -4.114       11.853       13.844        4.569      140.486      191.655       20.876        0.050        0.018       25.167        4.333        0.030      329.670       -3.448      860.738
02/05/2014  06:19:00      -25.013      -27.735       -5.274       24.466       21.083       12.954      598.592      444.476      167.808        0.132        0.061       37.348       10.173        0.074      329.697       -3.402      860.766
02/05/2014  06:20:00        1.388      -32.257       17.642       21.560       23.338       18.132      464.831      544.649      328.752        0.135        0.067       32.287       11.636        0.130      329.648       -3.484      860.767
02/05/2014  06:21:00       -6.805       23.154        2.524       31.898       35.354       17.549     1017.504     1249.919      307.972        0.158        0.129       24.133        7.269        0.091      329.705       -3.391      860.749
02/05/2014  06:22:00      -47.397       17.121       21.878       23.274       16.415       17.254      541.671      269.443      297.701        0.206        0.055       50.394       12.560        0.062      329.670       -3.448      860.733
02/05/2014  06:23:00       17.998       -6.083       21.043       29.228       23.432       23.751      854.299      549.064      564.120        0.139        0.098       18.998       17.758        0.874      329.695       -3.407      860.725
02/05/2014  06:24:00       48.533       35.675       54.269       28.692       65.796       38.293      823.242     4329.147     1466.349        0.659        0.331       60.234       40.412        0.450      329.786       -3.258      860.700
02/05/2014  06:25:00       84.315       70.561       66.735       43.531       40.783       38.241     1894.965     1663.281     1462.345        1.078        0.251      109.945       27.501        0.063      329.773       -3.278      860.665
02/05/2014  06:26:00       34.110       70.995       76.967       24.366       34.323       18.010      593.716     1178.038      324.364        0.711        0.105       78.764       22.239        0.080      329.814       -3.212      860.634
02/05/2014  06:27:00       16.130       29.777       29.198       22.412       20.741       14.871      502.302      430.200      221.153        0.158        0.058       33.865       10.747        0.101      329.753       -3.311      860.641
02/05/2014  06:28:00        2.821        3.686        3.955        8.119       10.150        9.785       65.913      103.017       95.742        0.015        0.013        4.642        7.566        2.657      329.720       -3.367      860.661
02/05/2014  06:29:00       11.684        8.174        5.747       11.299       10.369       11.192      127.662      107.522      125.268        0.030        0.018       14.259        7.628        0.286      329.762       -3.297      860.678
02/05/2014  06:30:00      -59.138      -21.942       -6.359       18.855       15.897       11.258      355.496      252.700      126.743        0.238        0.037       63.078        7.594        0.014      329.532       -3.673      860.683
02/05/2014  06:31:00     -104.521      -22.473      -10.222       22.584       17.598       12.055      510.040      309.683      145.331        0.625        0.048      106.910        8.631        0.007      329.419       -3.857      860.693
02/05/2014  06:32:00     -106.448       -3.921       -3.375       67.206       30.764       25.358     4516.676      946.440      643.023        0.873        0.305      106.520       30.902        0.084      329.195       -4.226      860.714
02/05/2014  06:33:00      -98.341       21.016       -9.562       33.911       23.261       19.409     1149.929      541.064      376.720        0.614        0.103      100.561       15.477        0.024      329.151       -4.296      860.739
02/05/2014  06:34:00      -58.860       34.713       -8.135       25.607       24.502       19.677      655.738      600.354      387.168        0.319        0.082       68.333       11.634        0.029      329.181       -4.247      860.759
02/05/2014  06:35:00      -35.734       49.485      -16.493       15.520       13.820       12.821      240.885      191.000      164.390        0.230        0.030       61.038       10.299        0.028      329.445       -3.816      860.777
02/05/2014  06:36:00      -15.554       29.922        2.056       17.756       25.264       12.398      315.290      638.261      153.710        0.112        0.055       33.724        9.037        0.072      329.522       -3.691      860.789
02/05/2014  06:37:00      -53.119       16.931       -1.010       26.357       18.716       14.171      694.675      350.285      200.805        0.218        0.062       55.752       14.446        0.067      329.555       -3.634      860.797
02/05/2014  06:38:00      -92.959       30.396      -10.389       20.799       13.709       11.844      432.607      187.938      140.278        0.522        0.038       97.802       10.216        0.011      329.546       -3.649      860.808
02/05/2014  06:39:00      -68.514       21.267       -4.738       17.454       10.131       11.201      304.628      102.634      125.456        0.285        0.027       71.739       11.444        0.025      329.653       -3.475      860.806
02/05/2014  06:40:00      -47.105        9.802        4.146       12.582       10.001        8.690      158.312      100.013       75.520        0.133        0.017       48.114        5.018        0.011      329.654       -3.472      860.804
02/05/2014  06:41:00      -46.778        8.421       -3.432       32.310       19.365       14.736     1043.922      375.018      217.164        0.195        0.082       47.530       16.398        0.119      329.401       -3.887      860.807
02/05/2014  06:42:00      -65.069       27.607      -11.691       43.001       36.280       19.812     1849.043     1316.258      392.508        0.434        0.178       70.683       13.456        0.036      329.292       -4.064      860.799
02/05/2014  06:43:00      -77.653       65.145      -13.290       30.884       36.000       20.041      953.831     1296.020      401.646        0.655        0.133      101.361       12.906        0.016      329.337       -3.993      860.778
02/05/2014  06:44:00      -77.718       42.208      -11.096       22.672       25.968       17.985      513.997      674.319      323.473        0.473        0.076       88.440       14.573        0.027      329.479       -3.761      860.757
02/05/2014  06:45:00      -62.410       -3.919      -10.486       19.503       23.419       14.771      380.384      548.452      218.184        0.258        0.057       62.533        6.843        0.012      329.569       -3.614      860.768
02/05/2014  06:46:00      -82.113      -23.972       -8.982       21.454       19.109       13.747      460.261      365.138      188.973        0.421        0.051       85.540       11.094        0.017      329.468       -3.776      860.799
02/05/2014  06:47:00      -82.688      -12.352      -10.896       33.550       21.760       15.599     1125.599      473.503      243.341        0.448        0.092       83.606       15.323        0.034      329.483       -3.753      860.817
02/05/2014  06:48:00     -144.697       12.829      -19.826       25.707       22.516       13.892      660.853      506.976      192.974        1.143        0.068      145.265       10.737        0.005      329.406       -3.878      860.831
02/05/2014  06:49:00     -126.966       30.962      -10.396       56.888       27.009       19.786     3236.211      729.496      391.476        1.077        0.218      130.687       17.097        0.017      329.187       -4.238      860.847
02/05/2014  06:50:00      -71.303       38.573       -4.495       42.534       26.255       23.252     1809.109      689.311      540.645        0.482        0.152       81.068       21.771        0.072      329.327       -4.009      860.836
02/05/2014  06:51:00      -89.947       34.807      -11.387       29.211       20.251       15.653      853.298      410.090      245.003        0.547        0.075       96.447       12.457        0.017      329.474       -3.767      860.811
02/05/2014  06:52:00      -63.325       23.164      -12.923       20.371       22.632       17.177      414.959      512.223      295.061        0.297        0.061       67.429        9.174        0.019      329.557       -3.633      860.796
02/05/2014  06:53:00      -55.143       54.281      -14.873       17.250       25.010       15.023      297.573      625.510      225.698        0.368        0.057       77.376        7.775        0.010      329.708       -3.385      860.789
02/05/2014  06:54:00      -57.199       85.624      -16.665       23.420       36.042       13.581      548.517     1299.055      184.433        0.646        0.102      102.972       15.591        0.023      329.908       -3.058      860.791
02/05/2014  06:55:00      -66.461       62.821      -19.157       21.567       24.352       13.888      465.129      593.042      192.877        0.499        0.063       91.452       10.622        0.013      329.911       -3.053      860.795
02/05/2014  06:56:00      -53.718       17.792        1.001       19.497       18.042       11.028      380.136      325.501      121.618        0.202        0.041       56.588        7.353        0.017      329.765       -3.290      860.793
02/05/2014  06:57:00      -77.153      -15.443       -9.661       19.852       20.805       10.219      394.096      432.865      104.425        0.361        0.047       78.683        7.891        0.010      329.684       -3.424      860.803
02/05/2014  06:58:00      -60.903       -8.522       -7.002       33.528       29.724       15.210     1124.153      883.542      231.345        0.303        0.112       61.497       17.872        0.084      329.704       -3.392      860.824
02/05/2014  06:59:00      -71.083      -11.817      -10.873       23.416        9.005       10.714      548.330       81.094      114.791        0.303        0.037       72.059        6.870        0.009      329.617       -3.532      860.830
02/05/2014  07:00:00       -9.236      -10.298        0.415        8.284        7.529        3.798       68.624       56.678       14.428        0.017        0.007       13.833        3.489        0.064      329.722       -3.364      860.822
02/05/2014  07:01:00      -20.487       -7.305        0.791       11.028        6.977        6.637      121.619       48.674       44.050        0.034        0.011       21.751        4.893        0.051      329.790       -3.252      860.824
02/05/2014  07:02:00      -16.863        9.860        4.765       15.465       12.428        9.519      239.172      154.454       90.612        0.044        0.024       19.534        9.663        0.245      329.774       -3.277      860.842
02/05/2014  07:03:00      -43.064        3.589       -3.706       14.884       10.539        7.537      221.521      111.066       56.799        0.114        0.019       43.213        8.151        0.036      329.820       -3.201      860.851
02/05/2014  07:04:00      -52.608      -26.844       -5.498       20.168       20.370        8.245      406.758      414.950       67.979        0.220        0.044       59.061        3.300        0.003      329.799       -3.235      860.862
02/05/2014  07:05:00      -84.828      -41.138       -9.008       33.418       24.202       14.514     1116.772      585.732      210.666        0.544        0.096       94.276       10.143        0.012      329.733       -3.344      860.879
02/05/2014  07:06:00      -52.072      -41.035       -0.859       39.983       20.369       18.499     1598.658      414.913      342.208        0.338        0.118       66.297       22.030        0.110      329.721       -3.364      860.884
02/05/2014  07:07:00      -84.674      -33.583       -2.148       29.104       27.379       18.709      847.031      749.623      350.022        0.512        0.097       91.091       14.301        0.025      329.647       -3.484      860.886
02/05/2014  07:08:00      -88.823       -2.687       -8.557       25.689       17.998       11.551      659.914      323.916      133.434        0.454        0.056       88.863       12.326        0.019      329.665       -3.454      860.894
02/05/2014  07:09:00      -72.943        8.091       -7.255       22.892       16.860       13.600      524.042      284.247      184.962        0.322        0.050       73.391       11.955        0.027      329.631       -3.510      860.913
02/05/2014  07:10:00      -81.070       26.477       -8.857       24.133       11.398       10.712      582.416      129.903      114.745        0.409        0.041       85.284       10.173        0.014      329.771       -3.283      860.926
02/05/2014  07:11:00      -83.941        8.522       -8.850       25.143       17.997       15.200      632.161      323.876      231.047        0.419        0.059       84.372       12.021        0.020      329.855       -3.144      860.955
02/05/2014  07:12:00     -142.464       -2.308      -17.473       32.917       20.373       17.538     1083.561      415.049      307.587        1.121        0.090      142.483       16.728        0.014      329.833       -3.181      861.008
02/05/2014  07:13:00     -160.920       24.805      -18.797       26.110       15.954       12.496      681.713      254.541      156.160        1.398        0.055      162.821        9.034        0.003      329.721       -3.364      861.040
02/05/2014  07:14:00      -85.664       22.698      -10.295       29.157       25.997       15.292      850.126      675.841      233.849        0.486        0.088       88.620       12.918        0.021      329.719       -3.366      861.041
02/05/2014  07:15:00      -46.191        2.068      -10.924       30.654       10.631       10.751      939.692      113.009      115.573        0.171        0.058       46.238       11.079        0.057      329.971       -2.955      861.036
02/05/2014  07:16:00      -28.784       -0.412       -3.997       12.492        9.573        9.158      156.040       91.634       83.860        0.059        0.017       28.787        7.637        0.070      330.018       -2.877      861.034
02/05/2014  07:17:00      -82.541      -11.687       -7.022       45.234       23.382       20.008     2046.144      546.734      400.304        0.500        0.150       83.364       18.866        0.051      329.967       -2.962      861.039
02/05/2014  07:18:00     -172.942      -45.454      -19.733       40.098       36.046       15.309     1607.882     1299.342      234.379        1.775        0.157      178.816        9.343        0.003      329.746       -3.323      861.042
02/05/2014  07:19:00     -115.523       -7.926       -3.883       35.013       32.957       23.518     1225.876     1086.134      553.074        0.814        0.143      115.795       12.894        0.012      329.586       -3.585      861.041
02/05/2014  07:20:00     -112.751       29.890      -14.402       31.507       22.245       14.439      992.712      494.852      208.493        0.775        0.085      116.645       10.737        0.008      329.702       -3.394      861.032
02/05/2014  07:21:00     -100.831       36.829       -8.769       32.406       19.594       15.431     1050.164      383.910      238.126        0.664        0.084      107.347       14.377        0.018      329.894       -3.079      861.030
02/05/2014  07:22:00     -113.648       12.991       -9.739       20.208       19.274       15.579      408.347      371.488      242.704        0.710        0.051      114.388       11.940        0.011      329.861       -3.133      861.033
02/05/2014  07:23:00     -129.829      -21.585      -15.113       35.263       37.597       23.049     1243.490     1413.499      531.253        1.037        0.159      131.611       17.417        0.018      329.660       -3.465      861.021
02/05/2014  07:24:00     -125.358      -23.324      -14.153       40.874       39.130       24.005     1670.672     1531.157      576.237        1.012        0.189      127.509       11.340        0.008      329.675       -3.440      861.009
02/05/2014  07:25:00     -152.039      -55.250      -19.120       53.204       40.539       26.034     2830.647     1643.434      677.750        1.584        0.258      161.766       22.982        0.020      329.657       -3.470      861.015
02/05/2014  07:26:00     -185.880      -61.743       -8.511       46.786       57.704       25.495     2188.945     3329.718      649.997        2.230        0.308      195.866       26.232        0.018      329.619       -3.532      861.054
02/05/2014  07:27:00      -98.447      -36.512        5.311       41.635       35.149       22.499     1733.468     1235.480      506.198        0.726        0.174      105.000       23.572        0.050      329.637       -3.501      861.065
02/05/2014  07:28:00      -26.423       -6.488        2.861       24.737       22.761       14.621      611.898      518.063      213.760        0.105        0.067       27.208       10.397        0.146      329.703       -3.393      861.052
02/05/2014  07:29:00      -93.426      -38.950       -4.502       29.650       34.720       18.627      879.151     1205.511      346.967        0.635        0.122      101.220       14.629        0.021      329.700       -3.399      861.060
02/05/2014  07:30:00     -118.363      -27.919      -14.944       37.533       30.202       23.008     1408.710      912.179      529.345        0.893        0.143      121.611       17.562        0.021      329.729       -3.352      861.092
02/05/2014  07:31:00      -71.401       -4.905      -16.314       38.647       26.682       23.110     1493.613      711.916      534.087        0.406        0.137       71.569       17.118        0.057      329.712       -3.378      861.098
02/05/2014  07:32:00      -10.235        3.587        4.913       34.045       17.941       18.732     1159.031      321.865      350.880        0.099        0.092       10.846       17.572        2.625      329.753       -3.312      861.067
02/05/2014  07:33:00      -21.808       -2.560       -0.829       36.733       25.173       16.162     1349.341      633.686      261.197        0.136        0.112       21.958       20.860        0.903      329.860       -3.136      861.060
02/05/2014  07:34:00     -121.950      -10.668      -10.819       46.770       41.075       28.596     2187.420     1687.127      817.745        0.990        0.235      122.416       27.445        0.050      329.830       -3.184      861.130
02/05/2014  07:35:00     -150.830        9.018      -17.965       25.174       27.960       19.598      633.708      781.771      384.094        1.248        0.090      151.100       13.241        0.008      329.662       -3.461      861.186
02/05/2014  07:36:00      -64.219      -31.933      -12.384       30.811       17.988       18.448      949.325      323.556      340.334        0.345        0.081       71.720       17.405        0.059      329.707       -3.387      861.182
02/05/2014  07:37:00       -0.963       -3.879      -11.515       40.502       34.384       25.665     1640.410     1182.244      658.693        0.181        0.174        3.997       18.331       21.032      329.839       -3.173      861.138
02/05/2014  07:38:00      -20.019       20.517      -12.703       33.044       29.167       10.273     1091.890      850.717      105.527        0.152        0.102       28.665        9.883        0.119      329.859       -3.137      861.131
02/05/2014  07:39:00      -97.121      -31.898       -2.976       25.734       29.143       18.191      662.223      849.332      330.915        0.615        0.092      102.225       10.494        0.011      329.835       -3.178      861.152
02/05/2014  07:40:00     -135.652      -20.459      -10.476       29.456       26.523       22.708      867.677      703.460      515.668        1.051        0.104      137.186       18.071        0.017      329.708       -3.384      861.170
02/05/2014  07:41:00      -86.875       26.537      -11.083       37.638       24.503       15.485     1416.608      600.401      239.785        0.532        0.113       90.837       14.376        0.025      329.654       -3.474      861.155
02/05/2014  07:42:00      -39.517       66.653      -13.231       34.607       33.735       22.200     1197.612     1138.067      492.860        0.450        0.141       77.487       26.108        0.114      330.103       -2.737      861.143
02/05/2014  07:43:00        1.501       -3.750       -5.410       12.724       14.594        8.278      161.901      212.973       68.533        0.024        0.022        4.040        4.702        1.355      330.115       -2.720      861.174
02/05/2014  07:44:00      -39.558       10.526       -4.557       29.477       28.738       14.813      868.895      825.898      219.433        0.180        0.096       40.934       11.476        0.079      330.040       -2.842      861.196
02/05/2014  07:45:00      -41.664       27.164       -1.625       29.452       19.362       12.019      867.414      374.895      144.464        0.193        0.069       49.737       13.981        0.079      329.995       -2.915      861.180
02/05/2014  07:46:00       28.122        9.779       11.958       15.979       23.531       15.042      255.335      553.695      226.251        0.103        0.052       29.774       14.161        0.226      330.092       -2.757      861.121
02/05/2014  07:47:00       21.049       -0.314       -6.302       36.953       21.826       10.191     1365.526      476.357      103.866        0.121        0.097       21.052        8.426        0.160      330.117       -2.716      861.115
02/05/2014  07:48:00      -82.691      -52.303       -5.304       44.442       29.409       28.019     1975.085      864.894      785.050        0.661        0.181       97.843       21.550        0.049      330.038       -2.846      861.135
02/05/2014  07:49:00      -29.581      -29.025        4.510       43.932       28.820       20.577     1930.064      830.566      423.423        0.246        0.159       41.442       13.737        0.110      330.121       -2.709      861.125
02/05/2014  07:50:00       18.876       14.925       11.448       27.771       31.921       20.763      771.247     1018.966      431.115        0.147        0.111       24.064       14.253        0.351      330.189       -2.597      861.088
02/05/2014  07:51:00       10.497       22.306       34.354       31.466       34.046       20.834      990.105     1159.100      434.068        0.219        0.129       24.653       11.927        0.234      330.269       -2.467      861.079
02/05/2014  07:52:00        6.883       -1.910        7.662       14.539       14.324       11.786      211.385      205.180      138.913        0.033        0.028        7.143        9.165        1.646      330.466       -2.143      861.116
02/05/2014  07:53:00       -6.756       18.975       22.469        9.377        9.030        7.708       87.923       81.543       59.413        0.057        0.011       20.142        4.558        0.051      330.529       -2.040      861.145
02/05/2014  07:54:00       -2.233       12.190       26.504       16.731       11.763       12.893      279.935      138.377      166.230        0.072        0.029       12.393        8.011        0.418      330.592       -1.936      861.142
02/05/2014  07:55:00        1.651       13.224       40.397       20.829       15.664       12.671      433.836      245.375      160.548        0.132        0.042       13.327       10.989        0.680      330.681       -1.790      861.132
02/05/2014  07:56:00       40.001       37.677       10.248       21.062       17.947       21.561      443.623      322.087      464.896        0.218        0.062       54.951       11.969        0.047      330.489       -2.106      861.137
02/05/2014  07:57:00       46.051       27.293        7.318       18.537       15.496       15.500      343.605      240.118      240.259        0.187        0.041       53.532       10.084        0.035      330.444       -2.179      861.187
02/05/2014  07:58:00       45.405       23.405        4.764       15.282       16.826       16.873      233.544      283.103      284.701        0.172        0.040       51.082       11.012        0.046      330.479       -2.121      861.229
02/05/2014  07:59:00      134.578       82.188       -3.721       31.614       21.220       22.607      999.449      450.288      511.081        1.342        0.098      157.690       12.207        0.006      330.312       -2.396      861.237
02/05/2014  08:00:00      137.109       84.046       21.627       31.785       22.999       26.829     1010.282      528.951      719.790        1.429        0.113      160.818       19.772        0.015      330.163       -2.640      861.201
02/05/2014  08:01:00       66.014       60.341       43.122       26.960       21.183       25.351      726.860      448.734      642.690        0.584        0.091       89.437       14.847        0.028      330.329       -2.368      861.177
02/05/2014  08:02:00       24.117       27.661       52.511       32.052       29.200       19.872     1027.324      852.617      394.877        0.319        0.114       36.698       16.913        0.212      330.566       -1.980      861.153
02/05/2014  08:03:00       52.577        8.313       28.332       32.136       23.565       27.083     1032.738      555.306      733.494        0.298        0.116       53.230       17.329        0.106      330.362       -2.315      861.142
02/05/2014  08:04:00       58.954       62.550       40.756       35.735       20.278       25.399     1277.001      411.203      645.124        0.569        0.117       85.954       17.642        0.042      330.270       -2.465      861.131
02/05/2014  08:05:00       94.751       64.127        7.750       27.119       33.746       26.484      735.459     1138.776      701.404        0.786        0.129      114.412       13.788        0.015      330.188       -2.598      861.125
02/05/2014  08:06:00       90.673       60.781       -1.788       32.457       27.656       29.349     1053.479      764.863      861.348        0.730        0.134      109.160       16.059        0.022      330.258       -2.483      861.157
02/05/2014  08:07:00       76.801       61.691       -0.240       22.782       25.630       16.328      519.007      656.899      266.601        0.557        0.072       98.510        9.518        0.009      330.209       -2.566      861.191
02/05/2014  08:08:00       67.794       31.261       -3.914       18.752       19.094       19.134      351.634      364.587      366.092        0.334        0.054       74.655        7.420        0.010      330.226       -2.537      861.207
02/05/2014  08:09:00       54.610       36.280       16.849       20.731       29.708       21.912      429.794      882.540      480.130        0.319        0.090       65.563       11.021        0.028      330.371       -2.299      861.228
02/05/2014  08:10:00       98.759       84.108       52.543       32.011       26.254       40.143     1024.695      689.269     1611.487        1.146        0.166      129.720       21.356        0.027      330.338       -2.354      861.217
02/05/2014  08:11:00       87.929       71.078       73.867       39.189       41.501       35.309     1535.790     1722.315     1246.705        1.137        0.225      113.064       31.366        0.077      330.304       -2.409      861.185
02/05/2014  08:12:00      106.920       88.101       52.694       27.933       30.844       36.374      780.231      951.367     1323.063        1.251        0.153      138.541       27.596        0.040      330.321       -2.380      861.168
02/05/2014  08:13:00       62.842       27.017       11.169       43.737       32.294       25.534     1912.957     1042.911      651.960        0.421        0.180       68.404       17.917        0.069      330.480       -2.120      861.189
02/05/2014  08:14:00       53.773       76.404       -6.159       43.359       30.204       25.053     1880.002      912.270      627.649        0.609        0.171       93.430       20.631        0.049      330.455       -2.161      861.223
02/05/2014  08:15:00       68.889       67.365        5.322       48.492       29.142       28.160     2351.431      849.241      792.996        0.665        0.200       96.352       20.520        0.045      330.547       -2.011      861.250
02/05/2014  08:16:00       99.945       81.571       29.504       37.697       31.822       33.028     1421.060     1012.611     1090.841        1.052        0.176      129.007       22.458        0.030      330.423       -2.213      861.283
02/05/2014  08:17:00      108.435       67.883       11.732       46.900       35.580       41.300     2199.635     1265.952     1705.714        1.084        0.259      127.931       20.601        0.026      330.300       -2.417      861.292
02/05/2014  08:18:00      124.192       76.983       22.565       50.817       41.872       31.051     2582.341     1753.303      964.187        1.358        0.265      146.116       14.784        0.010      330.518       -2.060      861.293
02/05/2014  08:19:00      183.259      106.168       35.664       67.513       41.695       50.788     4557.941     1738.485     2579.427        2.750        0.444      211.791       38.809        0.034      330.396       -2.261      861.275
02/05/2014  08:20:00      145.768       91.836       46.478       59.714       46.225       42.571     3565.805     2136.769     1812.262        1.968        0.376      172.285       28.413        0.027      330.348       -2.338      861.285
02/05/2014  08:21:00       81.700       48.858       19.856       38.777       23.267       27.676     1503.677      541.337      765.974        0.613        0.141       95.195       11.291        0.014      330.318       -2.386      861.318
02/05/2014  08:22:00       11.241       11.235       52.654       25.706       61.839       38.399      660.811     3824.060     1474.496        0.449        0.298       15.893       45.440        8.175      330.837       -1.535      861.319
02/05/2014  08:23:00       45.430       20.542       36.289       41.228       66.988       41.104     1699.715     4487.332     1689.533        0.584        0.394       49.859       36.819        0.545      330.527       -2.044      861.302
02/05/2014  08:24:00       47.948      -11.304       27.751       36.433       42.283       36.265     1327.358     1787.846     1315.132        0.381        0.222       49.263       34.089        0.479      330.729       -1.711      861.310
02/05/2014  08:25:00       38.760       10.418       28.998       28.752       25.136       29.992      826.667      631.825      899.529        0.240        0.118       40.135       14.246        0.126      330.694       -1.769      861.329
02/05/2014  08:26:00       52.693       49.550       15.658       15.784       16.854       22.602      249.131      284.042      510.850        0.326        0.052       72.331       11.169        0.024      330.498       -2.092      861.353
02/05/2014  08:27:00       69.604       45.658      -10.270       32.130       27.049       21.738     1032.305      731.664      472.540        0.464        0.112       83.243        5.872        0.005      330.752       -1.672      861.385
02/05/2014  08:28:00       46.269       47.123       10.451       25.630       24.725       24.459      656.879      611.314      598.260        0.317        0.093       66.040       17.007        0.066      330.749       -1.679      861.404
02/05/2014  08:29:00       35.425       55.571       -3.977       19.992       28.851       23.605      399.676      832.402      557.186        0.307        0.089       65.902       13.210        0.040      330.860       -1.497      861.392
02/05/2014  08:30:00       59.456       53.401      -12.959       25.012       32.852       18.725      625.596     1079.224      350.627        0.430        0.103       79.917       15.438        0.037      330.711       -1.740      861.367
02/05/2014  08:31:00       86.884       61.368        7.996       31.251       20.566       18.532      976.604      422.969      343.425        0.656        0.087      106.372       10.564        0.010      330.714       -1.737      861.363
02/05/2014  08:32:00       85.701       37.529        5.719       38.702       32.977       34.408     1497.855     1087.458     1183.899        0.628        0.188       93.558       23.536        0.063      330.759       -1.664      861.362
02/05/2014  08:33:00       24.140       54.855       45.759       24.298       25.647       34.996      590.381      657.754     1224.734        0.408        0.124       59.932       24.716        0.170      330.966       -1.321      861.355
02/05/2014  08:34:00       28.946       32.237       50.066       23.731       22.464       25.556      563.161      504.633      653.120        0.305        0.086       43.326       15.097        0.121      330.980       -1.300      861.376
02/05/2014  08:35:00       34.058       32.713       32.478       16.697       17.075       18.155      278.782      291.568      329.601        0.209        0.045       47.224       12.228        0.067      330.928       -1.383      861.391
02/05/2014  08:36:00       25.586       -2.104       23.796       30.537       47.405       29.092      932.528     2247.242      846.336        0.263        0.201       25.673       29.192        1.293      331.249       -0.857      861.398
02/05/2014  08:37:00       10.183       32.889       49.280       23.836       25.245       16.881      568.132      637.323      284.961        0.255        0.075       34.430       14.613        0.180      331.318       -0.744      861.382
02/05/2014  08:38:00       17.155      -12.032       47.444       28.766       34.777       32.213      827.481     1209.407     1037.673        0.288        0.154       20.954       24.975        1.421      331.486       -0.469      861.364
02/05/2014  08:39:00       57.978       45.587       52.719       32.645       27.950       24.070     1065.711      781.193      579.363        0.532        0.121       73.754       17.042        0.053      331.150       -1.021      861.347
02/05/2014  08:40:00        5.458       68.867       84.410       26.184       49.779       35.874      685.616     2477.963     1286.975        0.817        0.223       69.083       38.164        0.305      331.210       -0.921      861.307
02/05/2014  08:41:00        4.156       47.233       72.825       30.936       44.069       21.480      957.016     1942.073      461.383        0.546        0.168       47.416       23.668        0.249      331.279       -0.809      861.264
02/05/2014  08:42:00       17.708       18.946       44.517       26.802       25.136       21.204      718.344      631.835      449.593        0.223        0.090       25.933       17.652        0.463      331.580       -0.313      861.254
02/05/2014  08:43:00       49.193       31.004       31.609       36.014       30.812       23.149     1297.030      949.381      535.869        0.358        0.139       58.148       18.859        0.105      331.254       -0.849      861.270
02/05/2014  08:44:00       38.507      -25.045       34.326       19.148       46.676       22.671      366.632     2178.651      513.954        0.317        0.153       45.935       26.060        0.322      331.240       -0.872      861.288
02/05/2014  08:45:00       30.058       28.837       22.157       25.066       24.519       29.811      628.281      601.182      888.696        0.217        0.106       41.654       17.671        0.180      331.530       -0.394      861.295
02/05/2014  08:46:00        4.989       12.259       24.179       15.722       15.034       11.819      247.188      226.023      139.683        0.069        0.031       13.235        5.024        0.144      331.962        0.316      861.298
02/05/2014  08:47:00       10.276        2.192        4.953       24.242       35.864       21.056      587.683     1286.258      443.352        0.123        0.116       10.507        8.116        0.597      331.655       -0.188      861.279
02/05/2014  08:48:00       -1.219       33.187       40.132       23.365       23.478       21.617      545.942      551.223      467.283        0.214        0.078       33.210       16.651        0.251      331.839        0.113      861.259
02/05/2014  08:49:00       -7.477       55.088       80.272       25.545       38.959       22.927      652.557     1517.778      525.643        0.611        0.135       55.593       21.598        0.151      331.721       -0.081      861.253
02/05/2014  08:50:00       12.994       70.037       59.624       22.216       27.065       26.217      493.541      732.525      687.324        0.527        0.096       71.232       15.312        0.046      331.478       -0.481      861.250
02/05/2014  08:51:00       66.944       58.411       28.985       28.093       24.421       31.760      789.200      596.405     1008.724        0.556        0.120       88.844       18.482        0.043      331.412       -0.590      861.272
02/05/2014  08:52:00       27.823       19.166       22.506       37.608       37.301       22.014     1414.350     1391.358      484.599        0.247        0.165       33.785       17.421        0.266      331.809        0.064      861.287
02/05/2014  08:53:00       55.912       50.399        6.812       49.588       32.819       29.212     2458.941     1077.093      853.313        0.505        0.219       75.274       25.677        0.116      331.672       -0.160      861.300
02/05/2014  08:54:00       83.964       72.551        2.064       34.847       22.624       27.947     1214.299      511.838      781.032        0.741        0.125      110.966       14.638        0.017      331.512       -0.424      861.294
02/05/2014  08:55:00       53.828       61.533       26.102       41.411       36.164       37.467     1714.831     1307.857     1403.751        0.590        0.221       81.754       33.049        0.163      331.595       -0.289      861.282
02/05/2014  08:56:00       15.304       28.183       43.160       37.235       45.418       33.226     1386.410     2062.808     1103.988        0.372        0.228       32.070       27.984        0.761      332.023        0.417      861.262
02/05/2014  08:57:00       63.774       93.977       71.024       57.397       36.881       41.035     3294.360     1360.231     1683.901        1.214        0.317      113.573       43.564        0.147      331.608       -0.267      861.254
02/05/2014  08:58:00       73.239       83.622       50.610       39.762       22.989       32.390     1580.985      528.498     1049.129        0.904        0.158      111.160       20.596        0.034      331.473       -0.489      861.242
02/05/2014  08:59:00       39.232      112.958      115.906       46.041       39.563       26.571     2119.806     1565.192      706.040        1.606        0.220      119.577       25.993        0.047      331.511       -0.427      861.223
02/05/2014  09:00:00       83.299       66.972       67.247       50.953       60.760       50.447     2596.207     3691.722     2544.855        1.239        0.442      106.883       45.333        0.180      331.588       -0.300      861.228
02/05/2014  09:01:00       63.964       44.062       83.361       55.373       47.150       28.872     3066.214     2223.078      833.564        0.955        0.306       77.671       29.297        0.142      331.556       -0.354      861.250
02/05/2014  09:02:00       55.710       65.169       57.989       66.480       50.611       37.457     4419.613     2561.443     1403.016        0.955        0.419       85.736       34.926        0.166      331.717       -0.088      861.270
02/05/2014  09:03:00      106.125       60.180       12.304       34.428       44.021       38.622     1185.256     1937.862     1491.690        0.982        0.231      122.000       14.020        0.013      331.505       -0.435      861.280
02/05/2014  09:04:00       40.015       20.862       35.430       45.445       38.222       29.603     2065.239     1460.945      876.327        0.385        0.220       45.126       22.305        0.244      331.948        0.293      861.277
02/05/2014  09:05:00        8.553        8.779       48.589       25.958       29.883       30.048      673.835      893.001      902.882        0.249        0.123       12.257       19.115        2.432      332.247        0.785      861.262
02/05/2014  09:06:00       13.432      -44.702       35.776       37.484       59.292       27.663     1405.049     3515.557      765.238        0.457        0.284       46.677       26.581        0.324      332.112        0.561      861.235
02/05/2014  09:07:00       16.157      -18.564       42.588       26.042       42.943       27.076      678.197     1844.122      733.115        0.284        0.163       24.610       22.705        0.851      332.265        0.815      861.234
02/05/2014  09:08:00       85.425       64.164       60.713       60.372       37.155       42.572     3644.774     1380.484     1812.375        1.097        0.342      106.838       30.332        0.081      331.898        0.210      861.252
02/05/2014  09:09:00       85.319       70.530       34.189       36.310       33.054       36.128     1318.394     1092.565     1305.226        0.857        0.186      110.697       22.756        0.042      331.649       -0.199      861.283
02/05/2014  09:10:00       32.021       14.472       20.647       48.664       28.685       23.653     2368.137      822.843      559.454        0.271        0.188       35.140       14.183        0.163      332.203        0.713      861.307
02/05/2014  09:11:00        8.407        7.465       36.392       27.530       53.528       31.045      757.912     2865.296      963.762        0.302        0.229       11.243       21.112        3.526      332.386        1.015      861.295
02/05/2014  09:12:00       60.698      -96.677       -3.137       64.868       52.610       44.012     4207.794     2767.799     1937.095        1.098        0.446      114.152       39.838        0.122      331.957        0.306      861.259
02/05/2014  09:13:00       77.450      -67.120       -9.476       36.474       68.801       34.504     1330.321     4733.547     1190.530        0.892        0.363      102.487       39.360        0.147      331.829        0.098      861.241
02/05/2014  09:14:00        8.824       77.762       97.023       43.231       54.414       43.079     1868.913     2960.897     1855.834        1.111        0.334       78.261       39.464        0.254      331.922        0.249      861.233
02/05/2014  09:15:00       18.236       34.574       53.368       37.816       58.911       42.448     1430.057     3470.546     1801.858        0.554        0.335       39.088       46.990        1.445      331.905        0.221      861.254
02/05/2014  09:16:00       22.837       23.541       36.470       38.126       43.631       35.835     1453.594     1903.701     1284.155        0.352        0.232       32.798       27.422        0.699      332.255        0.800      861.273
02/05/2014  09:17:00        0.467      -37.033       28.303       20.158       38.249       36.572      406.341     1462.991     1337.495        0.269        0.160       37.036       24.653        0.443      332.210        0.724      861.285
02/05/2014  09:18:00      -53.885       21.614       -8.439       24.790       27.524       14.555      614.528      757.568      211.854        0.251        0.079       58.058       12.048        0.043      331.919        0.246      861.266
02/05/2014  09:19:00      -24.160        2.200       -1.016       31.252       21.977       20.590      976.659      482.996      423.938        0.124        0.094       24.260       13.451        0.307      332.109        0.558      861.245
02/05/2014  09:20:00      -39.001       17.981       20.119       36.107       33.952       35.596     1303.741     1152.742     1267.081        0.299        0.186       42.946       29.256        0.464      332.206        0.720      861.242
02/05/2014  09:21:00       -1.276       39.749       69.348       33.587       44.629       32.908     1128.118     1991.783     1082.912        0.530        0.210       39.769       25.452        0.410      332.323        0.911      861.243
02/05/2014  09:22:00      131.947       68.921       28.447       53.952       35.792       39.309     2910.802     1281.036     1545.170        1.435        0.287      148.862       16.467        0.012      331.905        0.221      861.245
02/05/2014  09:23:00      109.200       98.822       48.196       35.609       29.051       37.824     1267.993      843.964     1430.667        1.378        0.177      147.276       19.759        0.018      331.781        0.018      861.246
02/05/2014  09:24:00       53.268       52.461       69.472       34.158       43.886       21.105     1166.751     1926.006      445.409        0.698        0.177       74.764       14.255        0.036      332.063        0.482      861.254
02/05/2014  09:25:00       40.869       31.143       37.270       38.180       34.275       21.464     1457.687     1174.794      460.683        0.356        0.155       51.382       18.110        0.124      332.238        0.772      861.280
02/05/2014  09:26:00       79.797       88.293       87.033       70.035       51.783       33.733     4904.882     2681.455     1137.885        1.523        0.436      119.010       27.716        0.054      332.206        0.717      861.287
02/05/2014  09:27:00      136.100      105.416       50.835       27.880       19.483       24.709      777.271      379.581      610.556        1.699        0.088      172.150       11.032        0.004      331.688       -0.135      861.311
02/05/2014  09:28:00       58.036       77.307       37.806       35.772       31.895       46.758     1279.614     1017.300     2186.353        0.763        0.224       96.668       33.427        0.120      331.814        0.073      861.324
02/05/2014  09:29:00        5.744        2.562       54.963       26.482       73.144       36.306      701.311     5350.092     1318.130        0.521        0.368        6.289       37.039       34.681      332.534        1.258      861.323
02/05/2014  09:30:00       32.226       20.572       58.745       33.606       36.449       24.609     1129.370     1328.515      605.608        0.399        0.153       38.233       13.493        0.125      332.482        1.172      861.340
02/05/2014  09:31:00       52.588       21.277       14.660       32.969       25.078       34.591     1086.947      628.929     1196.529        0.317        0.146       56.730       21.504        0.144      332.153        0.631      861.354
02/05/2014  09:32:00       81.683       81.472       29.307       36.138       34.193       39.558     1305.972     1169.176     1564.847        0.910        0.202      115.368       12.590        0.012      331.903        0.218      861.345
02/05/2014  09:33:00      110.892      103.743       21.736       43.033       36.882       43.999     1851.844     1360.264     1935.888        1.434        0.257      151.855       26.239        0.030      331.998        0.374      861.341
02/05/2014  09:34:00      118.156       99.055       41.328       58.261       51.629       64.327     3394.350     2665.572     4137.951        1.784        0.510      154.184       53.050        0.118      332.167        0.653      861.347
02/05/2014  09:35:00       79.609       78.773       46.629       45.097       33.269       36.188     2033.784     1106.814     1309.547        0.958        0.223      111.995       25.561        0.052      332.443        1.109      861.369
02/05/2014  09:36:00       54.940       50.043       30.142       50.908       47.194       35.679     2591.594     2227.317     1272.997        0.626        0.305       74.315       21.214        0.081      332.187        0.687      861.380
02/05/2014  09:37:00       44.765       40.670       28.907       24.725       25.530       36.352      611.327      651.773     1321.496        0.354        0.129       60.481       21.103        0.122      332.210        0.725      861.386
02/05/2014  09:38:00       35.817       50.333       -2.197       46.621       32.147       21.232     2173.494     1033.401      450.781        0.374        0.183       61.776       16.831        0.074      332.447        1.116      861.392
02/05/2014  09:39:00       10.165       36.230       20.405       31.722       49.077       30.169     1006.266     2408.509      910.171        0.308        0.216       37.629       27.583        0.537      332.798        1.695      861.399
02/05/2014  09:40:00       13.456        8.362       47.211       31.883       30.292       25.177     1016.497      917.576      633.895        0.252        0.128       15.843       21.453        1.834      332.836        1.759      861.403
02/05/2014  09:41:00        9.080       -9.640       34.836       20.848       35.488       27.357      434.628     1259.392      748.397        0.192        0.122       13.243       24.178        3.333      332.942        1.932      861.395
02/05/2014  09:42:00       22.612       58.827       68.624       37.533       36.252       29.266     1408.763     1314.196      856.505        0.613        0.179       63.023       25.018        0.158      332.755        1.623      861.393
02/05/2014  09:43:00       33.724       72.102       92.888       61.717       48.295       54.115     3809.040     2332.438     2928.480        1.202        0.453       79.600       40.473        0.259      332.605        1.377      861.392
02/05/2014  09:44:00       48.873       77.745       88.480       53.874       63.927       44.935     2902.447     4086.630     2019.130        1.263        0.450       91.831       49.800        0.294      332.311        0.889      861.412
02/05/2014  09:45:00       20.935       71.970       71.192       39.014       50.395       49.864     1522.078     2539.629     2486.416        0.862        0.327       74.952       42.201        0.317      332.257        0.802      861.434
02/05/2014  09:46:00       73.347       75.980       47.207       72.694       46.544       50.102     5284.414     2166.325     2510.174        1.167        0.498      105.607       27.489        0.068      332.574        1.325      861.442
02/05/2014  09:47:00       11.310       29.810       38.268       35.037       39.169       51.367     1227.611     1534.249     2638.544        0.394        0.270       31.883       35.557        1.244      332.790        1.681      861.452
02/05/2014  09:48:00       52.889       74.568       48.849       73.941       53.499       50.151     5467.279     2862.160     2515.152        1.079        0.542       91.420       51.849        0.322      332.664        1.474      861.439
02/05/2014  09:49:00       79.483       68.841        7.842       39.214       42.892       26.234     1537.727     1839.686      688.216        0.759        0.203      105.150       25.332        0.058      332.253        0.796      861.431
02/05/2014  09:50:00       47.828       60.050       23.823       40.924       31.173       41.896     1674.748      971.781     1755.292        0.543        0.220       76.769       29.937        0.152      332.611        1.385      861.419
02/05/2014  09:51:00       18.644       66.229        3.321       32.871       34.360       23.621     1080.474     1180.603      557.940        0.378        0.141       68.804       12.568        0.033      332.521        1.239      861.419
02/05/2014  09:52:00       41.324       33.964       19.762       38.370       34.045       30.647     1472.259     1159.090      939.226        0.341        0.179       53.490       14.314        0.072      332.787        1.678      861.414
02/05/2014  09:53:00       16.574       20.886       49.072       42.064       43.751       43.808     1769.366     1914.118     1919.147        0.436        0.280       26.663       34.896        1.713      333.209        2.376      861.398
02/05/2014  09:54:00       30.478      104.636      108.543       49.657       51.968       35.345     2465.824     2700.633     1249.278        1.504        0.321      108.985       33.594        0.095      332.793        1.687      861.374
02/05/2014  09:55:00       23.612       15.477       64.624       46.981       52.391       28.970     2207.260     2744.823      839.248        0.538        0.290       28.232       25.041        0.787      332.925        1.904      861.372
02/05/2014  09:56:00       60.380       62.221       55.294       76.776       54.930       49.152     5894.610     3017.322     2415.874        1.095        0.566       86.702       52.104        0.361      332.947        1.942      861.363
02/05/2014  09:57:00       99.819       64.612       14.100       28.424       25.588       25.056      807.896      654.762      627.797        0.821        0.105      118.906       17.175        0.021      332.345        0.947      861.345
02/05/2014  09:58:00      121.591       93.202       15.906       37.170       30.060       30.384     1381.587      903.618      923.211        1.347        0.160      153.202       15.800        0.011      332.425        1.080      861.312
02/05/2014  09:59:00      117.294       97.147       29.010       36.907       38.269       33.748     1362.102     1464.518     1138.928        1.400        0.198      152.301       18.802        0.015      332.619        1.398      861.277
02/05/2014  10:00:00        8.788       47.929       73.715       43.495       54.052       35.485     1891.797     2921.566     1259.183        0.694        0.304       48.728       31.351        0.414      333.042        2.099      861.256
02/05/2014  10:01:00       40.129        1.557       51.517       39.875       65.985       44.259     1590.033     4354.044     1958.842        0.608        0.395       40.159       49.256        1.504      332.853        1.787      861.257
02/05/2014  10:02:00       13.248        8.529       50.322       37.481       56.640       29.050     1404.834     3208.119      843.890        0.412        0.273       15.756       29.885        3.598      333.122        2.231      861.242
02/05/2014  10:03:00       48.297      -16.761       -1.741       36.821       39.412       27.930     1355.821     1553.292      780.068        0.315        0.184       51.123       19.555        0.146      332.749        1.613      861.243
02/05/2014  10:04:00       36.120       37.543       39.415       46.722       48.304       28.777     2182.936     2333.251      828.122        0.481        0.267       52.097       27.744        0.284      333.125        2.236      861.243
02/05/2014  10:05:00       31.563       66.612       73.875       41.494       34.448       29.730     1721.712     1186.696      883.852        0.734        0.190       73.711       22.130        0.090      332.821        1.733      861.246
02/05/2014  10:06:00       49.130       70.120       65.707       45.057       31.900       31.327     2030.149     1017.638      981.368        0.784        0.201       85.619       25.093        0.086      332.628        1.415      861.248
02/05/2014  10:07:00       25.560       19.771       61.252       37.478       74.767       36.681     1404.637     5590.104     1345.489        0.657        0.417       32.314       45.775        2.007      332.895        1.855      861.257
02/05/2014  10:08:00      103.044       81.695       27.539       29.762       35.187       27.267      885.804     1238.145      743.476        1.046        0.143      131.499       10.753        0.007      332.567        1.315      861.255
02/05/2014  10:09:00       47.650      -22.564       13.542       41.997       44.128       32.969     1763.729     1947.262     1086.952        0.388        0.240       52.722       26.725        0.257      333.055        2.120      861.241
02/05/2014  10:10:00       20.137      -15.772       35.841       36.747       73.310       49.743     1350.368     5374.351     2474.364        0.557        0.460       25.578       54.500        4.540      333.080        2.162      861.218
02/05/2014  10:11:00       56.481       78.124       61.034       61.043       50.318       60.413     3726.202     2531.879     3649.750        1.146        0.495       96.403       45.562        0.223      332.960        1.962      861.198
02/05/2014  10:12:00       52.819      -29.908       32.845       55.646      104.980       52.059     3096.478    11020.783     2710.178        1.079        0.841       60.699       66.420        1.197      333.077        2.156      861.177
02/05/2014  10:13:00       61.181        0.805       50.058       67.098       91.303       44.462     4502.136     8336.289     1976.887        1.053        0.741       61.186       60.713        0.985      333.088        2.174      861.172
02/05/2014  10:14:00       49.955       40.993       65.825       38.153       43.869       35.969     1455.676     1924.452     1293.787        0.659        0.234       64.622       34.591        0.287      332.965        1.970      861.168
02/05/2014  10:15:00       64.064      -33.326       17.224       52.876      110.685       48.262     2795.916    12251.117     2329.267        1.144        0.869       72.214       64.114        0.788      332.851        1.782      861.165
02/05/2014  10:16:00       71.202       57.332       46.874       63.895       41.520       37.078     4082.548     1723.877     1374.745        0.887        0.359       91.415       38.768        0.180      333.358        2.619      861.163
02/05/2014  10:17:00       97.109       87.551        6.790       54.933       46.928       34.001     3017.681     2202.245     1156.087        1.176        0.319      130.750       18.264        0.020      333.005        2.038      861.163
02/05/2014  10:18:00       70.408       69.433        7.381       38.471       38.370       41.405     1479.988     1472.288     1714.374        0.725        0.233       98.885       16.730        0.029      333.305        2.533      861.175
02/05/2014  10:19:00      101.731       71.522       14.019       54.977       40.752       38.188     3022.458     1660.743     1458.293        1.090        0.307      124.357       25.993        0.044      333.513        2.877      861.192
02/05/2014  10:20:00       90.844       63.196        8.795       29.236       26.445       36.678      854.761      699.322     1345.265        0.761        0.145      110.663       15.567        0.020      332.988        2.009      861.216
02/05/2014  10:21:00       31.446       38.572       13.910       40.846       30.827       27.636     1668.403      950.319      763.730        0.303        0.169       49.766       23.601        0.225      332.940        1.930      861.236
02/05/2014  10:22:00       80.846       71.828       25.281       29.894       20.213       28.761      893.646      408.577      827.200        0.723        0.106      108.145       15.960        0.022      332.840        1.765      861.253
02/05/2014  10:23:00       76.816       50.980       10.489       37.447       21.323       22.589     1402.289      454.679      510.244        0.549        0.118       92.194       10.663        0.013      332.914        1.888      861.257
02/05/2014  10:24:00      -32.270       25.939       -8.108       19.525       21.921       22.738      381.223      480.547      517.018        0.158        0.069       41.403       14.192        0.118      333.150        2.276      861.254
02/05/2014  10:25:00      -34.116       14.108      -21.270       23.896       16.643       14.037      571.004      276.999      197.039        0.143        0.052       36.918       11.865        0.103      333.052        2.116      861.244
02/05/2014  10:26:00       -4.625      -18.910        1.814       16.668       26.290       15.751      277.817      691.187      248.105        0.080        0.061       19.467        7.603        0.153      333.576        2.981      861.254
02/05/2014  10:27:00      -16.747        0.613       22.857       25.455       23.024       22.342      647.970      530.088      499.176        0.124        0.084       16.758       18.577        1.229      333.738        3.252      861.243
02/05/2014  10:28:00      -25.159        4.277       34.809       32.420       33.153       28.827     1051.082     1099.109      830.995        0.242        0.149       25.520       24.113        0.893      333.679        3.152      861.255
02/05/2014  10:29:00      -79.232       16.503       -6.101       31.795       37.055       20.071     1010.951     1373.075      402.833        0.469        0.139       80.933       12.384        0.023      333.115        2.217      861.254
02/05/2014  10:30:00      -15.746        0.449       21.342       32.551       34.738       23.469     1059.588     1206.713      550.817        0.176        0.141       15.753       12.298        0.609      333.767        3.299      861.248
02/05/2014  10:31:00      -22.531       11.426       48.399       23.831       26.074       26.237      567.935      679.833      688.357        0.246        0.097       25.262       21.234        0.706      334.050        3.768      861.230
02/05/2014  10:32:00        8.084      -40.453        3.922       48.326       70.662       23.374     2335.442     4993.051      546.339        0.479        0.394       41.253       36.258        0.772      333.830        3.403      861.205
02/05/2014  10:33:00       31.387       24.377       69.956       70.333      105.428       67.365     4946.750    11115.092     4538.088        1.353        1.030       39.742       81.222        4.177      333.501        2.856      861.174
02/05/2014  10:34:00       31.407       97.780      103.801       59.471       53.930       39.456     3536.772     2908.439     1556.765        1.466        0.400      102.700       36.018        0.123      333.496        2.850      861.159
02/05/2014  10:35:00       43.020       84.186       99.747       47.885       52.279       34.939     2292.980     2733.077     1220.709        1.257        0.312       94.541       29.583        0.098      333.309        2.539      861.153
02/05/2014  10:36:00       -7.213       11.370       29.073       29.401       39.275       36.776      864.424     1542.561     1352.490        0.239        0.188       13.465       31.079        5.328      333.610        3.036      861.159
02/05/2014  10:37:00      -35.382      -78.740      -10.170       44.517       50.932       27.577     1981.742     2594.069      760.470        0.644        0.267       86.325       21.276        0.061      333.632        3.073      861.165
02/05/2014  10:38:00      -47.078     -108.870        0.827       43.291       70.836       34.071     1874.114     5017.772     1160.846        1.106        0.403      118.613       36.559        0.095      333.335        2.581      861.163
02/05/2014  10:39:00     -132.933      -60.315      -13.951       60.413       46.313       21.142     3649.677     2144.859      446.993        1.387        0.312      145.977       20.541        0.020      333.046        2.103      861.143
02/05/2014  10:40:00      -98.615      -57.403        7.396       65.652       35.619       32.075     4310.124     1268.700     1028.774        0.984        0.330      114.105       34.026        0.089      333.239        2.424      861.129
02/05/2014  10:41:00      -23.891       -9.841       14.110       57.118       27.288       27.109     3262.466      744.620      734.907        0.280        0.237       25.839       29.632        1.315      333.561        2.957      861.112
02/05/2014  10:42:00      -42.351      -25.959        5.851       41.159       36.788       19.922     1694.030     1353.352      396.880        0.297        0.172       49.673       13.853        0.078      333.562        2.959      861.091
02/05/2014  10:43:00      -36.260      -28.945        6.700       44.366       33.555       26.004     1968.344     1125.921      676.209        0.298        0.189       46.396       20.212        0.190      333.540        2.923      861.074
02/05/2014  10:44:00      -55.201      -47.177        7.341       46.349       29.253       20.400     2148.265      855.743      416.143        0.437        0.171       72.615       15.260        0.044      333.406        2.702      861.058
02/05/2014  10:45:00      -67.149      -61.776        0.283       26.099       21.155       14.420      681.148      447.551      207.941        0.483        0.067       91.243       11.398        0.016      333.158        2.290      861.060
02/05/2014  10:46:00      -43.718      -28.981       -2.639       29.685       18.182       13.441      881.183      330.586      180.660        0.208        0.070       52.452        8.133        0.024      333.337        2.585      861.064
02/05/2014  10:47:00      -20.694      -16.365       -2.702       20.231       13.550       11.823      409.307      183.589      139.775        0.072        0.037       26.383        9.239        0.123      333.524        2.895      861.058
02/05/2014  10:48:00      -31.065      -30.802        4.725       25.641       18.194       17.344      657.480      331.018      300.815        0.161        0.064       43.747       13.292        0.092      333.770        3.303      861.055
02/05/2014  10:49:00        1.114       -3.249       14.672       17.396       20.808       23.004      302.628      432.977      529.162        0.075        0.063        3.435       17.138       24.900      334.263        4.121      861.054
02/05/2014  10:50:00      -43.330       10.331       24.540       25.341       26.629       28.109      642.154      709.129      790.101        0.236        0.107       44.545       28.106        0.398      333.739        3.253      861.051
02/05/2014  10:51:00      -46.416       -5.163       -1.920       12.290       14.094       14.767      151.052      198.633      218.059        0.138        0.028       46.703       10.768        0.053      333.365        2.631      861.030
02/05/2014  10:52:00      -12.559       16.894       37.102       13.781       22.203       29.732      189.925      492.994      884.014        0.169        0.078       21.051       20.800        0.976      334.111        3.869      861.017
02/05/2014  10:53:00       -8.529       -2.190       16.353       24.911       36.902       23.173      620.541     1361.757      536.998        0.143        0.126        8.806       14.319        2.644      334.074        3.807      861.002
02/05/2014  10:54:00      -29.865      -28.985       20.408       41.172       30.190       20.291     1695.139      911.430      411.714        0.258        0.151       41.618       17.976        0.187      334.018        3.715      860.976
02/05/2014  10:55:00       -0.733       16.465       55.699       29.613       42.616       22.839      876.950     1816.145      521.641        0.329        0.161       16.481       22.939        1.937      334.558        4.611      860.965
02/05/2014  10:56:00       70.532      -64.691        1.836       50.948       71.231       38.504     2595.730     5073.798     1482.594        0.916        0.458       95.706       46.378        0.235      333.937        3.580      860.949
02/05/2014  10:57:00       12.569      -42.432       21.715       33.358       55.773       42.307     1112.785     3110.573     1789.854        0.422        0.301       44.254       17.138        0.150      334.016        3.710      860.945
02/05/2014  10:58:00       46.523      -49.228       20.574       51.243       63.557       49.731     2625.893     4039.437     2473.160        0.707        0.457       67.733       30.680        0.205      333.969        3.632      860.934
02/05/2014  10:59:00       40.306       59.199       65.434       71.958       76.080       51.126     5177.910     5788.177     2613.859        1.149        0.679       71.618       56.804        0.629      334.171        3.968      860.927
02/05/2014  11:00:00       97.927       92.405       96.274       74.349       61.751       55.335     5527.846     3813.213     3061.967        1.990        0.620      134.642       51.035        0.144      333.593        3.010      860.931
02/05/2014  11:01:00      136.951      113.807       39.639       46.319       37.390       49.757     2145.410     1397.976     2475.771        1.965        0.301      178.066       33.330        0.035      333.405        2.696      860.920
02/05/2014  11:02:00      102.464       75.169       34.313       33.714       31.297       48.991     1136.610      979.483     2400.111        1.092        0.226      127.080       19.470        0.023      333.591        3.005      860.915
02/05/2014  11:03:00       73.872       73.865       16.061       57.946       48.131       37.024     3357.686     2316.607     1370.806        0.911        0.352      104.466       23.622        0.051      333.787        3.330      860.891
02/05/2014  11:04:00       63.972      105.606       93.299       74.453       51.231       49.134     5543.224     2624.582     2414.198        1.726        0.529      123.471       43.424        0.124      334.117        3.877      860.877
02/05/2014  11:05:00      113.038      106.619       93.278       77.665       57.374       57.450     6031.920     3291.801     3300.479        2.273        0.631      155.387       40.413        0.068      334.058        3.779      860.857
02/05/2014  11:06:00       69.550      149.227      142.036       90.261       56.019       48.651     8147.120     3138.080     2366.950        3.046        0.683      164.639       46.598        0.080      333.855        3.439      860.839
02/05/2014  11:07:00       75.826       77.963       18.942       38.665       35.593       29.869     1494.973     1266.890      892.167        0.792        0.183      108.756       18.081        0.028      333.644        3.095      860.831
02/05/2014  11:08:00       99.149       50.379       12.907       73.655       47.497       46.144     5425.093     2255.933     2129.268        1.117        0.491      111.214       15.689        0.020      333.709        3.201      860.813
02/05/2014  11:09:00       66.736       73.828       -2.989       51.633       47.591       41.397     2666.017     2264.908     1713.740        0.828        0.332       99.520       34.917        0.123      333.801        3.355      860.793
02/05/2014  11:10:00       99.088       54.942        9.930       41.135       39.624       30.422     1692.103     1570.093      925.469        0.856        0.209      113.301       16.608        0.021      333.888        3.497      860.772
02/05/2014  11:11:00      108.853       65.494       11.012       52.243       47.219       31.625     2729.344     2229.638     1000.158        1.111        0.298      127.038       15.097        0.014      333.878        3.482      860.747
02/05/2014  11:12:00       94.751       74.028        3.477       36.660       30.366       31.083     1343.952      922.082      966.127        0.885        0.162      120.241       19.548        0.026      333.855        3.444      860.728
02/05/2014  11:13:00       97.792      142.580      125.890       77.992       68.149       72.764     6082.793     4644.315     5294.654        3.088        0.801      172.894       58.198        0.113      333.958        3.612      860.699
02/05/2014  11:14:00       82.414       43.523       56.926       50.253       71.490       44.157     2525.361     5110.761     1949.823        1.075        0.479       93.201       40.914        0.193      333.906        3.527      860.712
02/05/2014  11:15:00      126.411       55.625       45.232       49.790       53.973       43.270     2479.020     2913.102     1872.263        1.419        0.363      138.108       25.105        0.033      333.606        3.030      860.712
02/05/2014  11:16:00       91.806       24.529       50.521       59.929       75.101       49.760     3591.486     5640.141     2476.051        1.164        0.585       95.027       50.827        0.286      333.732        3.240      860.704
02/05/2014  11:17:00      132.656       99.213       59.748       46.852       37.542       49.775     2195.097     1409.386     2477.584        1.855        0.304      165.653       23.305        0.020      333.677        3.147      860.681
02/05/2014  11:18:00       58.934       70.693       31.330       36.397       42.650       41.626     1324.725     1818.985     1732.700        0.716        0.244       92.037       22.830        0.062      334.079        3.815      860.652
02/05/2014  11:19:00       50.382       67.022       66.177       45.325       43.392       36.015     2054.356     1882.872     1297.063        0.832        0.262       83.847       16.980        0.041      334.377        4.309      860.635
02/05/2014  11:20:00       56.675      -24.782       -7.686       41.467       67.500       38.612     1719.484     4556.302     1490.907        0.582        0.388       61.856       29.479        0.227      334.097        3.845      860.628
02/05/2014  11:21:00       34.666       48.891       39.627       21.107       23.211       21.711      445.509      538.767      471.349        0.331        0.073       59.933       14.681        0.060      334.090        3.834      860.609
02/05/2014  11:22:00       26.673       17.273       31.336       37.677       56.012       29.538     1419.539     3137.333      872.511        0.371        0.271       31.777       32.645        1.055      334.358        4.277      860.593
02/05/2014  11:23:00       21.805      -29.263       39.011       51.908       70.955       48.327     2694.411     5034.679     2335.491        0.646        0.503       36.494       45.059        1.525      334.665        4.788      860.582
02/05/2014  11:24:00       28.034       22.170       56.046       69.037       55.255       51.726     4766.110     3053.159     2675.542        0.745        0.525       35.741       43.299        1.468      334.613        4.700      860.577
02/05/2014  11:25:00       51.357      -27.621       46.249       56.263       93.185       75.443     3165.554     8683.417     5691.698        1.154        0.877       58.314       66.634        1.306      334.447        4.424      860.568
02/05/2014  11:26:00       79.709      -18.086       61.092       80.013      125.920       91.315     6402.071    15855.950     8338.380        2.050        1.530       81.735      104.977        1.650      334.235        4.072      860.536
02/05/2014  11:27:00       55.886      114.696      132.671       66.782       62.725       39.121     4459.780     3934.405     1530.485        2.190        0.496      127.587       27.127        0.045      334.142        3.918      860.496
02/05/2014  11:28:00       96.667     -127.701       -0.334       88.159       85.221       51.874     7771.963     7262.629     2690.945        2.169        0.886      160.163       55.802        0.121      334.076        3.808      860.460
02/05/2014  11:29:00       62.918     -102.901       17.327       63.579       87.855       53.680     4042.314     7718.501     2881.574        1.474        0.732      120.612       58.134        0.232      334.309        4.195      860.428
02/05/2014  11:30:00       36.612       28.978       70.330       56.245       94.323       56.855     3163.460     8896.788     3232.495        1.121        0.765       46.692       55.208        1.398      334.469        4.462      860.411
02/05/2014  11:31:00       64.607      -69.394       10.737       50.345      110.933       40.316     2534.580    12306.162     1625.411        1.278        0.823       94.813       45.793        0.233      334.301        4.182      860.404
02/05/2014  11:32:00       50.961       10.291       39.286       53.243       42.289       43.774     2834.814     1788.401     1916.185        0.539        0.327       51.990       39.200        0.569      334.400        4.348      860.379
02/05/2014  11:33:00       49.638      -24.075       11.334       47.246       46.308       28.529     2232.212     2144.429      813.890        0.418        0.260       55.168       30.447        0.305      334.283        4.154      860.345
02/05/2014  11:34:00       32.192        8.335       22.933       64.379       35.744       34.514     4144.689     1277.661     1191.205        0.412        0.331       33.253       32.967        0.983      334.603        4.686      860.327
02/05/2014  11:35:00       -3.760       -5.263       21.162       27.081       37.607       31.521      733.394     1414.252      993.572        0.181        0.157        6.468       25.397       15.418      334.689        4.829      860.297
02/05/2014  11:36:00       -8.464       12.902       42.611       20.448       30.016       30.048      418.102      900.981      902.874        0.214        0.111       15.431       21.676        1.973      334.896        5.172      860.265
02/05/2014  11:37:00      -10.055       28.577       77.283       35.041       43.116       34.050     1227.850     1859.029     1159.393        0.557        0.212       30.294       32.090        1.122      334.979        5.310      860.251
02/05/2014  11:38:00        6.085       29.700       63.270       37.958       44.424       48.484     1440.810     1973.486     2350.695        0.534        0.288       30.317       39.689        1.714      335.011        5.362      860.236
02/05/2014  11:39:00       18.000       66.368       72.611       59.738       63.372       66.834     3568.594     4015.953     4466.740        1.102        0.603       68.766       44.920        0.427      334.756        4.937      860.218
02/05/2014  11:40:00       33.228       55.688       73.352       75.148       61.354       53.560     5647.291     3764.321     2868.703        1.093        0.614       64.848       47.090        0.527      334.552        4.599      860.206
02/05/2014  11:41:00       86.215       82.067       -0.099       46.457       39.962       41.701     2158.246     1596.993     1738.965        0.983        0.275      119.030        5.750        0.002      334.484        4.488      860.208
02/05/2014  11:42:00       21.969      102.126      100.971       62.152       70.305       67.209     3862.855     4942.754     4517.017        1.721        0.666      104.462       54.703        0.274      334.541        4.579      860.207
02/05/2014  11:43:00       98.442      123.142       97.342       68.056       61.772       63.192     4631.574     3815.734     3993.268        2.338        0.622      157.654       59.797        0.144      334.262        4.115      860.201
02/05/2014  11:44:00       38.038       63.244       74.758       56.789       32.705       35.791     3224.953     1069.635     1280.960        0.830        0.279       73.801       38.455        0.272      334.588        4.659      860.204
02/05/2014  11:45:00        8.873       68.111       78.785       70.794       42.670       50.909     5011.746     1820.707     2591.759        1.017        0.471       68.686       46.046        0.449      334.804        5.017      860.183
02/05/2014  11:46:00       70.836       24.184       31.829       36.560       50.215       34.000     1336.631     2521.524     1155.980        0.581        0.251       74.850       12.609        0.028      334.172        3.968      860.163
02/05/2014  11:47:00       36.544      -11.528       53.044       44.454       44.994       41.384     1976.144     2024.501     1712.608        0.500        0.286       38.319       31.115        0.659      334.679        4.811      860.118
02/05/2014  11:48:00       71.846       51.862       59.673       47.235       45.928       40.422     2231.101     2109.398     1633.972        0.869        0.299       88.609       24.648        0.077      334.517        4.542      860.085
02/05/2014  11:49:00       34.149       21.029        2.049       34.044       39.411       32.676     1159.018     1553.237     1067.716        0.270        0.189       40.104       24.488        0.373      334.301        4.184      860.068
02/05/2014  11:50:00      -15.382       -3.787        3.402       31.690       27.602       22.282     1004.257      761.877      496.506        0.126        0.113       15.841       24.491        2.390      334.488        4.495      860.031
02/05/2014  11:51:00       90.665       71.101       21.334       50.996       41.568       44.724     2600.617     1727.903     2000.269        1.003        0.316      115.219       18.932        0.027      334.723        4.883      860.011
02/05/2014  11:52:00       58.501       65.071       40.140       52.602       42.221       35.917     2766.919     1782.592     1290.032        0.755        0.292       87.502       19.507        0.050      335.019        5.376      859.991
02/05/2014  11:53:00       48.573       49.240       27.817       56.462       43.697       38.038     3188.008     1909.397     1446.899        0.605        0.327       69.166       23.712        0.118      335.046        5.421      859.959
02/05/2014  11:54:00       83.180       88.039       21.733       61.747       36.614       39.406     3812.663     1340.558     1552.805        1.092        0.335      121.119       22.301        0.034      335.048        5.423      859.922
02/05/2014  11:55:00       96.412       88.308        8.807       69.939       44.995       41.013     4891.407     2024.583     1682.071        1.288        0.430      130.743       31.725        0.059      334.632        4.732      859.906
02/05/2014  11:56:00       94.266       35.037       12.798       69.959       34.700       34.939     4894.330     1204.108     1220.723        0.880        0.366      100.566       23.271        0.054      334.783        4.981      859.906
02/05/2014  11:57:00        7.947        2.249       42.257       36.861       65.987       41.966     1358.708     4354.248     1761.162        0.466        0.374        8.259       47.076       32.488      335.159        5.608      859.890
02/05/2014  11:58:00       29.028       40.986       77.813       44.630       47.777       44.901     1991.813     2282.647     2016.144        0.743        0.315       50.224       35.566        0.501      335.126        5.554      859.875
02/05/2014  11:59:00       78.134      -12.875       37.377       58.263       78.927       51.738     3394.552     6229.491     2676.864        0.998        0.615       79.188       53.038        0.449      334.897        5.173      859.873
02/05/2014  12:00:00      101.985       64.934       50.820       62.364       39.934       38.007     3889.252     1594.702     1444.569        1.206        0.346      120.902       32.829        0.074      334.738        4.908      859.848
02/05/2014  12:01:00       68.345       86.213       77.984       63.464       63.445       49.009     4027.682     4025.298     2401.855        1.432        0.523      110.016       35.423        0.104      334.975        5.303      859.836
02/05/2014  12:02:00       16.407        4.525       52.329       48.926       90.979       61.210     2393.716     8277.149     3746.673        0.872        0.721       17.020       64.760       14.478      335.044        5.418      859.829
02/05/2014  12:03:00       33.826       19.340       57.215       47.688       80.475       53.956     2274.142     6476.292     2911.238        0.822        0.583       38.965       59.191        2.308      334.806        5.021      859.821
02/05/2014  12:04:00       92.958     -158.751      -22.116       57.537       38.351       30.521     3310.478     1470.791      931.528        2.002        0.286      183.964       22.504        0.015      334.616        4.704      859.828
02/05/2014  12:05:00       31.584      -40.139       28.499       42.584       64.173       41.064     1813.400     4118.152     1686.282        0.552        0.381       51.076       44.176        0.748      335.091        5.495      859.831
02/05/2014  12:06:00       28.858      -47.169       18.326       54.166       70.849       39.832     2933.993     5019.640     1586.560        0.647        0.477       55.296       34.797        0.396      335.243        5.747      859.821
02/05/2014  12:07:00      124.248     -143.219      -29.691       66.456       64.319       32.234     4416.414     4136.930     1039.052        2.321        0.480      189.602       23.836        0.016      334.596        4.671      859.808
02/05/2014  12:08:00      115.439     -161.929       -3.587       68.780       96.034       57.093     4730.746     9222.440     3259.614        2.838        0.861      198.865       50.653        0.065      334.696        4.836      859.761
02/05/2014  12:09:00       48.950        1.373       68.973       79.544      100.681       63.238     6327.262    10136.596     3998.983        1.381        1.023       48.969       73.398        2.247      335.137        5.571      859.753
02/05/2014  12:10:00       77.841      -81.414       17.625       75.002       93.627       77.760     5625.274     8765.928     6046.590        1.671        1.022      112.639       70.609        0.393      334.899        5.176      859.771
02/05/2014  12:11:00      158.205      -79.936       16.031       95.194      132.876       71.229     9061.934    17656.164     5073.622        3.173        1.590      177.253       96.216        0.295      334.553        4.598      859.789
02/05/2014  12:12:00      103.332       59.468       36.998       61.859       62.992       36.721     3826.505     3968.004     1348.457        1.236        0.457      119.222       18.462        0.024      334.700        4.845      859.787
02/05/2014  12:13:00       65.733       57.455       59.498       58.696       36.706       41.805     3445.270     1347.336     1747.664        0.885        0.327       87.303       26.948        0.095      334.967        5.288      859.781
02/05/2014  12:14:00       84.295      -58.282       39.894       83.126       98.449       57.880     6909.940     9692.135     3350.116        1.602        0.998      102.481       62.700        0.374      334.962        5.279      859.747
02/05/2014  12:15:00       44.221       47.978       76.728       50.987       36.300       32.730     2599.692     1317.707     1071.265        0.757        0.249       65.249        7.625        0.014      335.222        5.711      859.729
02/05/2014  12:16:00       45.025       73.264       69.978       69.931       61.966       60.211     4890.387     3839.816     3625.334        1.232        0.618       85.993       53.976        0.394      334.913        5.199      859.720
02/05/2014  12:17:00       78.425       87.143       53.301       40.629       39.717       42.713     1650.677     1577.430     1824.385        1.082        0.253      117.237       31.233        0.071      334.711        4.863      859.702
02/05/2014  12:18:00       85.925       68.646       35.748       45.268       39.555       40.317     2049.229     1564.626     1625.427        0.931        0.262      109.979       24.237        0.049      334.968        5.291      859.678
02/05/2014  12:19:00       62.493       32.467       15.246       54.690       41.104       33.971     2990.958     1689.501     1153.997        0.551        0.292       70.424       18.031        0.066      334.927        5.223      859.659
02/05/2014  12:20:00        7.714       17.599       44.834       29.352       37.429       30.221      861.526     1400.894      913.331        0.278        0.159       19.215       27.011        1.976      335.712        6.526      859.642
02/05/2014  12:21:00       45.207        6.422       40.174       51.023       54.656       32.838     2603.373     2987.289     1078.322        0.518        0.333       45.661       37.937        0.690      335.479        6.141      859.617
02/05/2014  12:22:00       11.419       46.699       49.149       74.259       63.712       48.535     5514.451     4059.186     2355.677        0.833        0.596       48.075       44.183        0.845      335.370        5.960      859.574
02/05/2014  12:23:00      -32.662       10.287       35.556       38.662       47.789       39.687     1494.752     2283.772     1575.030        0.389        0.268       34.243       29.785        0.757      335.526        6.219      859.544
02/05/2014  12:24:00      -55.055     -110.069        5.820       42.357       57.663       32.188     1794.109     3325.023     1036.089        1.067        0.308      123.070       14.817        0.014      334.827        5.057      859.545
02/05/2014  12:25:00       -6.329       43.822       43.737       33.616       49.387       38.657     1130.038     2439.097     1494.377        0.447        0.253       44.277       27.550        0.387      335.429        6.056      859.545
02/05/2014  12:26:00       24.233       26.170       66.393       57.988       83.400       44.500     3362.602     6955.597     1980.260        0.899        0.615       35.667       40.098        1.264      335.260        5.775      859.533
02/05/2014  12:27:00       29.826       43.455       74.051       49.124       34.417       28.876     2413.140     1184.553      833.805        0.635        0.222       52.706        5.745        0.012      335.440        6.075      859.503
02/05/2014  12:28:00      119.186     -108.854        0.294       66.978      138.912       61.124     4486.076    19296.598     3736.139        2.678        1.376      161.414       87.303        0.293      334.886        5.150      859.487
02/05/2014  12:29:00       66.555      -19.541       42.388       76.558      140.318       86.221     5861.108    19689.052     7434.058        1.979        1.649       69.364      103.967        2.247      335.023        5.381      859.471
02/05/2014  12:30:00       52.506       82.763      106.999       56.853       53.424       46.819     3232.215     2854.087     2191.983        1.467        0.414       98.014       27.635        0.079      334.986        5.321      859.460
02/05/2014  12:31:00       68.183       67.533       85.374       86.853       64.627       51.489     7543.361     4176.714     2651.125        1.543        0.719       95.967       53.356        0.309      335.184        5.648      859.433
02/05/2014  12:32:00       49.187       57.415       60.767       68.701       67.385       62.546     4719.895     4540.726     3912.057        1.129        0.659       75.604       48.654        0.414      334.939        5.241      859.429
02/05/2014  12:33:00       29.577      -77.663        6.791       47.489       78.198       42.736     2255.249     6114.991     1826.338        0.857        0.510       83.104       45.504        0.300      335.461        6.112      859.408
02/05/2014  12:34:00      120.127     -146.038      -15.798       65.993       83.721       46.655     4355.134     7009.171     2176.719        2.477        0.677      189.097       55.480        0.086      334.869        5.123      859.378
02/05/2014  12:35:00       87.684     -165.543      -33.992       66.556       55.556       32.827     4429.643     3086.459     1077.601        2.242        0.430      187.331       14.243        0.006      335.060        5.442      859.354
02/05/2014  12:36:00       12.959       28.056       68.652       43.791       52.393       40.145     1917.653     2745.007     1611.654        0.597        0.314       30.904       43.135        1.948      335.557        6.270      859.359
02/05/2014  12:37:00       70.015       57.614       49.313       74.762       53.394       57.107     5589.384     2850.873     3261.154        1.118        0.585       90.672       55.232        0.371      335.314        5.865      859.366
02/05/2014  12:38:00       19.831       57.154       74.814       43.194       51.744       48.832     1865.714     2677.421     2384.561        0.809        0.346       60.496       40.364        0.445      335.734        6.565      859.374
02/05/2014  12:39:00      104.948      107.738      122.859       92.244      101.101       70.537     8508.982    10221.440     4975.515        3.071        1.185      150.404       80.337        0.285      335.206        5.684      859.360
02/05/2014  12:40:00       94.282      131.486      138.301       96.210       79.463       77.160     9256.341     6314.320     5953.698        3.341        1.076      161.795       76.475        0.223      335.079        5.473      859.343
02/05/2014  12:41:00      134.794      104.775       70.572       72.697       60.795       50.075     5284.910     3695.999     2507.463        2.281        0.574      170.726       46.238        0.073      334.986        5.319      859.336
02/05/2014  12:42:00       77.068       90.617       92.332       90.801       60.965       70.867     8244.816     3716.738     5022.184        1.983        0.849      118.958       54.830        0.212      335.181        5.643      859.313
02/05/2014  12:43:00      101.221      122.454      114.333       69.942       75.388       62.428     4891.913     5683.361     3897.200        2.639        0.724      158.873       55.474        0.122      335.019        5.373      859.301
02/05/2014  12:44:00       42.688       86.828       73.022       66.717       78.700       53.481     4451.152     6193.765     2860.248        1.410        0.675       96.754       50.381        0.271      335.166        5.619      859.272
02/05/2014  12:45:00      128.466       94.710       48.536       52.425       38.750       50.784     2748.431     1501.572     2579.020        1.733        0.341      159.604       34.092        0.046      334.989        5.325      859.223
02/05/2014  12:46:00       49.167       -5.661       31.864       56.886       52.727       37.312     3236.053     2780.130     1392.211        0.544        0.370       49.492       29.466        0.354      335.259        5.773      859.190
02/05/2014  12:47:00       11.818       68.724       88.762       38.205       39.235       24.960     1459.634     1539.349      622.982        0.818        0.181       69.732       22.043        0.100      335.470        6.126      859.179
02/05/2014  12:48:00       53.112       37.657       62.853       53.231       79.064       45.173     2833.499     6251.076     2040.615        0.966        0.556       65.107       52.449        0.649      335.150        5.592      859.168
02/05/2014  12:49:00       51.981       39.017       30.948       40.402       33.683       41.836     1632.291     1134.574     1750.244        0.485        0.226       64.995       17.433        0.072      335.257        5.772      859.129
02/05/2014  12:50:00      -42.294       77.339      -19.167       30.302       21.560       25.900      918.210      464.840      670.792        0.510        0.103       88.148       21.309        0.058      335.093        5.497      859.076
02/05/2014  12:51:00       44.013       52.039       15.182       35.145       43.941       38.440     1235.139     1930.795     1477.646        0.476        0.232       68.156       33.736        0.245      335.617        6.371      859.047
02/05/2014  12:52:00       29.743       40.412       16.421       51.145       57.462       33.073     2615.839     3301.845     1093.843        0.490        0.351       50.177       29.620        0.348      335.654        6.431      859.033
02/05/2014  12:53:00      140.577       95.831       84.378      102.126       93.353       76.686    10429.651     8714.859     5880.743        3.054        1.251      170.134       68.937        0.164      335.351        5.925      858.997
02/05/2014  12:54:00       56.361      153.631      140.307       80.252       75.233       74.583     6440.440     5659.965     5562.569        3.206        0.883      163.643       73.390        0.201      335.255        5.765      858.982
02/05/2014  12:55:00       81.950       61.492       52.409       49.063       67.432       47.881     2407.188     4547.071     2292.577        1.124        0.462      102.456       50.644        0.244      335.105        5.518      858.988
02/05/2014  12:56:00       89.459       83.287       12.754       62.035       45.760       43.044     3848.358     2093.972     1852.777        1.145        0.390      122.227       32.656        0.071      335.194        5.667      858.951
02/05/2014  12:57:00       -6.899        5.192        8.573       37.672       15.722       20.425     1419.180      247.189      417.164        0.112        0.104        8.634        8.016        0.862      335.622        6.379      858.918
02/05/2014  12:58:00       46.490       64.539       73.933       67.912       73.855       57.916     4612.094     5454.558     3354.251        1.260        0.671       79.540       36.425        0.210      335.729        6.557      858.880
02/05/2014  12:59:00       18.076       61.294       68.747       48.852       41.217       53.005     2386.551     1698.868     2809.516        0.785        0.345       63.903       42.835        0.449      335.773        6.631      858.864
02/05/2014  13:00:00       65.060       66.233       49.773       56.211       36.281       43.339     3159.665     1316.298     1878.261        0.872        0.318       92.842       37.775        0.166      335.324        5.881      858.843
02/05/2014  13:01:00       83.283       52.762       55.146       60.032       48.508       43.613     3603.808     2353.007     1902.131        1.031        0.393       98.589       30.054        0.093      335.535        6.233      858.804
02/05/2014  13:02:00      129.671       74.762       25.865       67.707       49.445       41.223     4584.180     2444.817     1699.356        1.590        0.436      149.679       28.990        0.038      335.631        6.394      858.767
02/05/2014  13:03:00      120.991       95.152       10.719       79.226       53.908       47.445     6276.828     2906.095     2251.007        1.762        0.572      153.924       12.023        0.006      335.612        6.360      858.754
02/05/2014  13:04:00      131.485      114.080       -0.129       74.301       47.953       44.121     5520.686     2299.512     1946.650        2.003        0.488      174.076       22.647        0.017      335.362        5.943      858.738
02/05/2014  13:05:00       78.037       67.630        3.292       48.225       26.141       30.111     2325.609      683.369      906.652        0.729        0.196      103.265       17.492        0.029      335.327        5.886      858.731
02/05/2014  13:06:00       76.025       52.716       13.610       88.225       52.809       44.794     7783.669     2788.792     2006.489        1.066        0.629       92.514       31.383        0.115      335.558        6.272      858.698
02/05/2014  13:07:00      105.285      103.051       62.801       55.308       54.894       56.586     3058.954     3013.385     3201.973        1.746        0.464      147.324       36.554        0.062      335.719        6.539      858.657
02/05/2014  13:08:00      167.173      141.583       74.005       77.323       58.226       60.549     5978.792     3390.300     3666.147        3.325        0.652      219.072       45.668        0.043      335.377        5.966      858.623
02/05/2014  13:09:00      122.942       97.528       62.156       77.950       45.703       60.604     6076.176     2088.735     3672.855        2.016        0.592      156.928       53.743        0.117      335.642        6.411      858.589
02/05/2014  13:10:00       81.593       51.904       15.981       51.639       45.174       33.106     2666.576     2040.700     1096.039        0.770        0.290       96.703       22.516        0.054      335.596        6.336      858.576
02/05/2014  13:11:00       70.275      -30.578       22.744       79.895       59.425       37.227     6383.283     3531.340     1385.828        0.884        0.565       76.639       45.094        0.346      335.711        6.527      858.577
02/05/2014  13:12:00       74.582      -62.744       23.984       54.716       93.340       51.245     2993.820     8712.327     2626.078        1.220        0.717       97.464       54.724        0.315      335.873        6.797      858.540
02/05/2014  13:13:00       99.148      -65.536       51.594       77.116      147.333       68.364     5946.881    21707.002     4673.601        2.455        1.616      118.850       78.572        0.437      335.773        6.628      858.510
02/05/2014  13:14:00       21.826       78.516       96.181       47.060       67.511       46.223     2214.679     4557.795     2136.566        1.240        0.445       81.493       45.027        0.305      335.782        6.644      858.519
02/05/2014  13:15:00       74.733       72.476       91.531       92.379       70.671       60.463     8533.824     4994.395     3655.782        1.820        0.859      104.105       59.733        0.329      335.651        6.426      858.504
02/05/2014  13:16:00       83.192       60.297       19.776       40.867       35.119       33.853     1670.123     1233.326     1146.000        0.750        0.202      102.745       18.594        0.033      335.683        6.480      858.494
02/05/2014  13:17:00       86.632       53.509        9.626       48.552       44.088       31.852     2357.335     1943.744     1014.568        0.789        0.266      101.825       15.585        0.023      335.810        6.691      858.471
02/05/2014  13:18:00      147.512      113.716       58.865       72.558       51.366       60.058     5264.717     2638.495     3607.001        2.483        0.576      186.255       43.883        0.056      335.593        6.326      858.447
02/05/2014  13:19:00      102.673     -145.463      -29.358       96.450      131.593       47.827     9302.554    17316.761     2287.445        3.073        1.445      178.048       67.489        0.144      335.744        6.577      858.428
02/05/2014  13:20:00       76.208      -84.945       27.940       77.500      137.223       67.355     6006.309    18830.015     4536.694        2.158        1.469      114.120       90.007        0.622      335.895        6.832      858.416
02/05/2014  13:21:00       64.441      -47.763       31.647       67.882      106.301       61.140     4607.974    11299.943     3738.106        1.354        0.982       80.212       62.381        0.605      336.163        7.279      858.395
02/05/2014  13:22:00       51.548      -36.355       39.235       59.739       76.761       66.672     3568.730     5892.187     4445.103        0.971        0.695       63.078       54.509        0.747      336.054        7.097      858.382
02/05/2014  13:23:00       42.224       14.594       58.661       60.921       92.737       58.570     3711.331     8600.136     3430.422        1.059        0.787       44.675       55.157        1.524      336.240        7.408      858.349
02/05/2014  13:24:00       72.288      -76.721       38.986       72.441      109.439       58.112     5247.626    11976.866     3377.022        1.661        1.030      105.412       63.411        0.362      336.152        7.261      858.303
02/05/2014  13:25:00       66.541      -80.483       10.441       58.684       59.634       44.894     3443.822     3556.243     2015.447        1.001        0.451      104.428       41.772        0.160      336.273        7.464      858.311
02/05/2014  13:26:00      118.003     -155.713      -22.432       45.163       59.143       29.230     2039.715     3497.892      854.405        2.253        0.320      195.374       28.871        0.022      335.897        6.836      858.339
02/05/2014  13:27:00       44.215      -91.519       -8.549       68.938       67.229       30.193     4752.469     4519.782      911.607        1.029        0.509      101.640       22.222        0.048      336.329        7.557      858.322
02/05/2014  13:28:00       14.563      -89.751       -6.422       61.792       56.939       31.322     3818.292     3242.017      981.070        0.817        0.402       90.924       36.232        0.159      336.382        7.646      858.320
02/05/2014  13:29:00       23.981        1.122        2.856       40.072       49.224       36.435     1605.736     2423.008     1327.528        0.297        0.268       24.008       30.920        1.659      336.141        7.244      858.329
02/05/2014  13:30:00       33.935       36.384       41.740       56.583       44.162       30.356     3201.613     1950.312      921.465        0.514        0.304       49.753       35.340        0.505      336.411        7.696      858.332
02/05/2014  13:31:00       79.656       81.777       60.029       46.003       54.905       52.700     2116.255     3014.538     2777.341        1.227        0.395      114.160       37.648        0.109      335.863        6.781      858.341
02/05/2014  13:32:00       99.031      141.321      112.779       68.523       55.057       64.760     4695.339     3031.282     4193.877        2.721        0.596      172.565       51.386        0.089      335.706        6.517      858.336
02/05/2014  13:33:00       95.763       87.771       59.164       36.035       41.269       52.319     1298.494     1703.132     2737.322        1.306        0.287      129.901       34.452        0.070      335.785        6.650      858.337
02/05/2014  13:34:00       23.235       35.098      -12.119       17.288       22.505       11.555      298.873      506.453      133.514        0.143        0.047       42.092       10.438        0.061      335.707        6.521      858.332
02/05/2014  13:35:00       69.131      -24.803       -1.816       43.290       39.625       31.431     1873.986     1570.177      987.894        0.491        0.222       73.446       27.967        0.145      336.055        7.100      858.304
02/05/2014  13:36:00       24.527       12.193      -12.774       33.450       42.589       13.598     1118.930     1813.783      184.919        0.202        0.156       27.391       10.942        0.160      336.379        7.640      858.270
02/05/2014  13:37:00       76.989       68.018       54.012       56.620       50.148       42.569     3205.781     2514.777     1812.126        1.050        0.377      102.732       34.834        0.115      336.205        7.351      858.226
02/05/2014  13:38:00       37.254       61.078       62.708       63.088       79.436       48.559     3980.043     6310.093     2357.979        1.085        0.632       71.543       49.092        0.471      336.287        7.487      858.176
02/05/2014  13:39:00       69.762       59.998       77.657       52.660       71.722       57.505     2773.104     5144.012     3306.854        1.286        0.561       92.014       56.153        0.372      336.230        7.393      858.125
02/05/2014  13:40:00       61.298       31.066       51.472       52.546       64.441       40.554     2761.109     4152.586     1644.661        0.796        0.428       68.720       45.127        0.431      336.083        7.146      858.092
02/05/2014  13:41:00       24.810       10.698       15.253       39.152       40.005       28.614     1532.891     1600.362      818.782        0.246        0.198       27.019       17.526        0.421      336.265        7.450      858.051
02/05/2014  13:42:00      110.164       -4.761       25.583       69.820       55.075       37.086     4874.801     3033.269     1375.373        1.105        0.464      110.267       22.359        0.041      336.110        7.192      858.051
02/05/2014  13:43:00       59.549       26.236       36.036       38.906       41.236       32.293     1513.697     1700.412     1042.815        0.489        0.213       65.072       19.586        0.091      336.282        7.479      858.045
02/05/2014  13:44:00       28.949       43.176       58.437       41.343       59.887       43.111     1709.222     3586.450     1858.535        0.663        0.358       51.983       41.106        0.625      336.481        7.812      858.024
02/05/2014  13:45:00       83.798      -54.317       17.012       68.967      111.472       65.038     4756.427    12425.938     4229.935        1.583        1.071       99.862       72.290        0.524      336.559        7.940      857.977
02/05/2014  13:46:00       39.170     -137.299       -1.185      108.574      116.943       62.676    11788.336    13675.608     3928.258        2.488        1.470      142.777       64.921        0.207      336.512        7.862      857.961
02/05/2014  13:47:00      138.560      -73.249       35.970      108.171      138.472       93.090    11700.899    19174.452     8665.666        3.269        1.977      156.730      114.388        0.533      336.297        7.503      857.953
02/05/2014  13:48:00       76.347      -55.554       49.004      103.046      115.693       61.788    10618.540    13384.891     3817.719        1.956        1.391       94.420       81.284        0.741      336.531        7.893      857.933
02/05/2014  13:49:00       84.027       -5.774       46.141       79.283       92.992       50.773     6285.845     8647.594     2577.858        1.336        0.876       84.225       40.243        0.228      336.352        7.596      857.930
02/05/2014  13:50:00       71.519      -44.102       46.162       79.937      126.744       65.708     6389.892    16064.106     4317.537        1.798        1.339       84.024       61.072        0.528      336.293        7.497      857.954
02/05/2014  13:51:00       10.537      -76.022       25.334       32.757       53.559       37.453     1073.046     2868.545     1402.742        0.594        0.267       76.749       16.046        0.044      336.486        7.821      857.976
02/05/2014  13:52:00       -6.937      -50.667       10.415       39.830       58.602       40.527     1586.450     3434.196     1642.438        0.469        0.333       51.140       20.749        0.165      336.662        8.116      857.977
02/05/2014  13:53:00       19.632      -27.499       19.640       43.863       46.929       21.515     1923.959     2202.334      462.885        0.306        0.229       33.788       20.351        0.363      336.732        8.232      857.960
02/05/2014  13:54:00      130.967      100.172       69.270      119.105       75.513       65.374    14185.896     5702.152     4273.790        2.807        1.208      164.885       64.195        0.152      336.407        7.686      857.928
02/05/2014  13:55:00      109.593       48.292       15.394       64.334       68.972       45.706     4138.911     4757.177     2089.081        1.278        0.549      119.761       22.235        0.034      336.222        7.379      857.900
02/05/2014  13:56:00       10.948       58.938       53.984       40.712       57.974       34.541     1657.451     3360.941     1193.073        0.636        0.311       59.946       26.081        0.189      336.511        7.863      857.889
02/05/2014  13:57:00       29.574     -113.372       -3.596       90.869       77.384       40.743     8257.259     5988.290     1660.022        1.482        0.795      117.166       38.880        0.110      336.627        8.054      857.867
02/05/2014  13:58:00       -7.534      -62.380       13.347       40.471       70.678       34.885     1637.939     4995.312     1216.943        0.599        0.393       62.833       27.999        0.199      336.853        8.433      857.861
02/05/2014  13:59:00       -6.505       38.345       74.866       30.607       50.990       47.573      936.775     2599.994     2263.150        0.646        0.290       38.893       44.429        1.305      336.950        8.597      857.857
02/05/2014  14:00:00       64.887       51.167       70.309       74.310       57.381       48.641     5522.036     3292.560     2365.966        1.147        0.559       82.634       40.880        0.245      336.591        7.994      857.848
02/05/2014  14:01:00       31.328       -5.574       25.887       85.156       64.284       38.280     7251.512     4132.434     1465.388        0.726        0.642       31.820       28.734        0.815      336.759        8.275      857.842
02/05/2014  14:02:00       18.774       30.222        1.671       39.799       60.962       29.967     1583.997     3716.338      898.028        0.373        0.310       35.579       27.939        0.617      336.695        8.169      857.837
02/05/2014  14:03:00       20.422        6.690       27.785       36.626       58.873       36.208     1341.434     3466.084     1311.003        0.368        0.306       21.490       39.599        3.395      336.802        8.350      857.826
02/05/2014  14:04:00       46.849       20.365       20.562       48.086       30.156       31.557     2312.243      909.406      995.830        0.362        0.211       51.084       18.086        0.125      336.855        8.438      857.789
02/05/2014  14:05:00       64.180       79.420       71.927       79.718       55.326       67.946     6355.028     3060.959     4616.667        1.481        0.702      102.111       59.557        0.340      336.696        8.170      857.756
02/05/2014  14:06:00      130.019       99.731       36.715       68.085       52.484       53.397     4635.607     2754.556     2851.231        1.922        0.512      163.864       34.042        0.043      336.362        7.613      857.780
02/05/2014  14:07:00       70.808       75.160       10.485       55.375       52.852       43.729     3066.340     2793.337     1912.261        0.927        0.389      103.261       26.974        0.068      336.460        7.776      857.793
02/05/2014  14:08:00       57.527       52.649       12.711       79.744       50.197       30.646     6359.185     2519.734      939.165        0.803        0.491       77.982       29.970        0.148      336.435        7.734      857.800
02/05/2014  14:09:00       36.026       46.612        6.065       63.438       38.335       31.011     4024.437     1469.555      961.687        0.498        0.323       58.911       26.408        0.201      336.427        7.723      857.789
02/05/2014  14:10:00       42.109       75.304      -14.252       49.084       32.925       39.401     2409.264     1084.033     1552.471        0.635        0.252       86.278       26.560        0.095      336.276        7.470      857.787
02/05/2014  14:11:00       94.137       31.771        8.631       45.004       43.357       31.424     2025.397     1879.847      987.459        0.742        0.245       99.354       18.976        0.036      336.239        7.407      857.770
02/05/2014  14:12:00       24.133       23.455       25.797       46.874       26.577       28.873     2197.131      706.351      833.665        0.277        0.187       33.653       16.191        0.231      336.572        7.963      857.759
02/05/2014  14:13:00       12.379        4.099       21.528       19.747       27.236       20.548      389.932      741.802      422.211        0.109        0.078       13.040       13.810        1.122      336.873        8.466      857.772
02/05/2014  14:14:00       70.464       57.340       71.047       40.974       33.604       31.555     1678.884     1129.215      995.720        0.855        0.190       90.846       14.258        0.025      336.393        7.664      857.782
02/05/2014  14:15:00       48.647       44.249       27.280       31.430       16.106       33.445      987.850      259.409     1118.539        0.372        0.118       65.761       15.476        0.055      336.310        7.526      857.771
02/05/2014  14:16:00       42.887       59.126        5.343       38.902       49.849       34.315     1513.404     2484.952     1177.513        0.527        0.259       73.042       30.904        0.179      336.455        7.768      857.719
02/05/2014  14:17:00       64.751       10.148       28.681       72.859       39.523       41.667     5308.485     1562.090     1736.155        0.686        0.430       65.541       39.631        0.366      336.688        8.158      857.733
02/05/2014  14:18:00       -5.646       40.405       73.665       17.936       36.775       23.161      321.716     1352.435      536.421        0.465        0.111       40.798       14.311        0.123      337.032        8.732      857.762
02/05/2014  14:19:00       75.984       71.178       29.679       30.914       24.821       29.633      955.646      616.088      878.138        0.708        0.122      104.114       24.713        0.056      336.336        7.569      857.770
02/05/2014  14:20:00       27.659       54.609       60.008       39.848       30.660       26.279     1587.866      940.034      690.576        0.528        0.161       61.214       27.087        0.196      336.914        8.535      857.776
02/05/2014  14:21:00        0.862      -10.375       86.220      105.555      125.127       82.193    11141.816    15656.809     6755.722        2.054        1.678       10.410       88.836       72.819      337.180        8.980      857.723
02/05/2014  14:22:00      -85.222      -75.999       10.395       89.259       52.354       50.202     7967.098     2740.916     2520.225        1.319        0.661      114.187       45.301        0.157      337.396        9.340      857.703
02/05/2014  14:23:00     -200.120      117.437      -23.310       90.297       83.491       50.268     8153.468     6970.692     2526.838        3.601        0.883      232.033       46.813        0.041      337.339        9.243      857.699
02/05/2014  14:24:00     -219.437      102.071      -24.576      130.552      154.310       57.632    17043.834    23811.475     3321.470        5.167        2.209      242.015       33.261        0.019      337.196        9.004      857.689
02/05/2014  14:25:00     -304.289      -76.151      -13.616      157.535      129.469       50.718    24817.424    16762.219     2572.358        7.136        2.208      313.673       54.842        0.031      337.272        9.130      857.662
02/05/2014  14:26:00     -407.198     -112.389       -4.155      204.696      190.616       83.056    41900.397    36334.279     6898.273       13.178        4.257      422.424       89.404        0.045      337.148        8.924      857.646
02/05/2014  14:27:00     -259.928      -57.253       10.487      167.905      172.230       87.661    28192.215    29663.112     7684.411        6.823        3.277      266.159       81.520        0.094      337.154        8.934      857.609
02/05/2014  14:28:00     -274.630     -136.654        1.210      138.403      110.586       67.292    19155.458    12229.343     4528.199        6.500        1.796      306.751       66.808        0.047      337.036        8.737      857.614
02/05/2014  14:29:00     -143.862     -126.872        8.430       97.048       98.623       54.094     9418.243     9726.544     2926.188        2.946        1.104      191.814       57.647        0.090      337.075        8.801      857.598
02/05/2014  14:30:00      -79.529     -150.130       23.482      142.152      114.578       65.196    20207.249    13128.217     4250.497        3.349        1.879      169.894       72.482        0.182      337.207        9.023      857.578
02/05/2014  14:31:00      -61.337     -136.913       15.373       63.910      107.216       44.072     4084.532    11495.266     1942.371        2.013        0.876      150.025       33.601        0.050      337.392        9.334      857.586
02/05/2014  14:32:00     -236.785     -109.113      -17.761      127.412      107.462       56.549    16233.843    11548.005     3197.785        4.963        1.549      260.716       49.918        0.037      337.172        8.964      857.561
02/05/2014  14:33:00     -303.192     -241.102      -17.386      126.887      121.210       60.696    16100.305    14691.976     3684.004        9.241        1.724      387.370       57.932        0.022      337.042        8.744      857.566
02/05/2014  14:34:00     -360.228     -247.437       -9.428      147.420      112.735       71.464    21732.709    12709.093     5107.117       11.531        1.977      437.023       70.558        0.026      337.122        8.880      857.583
02/05/2014  14:35:00     -243.111     -133.888      -11.572      203.392      175.546       89.696    41368.180    30816.473     8045.413        7.868        4.012      277.541      107.387        0.150      337.325        9.221      857.573
02/05/2014  14:36:00     -263.749     -158.163        0.369      187.494      141.917       79.802    35153.940    20140.400     6368.345        7.811        3.083      307.537       98.162        0.102      337.352        9.267      857.570
02/05/2014  14:37:00     -302.880     -293.832        4.785      220.445      128.413       95.188    48595.836    16489.942     9060.786       12.611        3.707      421.987      107.745        0.065      337.094        8.832      857.554
02/05/2014  14:38:00     -408.057     -255.308        2.147      230.349      189.908       91.652    53060.727    36065.067     8400.093       16.460        4.876      481.345       97.008        0.041      337.147        8.921      857.549
02/05/2014  14:39:00     -429.819      -57.461      -18.651      176.739      192.589       75.344    31236.665    37090.424     5676.720       13.119        3.700      433.643       74.857        0.030      337.107        8.855      857.542
02/05/2014  14:40:00     -432.764      -60.660      -23.136      128.369      125.815       62.338    16478.523    15829.539     3886.083       11.384        1.810      436.994       63.624        0.021      337.039        8.739      857.527
02/05/2014  14:41:00     -159.714     -100.029       21.069      157.437      106.235       60.990    24786.332    11285.921     3719.819        3.787        1.990      188.452       67.181        0.127      337.377        9.307      857.540
02/05/2014  14:42:00     -241.186     -156.854       -0.881      164.269      137.072       76.308    26984.283    18788.797     5822.838        6.718        2.580      287.705       74.783        0.068      337.359        9.277      857.554
02/05/2014  14:43:00     -295.970      -74.822      -21.703      121.080      112.131       57.741    14660.473    12573.311     3334.066        6.211        1.528      305.281       49.189        0.026      337.239        9.076      857.560
02/05/2014  14:44:00     -261.749     -129.194      -19.930      122.096       88.937       48.008    14907.507     7909.834     2304.742        5.536        1.256      291.896       40.393        0.019      337.184        8.983      857.543
02/05/2014  14:45:00     -177.716     -121.561       15.939      140.617      104.755       64.912    19773.194    10973.615     4213.581        4.078        1.748      215.314       65.818        0.093      337.191        8.997      857.544
02/05/2014  14:46:00     -246.854     -124.542      -20.065      117.568       98.378       56.355    13822.137     9678.292     3175.915        5.176        1.334      276.491       49.636        0.032      337.200        9.011      857.541
02/05/2014  14:47:00      -58.584     -100.102        8.728      113.413       70.207       57.419    12862.618     4929.024     3296.993        1.731        1.054      115.985       45.803        0.156      337.346        9.256      857.511
02/05/2014  14:48:00     -192.138     -104.127       11.359      159.439      122.006       67.677    25420.784    14885.490     4580.121        4.638        2.244      218.539       71.524        0.107      337.354        9.269      857.520
02/05/2014  14:49:00     -349.939     -260.824       -6.068      215.401      169.587       88.424    46397.655    28759.908     7818.738       13.674        4.149      436.448      106.127        0.059      337.130        8.894      857.509
02/05/2014  14:50:00     -414.958     -283.133      -27.303      196.406      167.564       81.820    38575.185    28077.723     6694.537       16.321        3.667      502.348       88.921        0.031      336.984        8.649      857.505
02/05/2014  14:51:00     -318.926     -198.986       16.673      204.928      169.275       87.385    41995.661    28654.037     7636.188       10.992        3.914      375.911       96.257        0.066      337.049        8.757      857.515
02/05/2014  14:52:00     -277.561     -233.259       -3.358      163.916      131.095       83.486    26868.537    17185.802     6969.845        9.123        2.551      362.560       76.944        0.045      336.957        8.604      857.531
02/05/2014  14:53:00     -240.384     -161.849        9.949      165.728      123.115       69.658    27465.729    15157.246     4852.285        6.577        2.374      289.793       85.468        0.087      337.185        8.986      857.542
02/05/2014  14:54:00     -327.011     -223.220      -10.915      158.076      127.174       83.829    24988.083    16173.316     7027.250       10.253        2.409      395.934       70.603        0.032      337.216        9.036      857.528
02/05/2014  14:55:00     -309.266     -183.810        8.276      190.738      161.708       73.857    36381.102    26149.524     5454.846        9.873        3.399      359.766       92.197        0.066      337.212        9.031      857.531
02/05/2014  14:56:00     -406.773     -281.873      -18.068      252.075      161.059       92.918    63542.002    25939.991     8633.681       17.166        4.906      494.890      102.524        0.043      337.108        8.857      857.496
02/05/2014  14:57:00     -338.304     -189.276      -18.753      188.924      142.449       67.571    35692.183    20291.698     4565.871       10.558        3.027      387.653       74.424        0.037      337.105        8.851      857.474
02/05/2014  14:58:00     -214.159      -44.606       13.765      172.690      151.141       91.216    29821.772    22843.738     8320.401        5.450        3.049      218.755       90.512        0.171      337.337        9.241      857.432
02/05/2014  14:59:00     -409.450     -324.453      -21.184      163.310      132.728       91.134    26670.217    17616.766     8305.397       16.297        2.630      522.416       87.557        0.028      337.203        9.016      857.445
02/05/2014  15:00:00     -373.905     -196.761       -6.792      222.404      160.745       91.479    49463.705    25839.086     8368.330       13.110        4.184      422.516      111.895        0.070      337.207        9.021      857.431
02/05/2014  15:01:00     -439.046     -266.285      -22.498      245.737      203.673       96.283    60386.461    41482.811     9270.484       18.764        5.557      513.487      105.204        0.042      337.115        8.869      857.435
02/05/2014  15:02:00     -525.456     -341.579      -11.537      245.687      205.932      108.286    60361.965    42407.846    11725.860       25.369        5.725      626.722      118.911        0.036      337.031        8.728      857.429
02/05/2014  15:03:00     -458.737     -170.395      -13.013      187.769      180.518       75.573    35257.178    32586.819     5711.333       15.659        3.678      489.361       80.716        0.027      337.028        8.722      857.494
02/05/2014  15:04:00     -279.872     -185.395        4.068      198.591       95.679       72.139    39438.550     9154.476     5204.045        8.325        2.690      335.708       74.872        0.050      337.094        8.831      857.545
02/05/2014  15:05:00     -258.373     -158.926        9.930      154.534      119.611       73.793    23880.867    14306.722     5445.394        6.787        2.182      303.339       78.014        0.066      337.076        8.803      857.564
02/05/2014  15:06:00     -249.218      -59.694        5.841      135.870      111.993       75.095    18460.567    12542.338     5639.245        5.117        1.832      256.267       76.994        0.090      337.255        9.102      857.552
02/05/2014  15:07:00     -325.851      -65.402        1.414      212.450      132.929       74.420    45134.900    17670.043     5538.268        8.939        3.417      332.350       89.688        0.073      337.112        8.863      857.542
02/05/2014  15:08:00     -260.149     -194.726      -17.957       94.864      122.528       55.546     8999.200    15013.212     3085.352        6.650        1.355      324.955       49.824        0.024      337.029        8.723      857.550
02/05/2014  15:09:00     -235.694     -142.356       -6.737       93.610      113.103       57.350     8762.905    12792.180     3289.021        5.035        1.242      275.348       46.764        0.029      337.179        8.975      857.543
02/05/2014  15:10:00     -221.300     -231.855        2.127      180.947      149.476       75.602    32741.672    22343.037     5715.629        8.176        3.040      320.516       82.992        0.067      337.122        8.879      857.567
02/05/2014  15:11:00     -164.786     -185.548       10.450      111.288      154.735       51.065    12384.971    23942.883     2607.620        5.031        1.947      248.158       50.530        0.041      337.101        8.844      857.579
02/05/2014  15:12:00     -177.956     -314.756       -3.628      127.613      198.585       65.635    16285.066    39436.037     4307.944        9.538        3.001      361.579       68.851        0.036      337.104        8.850      857.569
02/05/2014  15:13:00     -327.237     -258.328      -20.828      131.685      149.929       66.004    17340.970    22478.738     4356.505       10.921        2.209      416.915       56.562        0.018      337.127        8.888      857.571
02/05/2014  15:14:00     -402.016     -234.151      -26.762      168.884      119.379       75.587    28521.760    14251.384     5713.422       13.282        2.424      465.235       69.185        0.022      337.066        8.786      857.560
02/05/2014  15:15:00     -323.459     -244.817       -6.668      186.046      104.163       67.453    34613.119    10849.868     4549.912       10.730        2.501      405.661       71.525        0.031      337.083        8.814      857.551
02/05/2014  15:16:00     -245.451     -202.368        3.139      129.186      158.794       74.539    16688.990    25215.420     5556.122        7.433        2.373      318.118       73.627        0.054      337.188        8.991      857.530
02/05/2014  15:17:00     -291.743     -231.378       -6.405      235.693      153.314       92.262    55551.335    23505.060     8512.268       11.312        4.378      372.357       96.978        0.068      337.205        9.020      857.480
02/05/2014  15:18:00     -226.847     -147.736        2.119      184.131      130.557       81.183    33904.240    17045.016     6590.696        6.541        2.877      270.713       75.090        0.077      337.318        9.208      857.509
02/05/2014  15:19:00     -409.663     -158.600      -12.202      234.537      162.032       82.266    55007.750    26254.360     6767.674       14.056        4.401      439.293      108.460        0.061      337.081        8.812      857.503
02/05/2014  15:20:00     -389.100     -189.504       -2.423      244.285      169.107      101.491    59675.381    28597.059    10300.511       14.293        4.929      432.794      122.366        0.080      337.007        8.687      857.508
02/05/2014  15:21:00     -469.383     -114.220      -24.890      233.912      150.971       90.384    54714.747    22792.149     8169.313       15.982        4.284      483.080      109.961        0.052      336.963        8.614      857.447
02/05/2014  15:22:00     -384.193     -103.097      -14.557      206.304      110.751       72.759    42561.453    12265.692     5293.819       10.927        3.006      397.785       89.868        0.051      337.079        8.809      857.459
02/05/2014  15:23:00     -303.700      -52.014       -4.367      156.923       94.687       74.427    24624.931     8965.718     5539.450        6.704        1.957      308.122       84.197        0.075      337.193        8.999      857.490
02/05/2014  15:24:00     -392.163      -56.084      -28.918      127.722      134.240       68.317    16312.872    18020.374     4667.255        9.838        1.950      396.153       64.463        0.026      337.096        8.836      857.513
02/05/2014  15:25:00     -340.512     -186.732      -16.316      155.800      168.808       88.089    24273.606    28496.280     7759.696       10.580        3.026      388.351       89.349        0.053      337.069        8.791      857.518
02/05/2014  15:26:00     -336.345     -159.440       -4.943      231.907      143.242       94.339    53780.716    20518.238     8899.927       11.087        4.160      372.222      105.954        0.081      337.089        8.824      857.485
02/05/2014  15:27:00     -320.662     -128.805        2.418      206.947      177.357       78.242    42827.244    31455.543     6121.847        9.990        4.020      345.564       96.178        0.077      337.035        8.735      857.532
02/05/2014  15:28:00     -284.267     -118.174        0.547      201.406      165.012       85.892    40564.405    27229.105     7377.479        8.496        3.759      307.851      111.096        0.130      337.011        8.696      857.520
02/05/2014  15:29:00     -415.949      -60.012      -16.336      171.680      119.449       78.007    29473.951    14268.057     6085.113       11.335        2.491      420.255       79.569        0.036      336.974        8.631      857.542
02/05/2014  15:30:00     -336.501     -149.258      -18.855      172.942      172.444       65.033    29908.837    29736.932     4229.317        9.986        3.194      368.117       78.900        0.046      337.006        8.686      857.547
02/05/2014  15:31:00     -456.835     -189.161      -21.294      168.464      165.371       83.160    28380.153    27347.646     6915.525       15.378        3.132      494.449       77.831        0.025      336.956        8.602      857.542
02/05/2014  15:32:00     -482.245     -207.625      -12.931      208.800      156.987       80.884    43597.244    24644.949     6542.226       17.530        3.739      525.042      103.236        0.039      336.966        8.618      857.546
02/05/2014  15:33:00     -327.589      -68.474       -9.907      184.778      139.436       68.889    34143.006    19442.396     4745.687        8.521        2.917      334.669       79.176        0.056      337.029        8.725      857.541
02/05/2014  15:34:00     -255.106      -60.076      -16.160      169.983       92.578       65.135    28894.247     8570.637     4242.558        5.532        2.085      262.084       65.847        0.063      337.184        8.985      857.527
02/05/2014  15:35:00     -346.909      -99.236        2.084      154.305      152.163       73.472    23810.174    23153.495     5398.204        9.127        2.618      360.823       75.362        0.044      337.062        8.780      857.506
02/05/2014  15:36:00     -177.921     -133.923       -9.253      104.064       90.440       45.015    10829.225     8179.416     2026.374        3.535        1.052      222.691       51.227        0.053      337.175        8.970      857.501
02/05/2014  15:37:00     -100.064      -69.507        5.434       98.437       78.519       47.856     9689.940     6165.223     2290.173        1.651        0.907      121.836       50.228        0.170      337.366        9.291      857.500
02/05/2014  15:38:00     -212.635     -196.928        0.075      192.476      110.036       61.595    37047.180    12108.020     3793.928        6.846        2.647      289.817       65.047        0.050      337.157        8.938      857.451
02/05/2014  15:39:00     -374.367     -235.442       -4.996      145.279      146.007       77.507    21106.040    21317.931     6007.312       12.201        2.422      442.248       82.873        0.035      337.128        8.891      857.471
02/05/2014  15:40:00     -309.800     -187.587      -17.564      140.815      153.003       76.539    19828.800    23409.795     5858.186        9.028        2.455      362.167       71.561        0.039      337.053        8.763      857.484
02/05/2014  15:41:00     -392.698     -234.417       -6.822      198.121      151.682       84.283    39252.046    23007.522     7103.549       13.927        3.468      457.344      104.358        0.052      337.137        8.905      857.463
02/05/2014  15:42:00     -274.949     -212.716        5.636      210.911      149.104       90.830    44483.504    22231.981     8250.014        9.791        3.748      347.628      113.330        0.106      337.064        8.783      857.496
02/05/2014  15:43:00     -349.911     -185.282      -22.727      118.783      102.497       61.124    14109.468    10505.543     3736.096        9.281        1.418      395.939       61.577        0.024      337.074        8.799      857.477
02/05/2014  15:44:00     -406.263     -329.769      -14.961      234.580      184.158       88.993    55027.695    33914.130     7919.831       18.543        4.843      523.256      101.628        0.038      337.005        8.683      857.453
02/05/2014  15:45:00     -277.214     -181.996       -0.593      173.804      146.725       79.124    30207.913    21528.221     6260.670        8.397        2.900      331.617       73.950        0.050      336.972        8.629      857.445
02/05/2014  15:46:00     -359.678     -235.610      -10.151      193.388      128.269       73.481    37398.774    16452.967     5399.432       12.211        2.963      429.978       95.343        0.049      336.895        8.500      857.428
02/05/2014  15:47:00     -389.217     -188.479       -3.699      182.116      135.760       70.377    33166.277    18430.722     4952.943       12.178        2.827      432.452       86.952        0.040      336.933        8.565      857.414
02/05/2014  15:48:00     -309.173     -289.759        3.747      153.178      114.730       74.264    23463.523    13163.040     5515.212       11.085        2.107      423.731       71.315        0.028      336.926        8.552      857.423
02/05/2014  15:49:00     -315.110     -201.689        3.740      231.024      175.242       92.849    53371.981    30709.899     8620.997       11.633        4.635      374.129      110.269        0.087      336.962        8.612      857.391
02/05/2014  15:50:00     -378.663     -408.119      -26.482      179.508      178.451       91.254    32223.238    31844.842     8327.218       19.151        3.620      556.728       80.650        0.021      336.845        8.416      857.422
02/05/2014  15:51:00     -391.206     -267.558       -2.287      178.320      142.704       82.526    31798.151    20364.444     6810.539       14.179        2.949      473.951      101.371        0.046      336.910        8.525      857.419
02/05/2014  15:52:00     -205.306     -203.321        2.517      160.490       99.203       78.486    25757.174     9841.176     6160.098        6.262        2.088      288.946       82.383        0.081      337.040        8.743      857.422
02/05/2014  15:53:00     -253.266     -144.885       -7.605      126.298      137.185       58.013    15951.282    18819.855     3365.520        6.166        1.907      291.780       65.539        0.050      336.994        8.665      857.417
02/05/2014  15:54:00     -230.782     -194.169       -9.553      150.010      116.988       66.874    22503.130    13686.164     4472.189        6.585        2.033      301.599       73.078        0.059      337.074        8.798      857.425
02/05/2014  15:55:00     -504.147     -289.577      -22.468      199.307      147.530       88.080    39723.180    21765.016     7758.150       20.387        3.462      581.394       90.185        0.024      336.913        8.530      857.416
02/05/2014  15:56:00     -368.775     -346.842       -9.948      189.899      156.759       99.921    36061.748    24573.449     9984.154       16.349        3.531      506.255      118.420        0.055      336.878        8.470      857.415
02/05/2014  15:57:00     -405.972     -322.189       -2.829      253.952      186.515      100.404    64491.795    34787.878    10080.868       18.898        5.468      518.285      113.353        0.048      336.902        8.513      857.379
02/05/2014  15:58:00     -332.042     -192.132       -5.586      161.381      154.117       70.598    26043.744    23751.982     4984.108       10.098        2.739      383.623       68.803        0.032      336.848        8.423      857.386
02/05/2014  15:59:00     -444.630     -318.181      -10.233      170.628      148.136       90.503    29113.974    21944.164     8190.705       17.913        2.962      546.750       97.595        0.032      336.812        8.362      857.378
02/05/2014  16:00:00     -446.427     -251.991        1.484      165.793      138.370       87.837    27487.466    19146.291     7715.382       15.856        2.717      512.637       85.719        0.028      336.893        8.497      857.396
02/05/2014  16:01:00     -240.874      -66.875       -7.941      130.791      119.223       57.262    17106.230    14214.073     3278.897        4.857        1.730      249.985       56.892        0.052      337.071        8.795      857.420
02/05/2014  16:02:00     -201.855      -96.899       -2.740      124.542      174.087       71.333    15510.717    30306.121     5088.455        5.052        2.545      223.909       70.253        0.098      337.132        8.897      857.427
02/05/2014  16:03:00     -323.567     -126.640      -13.797      136.660      108.745       60.756    18675.855    11825.460     3691.280        7.755        1.710      347.467       63.613        0.034      336.952        8.595      857.435
02/05/2014  16:04:00     -100.152      -87.268       11.613      108.424       75.911       56.115    11755.699     5762.481     3148.886        1.922        1.033      132.839       56.749        0.183      337.102        8.847      857.435
02/05/2014  16:05:00     -347.086     -133.770       -2.737      215.838      197.044       89.878    46585.915    38826.316     8078.100       11.591        4.675      371.972      105.177        0.080      336.933        8.564      857.414
02/05/2014  16:06:00     -507.397     -278.052      -10.561      256.917      197.120      101.803    66006.117    38856.192    10363.930       22.503        5.761      578.589      121.468        0.044      336.750        8.258      857.390
02/05/2014  16:07:00     -329.106     -171.000      -12.585      250.138      193.967      106.727    62568.863    37623.185    11390.751       12.463        5.579      370.880      115.364        0.097      336.786        8.318      857.422
02/05/2014  16:08:00     -404.044      -85.461        1.882      201.743      132.797       80.537    40700.105    17634.921     6486.133       11.768        3.241      412.983       91.194        0.049      336.704        8.182      857.439
02/05/2014  16:09:00     -396.142     -143.477      -20.775      169.246      135.402       80.311    28644.325    18333.592     6449.911       11.568        2.671      421.324       72.701        0.030      336.723        8.212      857.452
02/05/2014  16:10:00     -390.692     -114.735       -2.634      154.025      136.655       75.874    23723.625    18674.675     5756.802       10.698        2.408      407.191       79.633        0.038      336.738        8.237      857.487
02/05/2014  16:11:00     -332.377     -158.367       -1.615      182.946      132.443       63.595    33469.101    17541.155     4044.325        9.530        2.753      368.178       71.595        0.038      336.745        8.250      857.510
02/05/2014  16:12:00     -334.905     -215.379       -2.718      114.175       99.767       69.296    13035.828     9953.522     4801.974        9.317        1.390      398.182       67.495        0.029      336.710        8.191      857.519
02/05/2014  16:13:00     -359.566     -236.455       -6.135      228.254      204.640       86.643    52099.745    41877.374     7507.081       14.334        5.074      430.347       98.680        0.053      336.704        8.181      857.536
02/05/2014  16:14:00     -309.399     -155.330      -13.607      178.915      111.176       73.224    32010.571    12360.011     5361.801        8.488        2.487      346.201       83.069        0.058      336.669        8.123      857.526
02/05/2014  16:15:00     -263.982      -54.340       15.129      159.493      143.600       81.884    25438.145    20620.967     6705.055        6.281        2.638      269.516       83.381        0.096      336.702        8.179      857.544
02/05/2014  16:16:00     -307.970     -138.680       -0.292      260.706      190.386      104.791    67967.807    36246.862    10981.053       11.462        5.760      337.754      119.462        0.125      336.670        8.126      857.554
02/05/2014  16:17:00     -309.364     -161.984        4.099      208.644      187.141       95.394    43532.224    35021.613     9100.085       10.479        4.383      349.206       93.878        0.072      336.637        8.071      857.554
02/05/2014  16:18:00     -308.643      -30.353        3.340      190.623      142.495       82.463    36337.284    20304.921     6800.198        7.981        3.172      310.132       91.943        0.088      336.625        8.050      857.591
02/05/2014  16:19:00     -167.914      -49.473        1.050      130.514      141.402       87.931    17033.786    19994.484     7731.839        3.769        2.238      175.051       84.371        0.232      336.637        8.071      857.563
02/05/2014  16:20:00     -413.302     -295.599        8.230      279.390      199.035      101.636    78058.512    39614.978    10329.822       19.311        6.400      508.131      117.170        0.053      336.501        7.843      857.541
02/05/2014  16:21:00     -423.540     -200.440      -14.821      156.898      148.335       82.468    24616.886    22003.343     6801.011       13.659        2.671      468.575       87.011        0.034      336.498        7.836      857.511
02/05/2014  16:22:00     -382.087     -248.318       -7.639      202.537      154.148       99.055    41021.289    23761.466     9811.830       14.114        3.730      455.689      102.414        0.051      336.504        7.848      857.515
02/05/2014  16:23:00     -348.953     -189.628       12.981      173.814      146.753       79.546    30211.193    21536.507     6327.581       10.798        2.904      397.148       91.395        0.053      336.504        7.848      857.526
02/05/2014  16:24:00     -380.375     -252.089       -4.314      240.037      198.708      104.382    57617.538    39484.851    10895.499       15.811        5.400      456.327      112.124        0.060      336.461        7.774      857.517
02/05/2014  16:25:00     -366.099      -77.119        6.746      179.572      160.793       87.730    32246.199    25854.249     7696.524       10.290        3.290      374.134      103.238        0.076      336.452        7.759      857.510
02/05/2014  16:26:00     -379.097     -161.687       -4.064      219.587      149.076       92.257    48218.506    22223.543     8511.393       12.440        3.948      412.137       93.653        0.052      336.418        7.702      857.503
02/05/2014  16:27:00     -339.323     -169.378       -3.569      178.635      138.524       81.939    31910.369    19188.806     6714.005       10.082        2.891      379.248       92.056        0.059      336.429        7.721      857.509
02/05/2014  16:28:00     -442.495     -152.946      -20.873      242.157      205.784       93.983    58639.803    42347.031     8832.728       16.471        5.491      468.182      118.080        0.064      336.382        7.644      857.519
02/05/2014  16:29:00     -348.924     -183.665       10.862      249.416      160.336       81.594    62208.483    25707.533     6657.564       12.507        4.729      394.311       98.792        0.063      336.351        7.590      857.505
02/05/2014  16:30:00     -479.405     -283.425      -17.614      241.136      185.861       97.502    58146.558    34544.182     9506.656       20.632        5.110      556.919      109.763        0.039      336.284        7.478      857.483
02/05/2014  16:31:00     -386.048     -122.870       -6.943      229.534      137.712       91.312    52686.012    18964.650     8337.901       12.207        3.999      405.130       89.914        0.049      336.290        7.489      857.464
02/05/2014  16:32:00     -315.104     -205.715      -13.905      161.509      133.570       84.863    26085.169    17841.028     7201.777        9.646        2.556      376.310       99.167        0.069      336.298        7.502      857.458
02/05/2014  16:33:00     -468.614     -338.626      -26.433      229.706      197.089      105.915    52765.063    38844.185    11217.915       21.888        5.141      578.158      112.581        0.038      336.224        7.379      857.445
02/05/2014  16:34:00     -416.829     -192.001      -28.360      197.587      166.573       87.733    39040.629    27746.721     7697.031       14.294        3.724      458.923       97.499        0.045      336.218        7.370      857.465
02/05/2014  16:35:00     -310.739     -180.037       -8.849      176.329      151.901       78.476    31091.939    23074.044     6158.414        9.468        3.016      359.127       88.038        0.060      336.216        7.365      857.475
02/05/2014  16:36:00     -326.365     -217.676       -9.220      217.725      178.977       97.993    47404.299    32032.599     9602.551       12.150        4.452      392.297       95.925        0.060      336.182        7.308      857.486
02/05/2014  16:37:00     -511.279     -311.043      -36.513      177.722      142.181       85.619    31585.121    20215.488     7330.696       20.930        2.957      598.459       78.987        0.017      336.127        7.217      857.485
02/05/2014  16:38:00     -357.193     -211.147      -17.922      180.249      161.452      104.507    32489.536    26066.616    10921.646       12.097        3.474      414.933       99.473        0.057      336.129        7.219      857.474
02/05/2014  16:39:00     -619.619     -154.295      -18.905      279.470      189.208       99.328    78103.554    35799.753     9866.005       26.591        6.188      638.541      107.821        0.029      336.072        7.126      857.469
02/05/2014  16:40:00     -634.660      -88.329      -34.306      275.511      183.114      103.929    75906.143    33530.614    10801.271       26.598        6.012      640.777      129.088        0.041      336.066        7.115      857.427
02/05/2014  16:41:00     -449.485     -176.211      -12.723      263.383      176.315      111.182    69370.555    31086.909    12361.465       17.302        5.641      482.791      127.131        0.069      336.071        7.123      857.459
02/05/2014  16:42:00     -391.892     -215.745        0.912      248.468      197.987      105.923    61736.174    39198.799    11219.615       15.612        5.608      447.354      121.007        0.073      336.074        7.130      857.476
02/05/2014  16:43:00     -495.927     -319.689       -5.229      242.929      237.706      132.051    59014.518    56504.322    17437.412       24.054        6.648      590.038      149.134        0.064      335.997        7.000      857.471
02/05/2014  16:44:00     -516.612     -294.952      -39.094      241.073      212.249       94.500    58116.263    45049.730     8930.175       23.374        5.605      594.881       99.940        0.028      336.019        7.037      857.517
02/05/2014  16:45:00     -335.347     -200.637       -1.734      161.430      153.507       76.312    26059.693    23564.253     5823.567       10.407        2.772      390.785       80.276        0.042      336.025        7.046      857.526
02/05/2014  16:46:00     -308.442     -120.033       23.598      265.609      138.418       90.186    70548.170    19159.447     8133.586       10.395        4.892      330.975      110.661        0.112      336.025        7.049      857.542
02/05/2014  16:47:00     -532.939     -135.694      -16.530      212.217      186.954       92.289    45036.231    34951.693     8517.262       19.559        4.425      549.943       96.635        0.031      335.978        6.968      857.553
02/05/2014  16:48:00     -418.677     -144.810       -7.331      259.408      169.323       86.705    67292.762    28670.223     7517.837       14.988        5.174      443.013      106.705        0.058      335.990        6.988      857.550
02/05/2014  16:49:00     -304.859     -138.515        2.587      242.008      191.905       93.715    58568.023    36827.620     8782.465       10.814        5.209      334.851      132.194        0.156      335.989        6.987      857.546
02/05/2014  16:50:00     -400.080     -244.500       -3.458      201.492      173.072      113.353    40599.038    29954.037    12848.791       15.161        4.170      468.875      116.309        0.062      335.947        6.917      857.547
02/05/2014  16:51:00     -510.892     -211.844       -9.913      255.549      199.607      108.600    65305.211    39842.915    11793.886       21.144        5.847      553.072      135.432        0.060      335.905        6.846      857.535
02/05/2014  16:52:00     -376.050     -158.078       -7.409      217.867      186.192       87.866    47466.233    34667.511     7720.392       12.814        4.493      407.924       80.945        0.039      335.918        6.869      857.564
02/05/2014  16:53:00     -447.671     -228.605      -10.995      304.590      178.810       99.414    92775.337    31972.948     9883.196       19.369        6.732      502.662      101.359        0.041      335.888        6.819      857.581
02/05/2014  16:54:00     -315.112     -131.844      -11.721      238.672      156.980       98.028    56964.328    24642.596     9609.437       10.400        4.561      341.582       99.904        0.086      335.889        6.821      857.583
02/05/2014  16:55:00     -477.715     -242.765      -24.169      236.998      189.619      110.480    56167.992    35955.281    12205.839       19.601        5.216      535.860      109.432        0.042      335.841        6.739      857.593
02/05/2014  16:56:00     -528.657     -127.895      -44.501      257.198      187.639      106.465    66150.914    35208.457    11334.774       20.524        5.635      543.908      115.970        0.045      335.830        6.721      857.579
02/05/2014  16:57:00     -325.307     -160.092       -6.820      159.346      154.980       78.507    25391.148    24018.807     6163.303        9.353        2.779      362.566       70.625        0.038      335.839        6.735      857.614
02/05/2014  16:58:00     -439.264      -39.816      -19.298      251.808      202.223       98.119    63407.059    40894.316     9627.349       15.440        5.696      441.065      115.338        0.068      335.811        6.691      857.601
02/05/2014  16:59:00     -340.981     -203.600        6.301      280.348      219.666      102.058    78594.983    48253.366    10415.864       14.749        6.863      397.141      123.562        0.097      335.813        6.693      857.580
02/05/2014  17:00:00     -501.838     -255.379       -1.111      322.165      235.333      124.806   103790.194    55381.533    15576.566       24.588        8.737      563.080      136.851        0.059      335.793        6.659      857.573
02/05/2014  17:01:00     -508.020     -145.111      -15.573      246.116      214.250      113.009    60572.882    45903.139    12770.964       19.930        5.962      528.338      125.215        0.056      335.813        6.692      857.606
02/05/2014  17:02:00     -482.464     -294.199      -22.145      225.406      171.075      111.287    50807.911    29266.758    12384.762       20.612        4.623      565.088      116.644        0.043      335.830        6.722      857.629
02/05/2014  17:03:00     -356.637     -225.012       -9.722      229.024      209.651      118.982    52451.798    43953.525    14156.811       14.422        5.528      421.688      138.308        0.108      335.873        6.794      857.635
02/05/2014  17:04:00     -405.158     -254.142      -13.044      243.432      172.800      111.656    59259.074    29859.829    12467.001       16.523        5.079      478.269      124.443        0.068      335.874        6.795      857.674
02/05/2014  17:05:00     -337.856     -135.019       -9.790      226.043      153.844       93.320    51095.519    23667.893     8708.710       10.796        4.174      363.836      101.246        0.077      335.843        6.742      857.730
02/05/2014  17:06:00     -250.449      -27.128        4.852      220.637      143.827       93.800    48680.673    20686.186     8798.476        7.081        3.908      251.914      108.280        0.185      335.812        6.692      857.759
02/05/2014  17:07:00     -323.460      -74.651       -8.831      220.443      178.046      108.165    48595.072    31700.438    11699.773       10.112        4.600      331.962      120.046        0.131      335.743        6.577      857.745
02/05/2014  17:08:00     -346.734     -156.020       -0.046      254.742      217.727      103.511    64893.651    47405.040    10714.589       13.377        6.151      380.220      129.042        0.115      335.707        6.518      857.733
02/05/2014  17:09:00     -209.095      -75.425       18.544      175.928      137.853       79.848    30950.520    19003.519     6375.676        5.303        2.816      222.283       82.830        0.139      335.709        6.522      857.734
02/05/2014  17:10:00     -301.380      -46.583      -11.181      236.810      118.953       90.503    56079.154    14149.704     8190.814        8.576        3.921      304.959      112.714        0.137      335.702        6.508      857.757
02/05/2014  17:11:00     -260.085      -60.579        8.335      182.508      126.666       76.161    33309.278    16044.204     5800.455        6.326        2.758      267.046       75.284        0.079      335.721        6.541      857.742
02/05/2014  17:12:00     -456.707     -181.198      -23.640      209.867      206.526       97.686    44044.261    42652.914     9542.527       16.909        4.812      491.339      100.824        0.042      335.725        6.547      857.704
02/05/2014  17:13:00     -347.092      -67.510       19.597      232.657      181.519      112.610    54129.347    32949.136    12681.046       11.257        4.988      353.597      105.889        0.090      335.714        6.528      857.703
02/05/2014  17:14:00     -392.913     -206.032       -4.732      287.202      177.297      111.317    82485.139    31434.372    12391.436       16.156        6.316      443.655      145.352        0.107      335.724        6.546      857.730
02/05/2014  17:15:00     -323.294     -152.320        3.235      237.792      183.509       97.259    56544.995    33675.638     9459.362       11.369        4.984      357.380      118.531        0.110      335.704        6.512      857.759
02/05/2014  17:16:00     -350.384     -272.729       -9.334      240.367      190.544      111.626    57776.379    36307.153    12460.281       15.187        5.327      444.016      114.179        0.066      335.723        6.546      857.737
02/05/2014  17:17:00     -370.804     -211.289      -11.173      236.885      179.275      102.120    56114.731    32139.562    10428.574       14.046        4.934      426.777      107.033        0.063      335.728        6.552      857.763
02/05/2014  17:18:00     -416.940     -266.047       -5.323      242.374      227.712      129.359    58745.140    51852.903    16733.866       18.597        6.367      494.591      123.709        0.063      335.687        6.484      857.789
02/05/2014  17:19:00     -318.095      -74.008       -9.158      292.950      155.514       77.949    85819.464    24184.678     6076.000       11.139        5.804      326.591      112.655        0.119      335.676        6.466      857.816
02/05/2014  17:20:00     -492.638     -184.661      -24.235      251.566      265.625      111.809    63285.386    70556.472    12501.244       21.184        7.317      526.110      118.642        0.051      335.645        6.414      857.839
02/05/2014  17:21:00     -332.300     -179.133       -7.114      251.732      208.957      103.790    63369.037    43663.182    10772.439       13.016        5.890      377.507      117.951        0.098      335.650        6.423      857.886
02/05/2014  17:22:00     -474.268     -291.579       -2.328      244.878      195.987      107.010    59965.444    38411.045    11451.120       20.987        5.491      556.730      106.605        0.037      335.614        6.363      857.892
02/05/2014  17:23:00     -359.746     -201.243       -3.515      252.828      177.217      105.677    63922.122    31405.773    11167.542       13.819        5.325      412.209      124.635        0.091      335.643        6.412      857.920
02/05/2014  17:24:00     -291.749     -182.909      -13.994      180.736      168.328      100.840    32665.564    28334.288    10168.677        9.496        3.558      344.345       95.074        0.076      335.627        6.383      857.937
02/05/2014  17:25:00     -364.760     -149.103        5.904      275.887      209.262      111.403    76113.855    43790.617    12410.639       14.379        6.616      394.058      128.672        0.107      335.610        6.356      857.927
02/05/2014  17:26:00     -468.401     -171.059      -14.128      294.552      184.515       96.992    86760.588    34045.935     9407.407       18.952        6.511      498.659      109.053        0.048      335.605        6.348      857.921
02/05/2014  17:27:00     -428.665     -155.340      -13.157      256.754      215.742      117.347    65922.535    46544.563    13770.375       16.713        6.312      455.944      123.185        0.073      335.608        6.353      857.893
02/05/2014  17:28:00     -384.658      -49.500      -13.306      209.845      145.454       96.408    44034.814    21156.748     9294.589       11.253        3.724      387.830      110.159        0.081      335.557        6.266      857.912
02/05/2014  17:29:00     -320.927     -157.840      -14.595      196.225      129.092       86.500    38504.195    16664.760     7482.334        9.538        3.133      357.642       88.083        0.061      335.533        6.226      857.906
02/05/2014  17:30:00     -285.149     -193.875        5.729      167.850      128.259       91.129    28173.781    16450.440     8304.487        8.592        2.646      344.815       86.133        0.062      335.524        6.213      857.908
02/05/2014  17:31:00     -288.576     -131.185       -0.306      221.625      148.438       77.080    49117.591    22033.829     5941.274        8.878        3.855      316.995       80.924        0.065      335.527        6.217      857.893
02/05/2014  17:32:00     -295.806     -182.779      -13.696      190.087      104.131       71.604    36133.211    10843.318     5127.173        8.659        2.605      347.720       82.580        0.056      335.524        6.214      857.889
02/05/2014  17:33:00     -363.748     -125.097      -23.758      144.440      128.493       65.296    20862.770    16510.405     4263.508        9.507        2.082      384.658       68.114        0.031      335.497        6.167      857.909
02/05/2014  17:34:00     -339.215     -124.042       -4.995      178.528      146.184       97.168    31872.309    21369.799     9441.532        9.657        3.134      361.183      100.045        0.077      335.498        6.171      857.924
02/05/2014  17:35:00     -402.368     -142.879      -18.128      224.189      182.082      118.529    50260.784    33154.029    14049.192       14.004        4.873      426.983      125.520        0.086      335.494        6.161      857.921
02/05/2014  17:36:00     -378.367     -258.135       -8.466      164.674      186.502       88.930    27117.538    34782.811     7908.477       13.983        3.490      458.034       88.039        0.037      335.540        6.238      857.956
02/05/2014  17:37:00     -338.132     -224.002      -10.583      234.757      169.719       96.044    55110.960    28804.424     9224.487       12.887        4.657      405.599      116.308        0.082      335.559        6.271      857.980
02/05/2014  17:38:00     -490.345     -208.793      -37.542      241.304      199.995      100.198    58227.460    39998.195    10039.675       19.684        5.413      532.948      107.846        0.041      335.567        6.284      857.980
02/05/2014  17:39:00     -383.654      -90.870       -1.600      244.623      212.253      103.868    59840.336    45051.333    10788.600       13.555        5.784      394.268      124.528        0.100      335.567        6.284      857.976
02/05/2014  17:40:00     -475.556     -229.967      -17.490      249.377      151.419      100.773    62188.645    22927.644    10155.241       18.729        4.764      528.241      134.576        0.065      335.566        6.282      857.988
02/05/2014  17:41:00     -485.543     -173.188      -32.586      176.192      184.505       92.030    31043.543    34041.916     8469.453       17.017        3.678      515.505       70.025        0.018      335.573        6.295      857.977
02/05/2014  17:42:00     -592.483     -369.804      -22.991      261.129      225.922      104.839    68188.226    51040.562    10991.295       30.925        6.511      698.421      116.945        0.028      335.526        6.215      857.962
02/05/2014  17:43:00     -239.314      -99.253       -3.860      185.533      137.091       69.829    34422.324    18794.028     4876.101        6.261        2.905      259.080       70.288        0.074      335.530        6.223      858.012
02/05/2014  17:44:00     -323.171      -27.486      -18.412      146.734      109.517       67.498    21530.961    11993.989     4556.035        7.180        1.904      324.337       73.496        0.051      335.448        6.084      858.026
02/05/2014  17:45:00     -377.057     -101.979      -30.888      111.848      128.061       57.738    12509.964    16399.594     3333.651        9.288        1.612      390.604       54.448        0.019      335.416        6.032      858.038
02/05/2014  17:46:00     -210.933      -52.603        0.733      110.725      114.669       58.241    12259.973    13149.051     3392.019        3.803        1.440      217.393       54.894        0.064      335.403        6.012      858.029
02/05/2014  17:47:00     -439.519     -154.515      -29.554      166.262      137.096       81.289    27642.991    18795.331     6607.873       13.548        2.652      465.888       87.825        0.036      335.438        6.069      858.006
02/05/2014  17:48:00     -364.235      -32.043      -19.094      162.888      107.343       66.448    26532.636    11522.416     4415.305        8.826        2.124      365.642       64.899        0.032      335.376        5.965      858.009
02/05/2014  17:49:00     -421.551      -75.876      -34.324      138.984      152.007       57.302    19316.623    23106.182     3283.484       11.517        2.285      428.326       44.246        0.011      335.337        5.900      858.009
02/05/2014  17:50:00     -393.222      -96.202      -26.363      130.114      144.330       70.010    16929.738    20831.052     4901.363       10.361        2.133      404.819       69.677        0.030      335.276        5.797      858.053
02/05/2014  17:51:00     -392.955     -123.700      -20.270      162.902      138.137       72.445    26536.976    19081.935     5248.330       11.049        2.543      411.965       74.228        0.032      335.264        5.779      858.063
02/05/2014  17:52:00     -269.900      -54.847      -12.276      152.047      120.279       69.768    23118.152    14467.114     4867.554        5.922        2.123      275.416       69.273        0.063      335.234        5.729      858.092
02/05/2014  17:53:00     -328.984      -86.713       -2.389      164.128      122.954       76.384    26938.100    15117.575     5834.466        8.181        2.395      340.220       63.959        0.035      335.241        5.739      858.096
02/05/2014  17:54:00     -488.705     -126.368       -6.945      179.810      147.869       86.371    32331.559    21865.187     7460.008       15.824        3.083      504.779       93.856        0.035      335.256        5.764      858.069
02/05/2014  17:55:00     -469.263      -97.161      -32.134      163.838      120.484       87.611    26842.914    14516.434     7675.742       13.985        2.452      479.216       84.708        0.031      335.214        5.697      858.079
02/05/2014  17:56:00     -352.980      -42.983      -10.206      115.835       97.597       53.690    13417.730     9525.223     2882.563        7.618        1.291      355.587       53.142        0.022      335.206        5.682      858.084
02/05/2014  17:57:00     -386.640      -73.893      -13.999      178.900      129.628       68.475    32005.340    16803.362     4688.888       10.431        2.675      393.638       72.803        0.034      335.217        5.700      858.056
02/05/2014  17:58:00     -371.937     -135.994       -4.385      143.196      143.161       74.793    20505.114    20495.200     5594.025       10.171        2.330      396.020       64.001        0.026      335.219        5.704      858.040
02/05/2014  17:59:00     -288.786      -81.111       -1.663      158.495      157.187       79.082    25120.679    24707.626     6253.988        7.302        2.804      299.961       80.223        0.072      335.207        5.683      858.070
02/05/2014  18:00:00     -336.241      -10.455       -5.781      183.122      109.967       67.927    33533.511    12092.843     4614.045        8.171        2.512      336.404       86.818        0.067      335.189        5.656      858.091
02/05/2014  18:01:00     -377.181     -186.881       -7.088      187.153      143.875       79.817    35026.311    20700.146     6370.717       11.966        3.105      420.940       80.167        0.036      335.174        5.630      858.082
02/05/2014  18:02:00     -468.950     -164.584       -5.210      215.280      141.208       86.640    46345.354    19939.766     7506.417       16.040        3.690      496.993      109.662        0.049      335.170        5.625      858.107
02/05/2014  18:03:00     -532.213        0.838      -24.989      167.188      133.870       83.509    27951.870    17921.271     6973.740       16.835        2.642      532.214       82.396        0.024      335.191        5.657      858.113
02/05/2014  18:04:00     -344.364      -78.681      -16.695      161.872      100.012       56.712    26202.404    10002.397     3216.207        8.223        1.971      353.238       63.558        0.032      335.198        5.669      858.134
02/05/2014  18:05:00     -309.137     -197.919       -6.999      180.131      161.877       85.728    32447.227    26204.108     7349.282       10.038        3.300      367.066       86.518        0.056      335.223        5.711      858.122
02/05/2014  18:06:00     -405.441      -15.840      -33.509      189.608      128.183       76.271    35951.154    16430.758     5817.335       11.197        2.910      405.750       86.395        0.045      335.213        5.695      858.140
02/05/2014  18:07:00     -467.092     -147.999      -10.189      167.018      154.087       78.599    27894.851    23742.714     6177.864       14.899        2.891      489.978       87.759        0.032      335.167        5.619      858.126
02/05/2014  18:08:00     -412.238       17.509      -33.867      110.844      131.990       70.817    12286.473    17421.460     5015.055       10.305        1.736      412.609       62.402        0.023      335.133        5.564      858.135
02/05/2014  18:09:00     -449.681      -34.357      -26.151      154.647      118.466       86.337    23915.828    14034.307     7454.065       12.473        2.270      450.992       91.131        0.041      335.122        5.544      858.153
02/05/2014  18:10:00     -370.759     -194.598       -1.585      205.293      143.145       85.007    42145.403    20490.477     7226.203       12.259        3.493      418.725       84.887        0.041      335.112        5.528      858.163
02/05/2014  18:11:00     -432.529      -98.775       -7.378      158.669      163.632       81.969    25175.755    26775.325     6718.910       12.777        2.933      443.664       72.237        0.027      335.093        5.496      858.155
02/05/2014  18:12:00     -374.014     -107.279        1.969      193.445      149.877       83.936    37420.872    22463.028     7045.199       10.915        3.346      389.095       89.964        0.053      335.089        5.490      858.180
02/05/2014  18:13:00     -350.722       -9.350      -13.449      177.809      143.111       72.238    31616.008    20480.640     5218.328        9.028        2.866      350.846       71.723        0.042      335.115        5.534      858.225
02/05/2014  18:14:00     -320.665        7.204      -13.755      141.716      167.082       81.201    20083.371    27916.387     6593.554        7.882        2.730      320.745       78.035        0.059      335.117        5.538      858.250
02/05/2014  18:15:00     -314.253     -104.053       -6.007      202.731      139.114       66.323    41099.757    19352.810     4398.713        8.722        3.243      331.032       66.210        0.040      335.125        5.550      858.255
02/05/2014  18:16:00     -394.458       21.201      -27.891      212.244      112.892       73.068    45047.614    12744.516     5338.875       10.997        3.157      395.028       66.390        0.028      335.124        5.550      858.241
02/05/2014  18:17:00     -123.422       -8.190       18.351      162.965      110.719       80.417    26557.660    12258.616     6466.832        3.045        2.264      123.694       91.557        0.548      335.159        5.606      858.241
02/05/2014  18:18:00     -247.948      -40.830       -7.888      185.295      109.741       57.211    34334.381    12043.100     3273.094        5.642        2.483      251.287       75.096        0.089      335.120        5.542      858.246
02/05/2014  18:19:00     -539.315     -177.649      -25.630      236.696      148.243       92.438    56024.793    21976.048     8544.711       20.480        4.327      567.821       90.291        0.025      335.086        5.485      858.182
02/05/2014  18:20:00     -350.532      -67.080      -11.520      167.009      133.113       81.671    27891.844    17719.161     6670.110        8.988        2.614      356.893       85.589        0.058      335.068        5.455      858.201
02/05/2014  18:21:00     -612.701      -84.415      -26.279      247.329      198.218       97.014    61171.679    39290.406     9411.656       24.653        5.494      618.489      109.556        0.031      335.087        5.486      858.174
02/05/2014  18:22:00     -357.076     -114.000       -1.517      270.833      146.498       86.355    73350.397    21461.755     7457.106       12.137        5.113      374.832      110.798        0.087      335.106        5.518      858.176
02/05/2014  18:23:00     -180.353     -151.837       32.745      205.383      176.233      105.368    42182.264    31058.220    11102.359        7.048        4.217      235.757      131.135        0.309      335.128        5.555      858.164
02/05/2014  18:24:00     -293.481      -42.198      -12.779      224.970      120.326       82.958    50611.672    14478.386     6881.968        8.001        3.599      296.499      103.881        0.123      335.127        5.553      858.164
02/05/2014  18:25:00     -374.339      -83.972      -12.624      241.451      164.285       88.257    58298.752    26989.443     7789.278       12.019        4.654      383.642       97.771        0.065      335.126        5.550      858.163
02/05/2014  18:26:00     -219.393      -74.186       -5.766      115.287      117.811       65.678    13291.162    13879.499     4313.646        4.257        1.574      231.596       47.723        0.042      335.117        5.535      858.127
02/05/2014  18:27:00     -239.558     -189.459      -11.322      148.855      120.758       71.449    22157.958    14582.554     5104.928        6.762        2.092      305.422       68.681        0.051      335.112        5.530      858.125
02/05/2014  18:28:00     -198.464      -86.405      -10.355      170.241      131.793       70.496    28982.044    17369.463     4969.695        4.913        2.566      216.457       55.053        0.065      335.100        5.509      858.127
02/05/2014  18:29:00     -227.537      -60.588       20.113      166.093      117.942       90.839    27587.009    13910.418     8251.704        5.279        2.487      235.466       99.740        0.179      335.075        5.467      858.115
02/05/2014  18:30:00     -248.459     -120.664       -5.532      125.527      134.134       69.308    15756.968    17991.925     4803.661        5.743        1.928      276.210       62.521        0.051      335.082        5.478      858.123
02/05/2014  18:31:00     -285.701     -150.498      -13.426      167.585      136.222       70.541    28084.839    18556.316     4975.972        7.803        2.581      322.916       58.730        0.033      335.078        5.471      858.144
02/05/2014  18:32:00     -429.837     -100.622      -28.485      173.502      158.270       81.915    30103.098    25049.537     6710.056       12.877        3.093      441.457       80.769        0.033      335.094        5.499      858.130
02/05/2014  18:33:00     -397.481     -180.645      -32.451      177.264      146.806       90.412    31422.617    21552.000     8174.405       12.640        3.057      436.605       95.065        0.047      335.097        5.504      858.130
02/05/2014  18:34:00     -265.847      -94.804       -9.709      182.289      121.104       70.195    33229.291    14666.230     4927.276        6.628        2.641      282.245       78.261        0.077      335.068        5.456      858.157
02/05/2014  18:35:00     -379.192      -29.315      -28.442      189.470      154.146       86.095    35898.888    23761.035     7412.409       10.625        3.354      380.324       78.633        0.043      335.072        5.463      858.156
02/05/2014  18:36:00     -366.326      -94.443       -2.453      191.668      179.341       87.566    36736.729    32163.157     7667.863       10.983        3.828      378.305      101.062        0.071      335.041        5.410      858.140
02/05/2014  18:37:00     -609.831     -231.185      -33.943      210.194      208.723      103.507    44181.442    43565.457    10713.677       26.246        4.923      652.181      113.872        0.030      335.084        5.481      858.165
02/05/2014  18:38:00     -522.728     -179.846      -30.904      219.379      166.807       88.866    48127.002    27824.581     7897.210       19.518        4.192      552.801       91.609        0.027      335.111        5.526      858.187
02/05/2014  18:39:00     -489.928     -105.577      -14.965      230.713      190.381       93.475    53228.417    36244.738     8737.621       17.479        4.911      501.175      111.668        0.050      335.118        5.538      858.205
02/05/2014  18:40:00     -238.514     -189.831       -4.032      190.094      157.843       91.564    36135.903    24914.330     8383.892        8.118        3.472      304.836      101.486        0.111      335.150        5.592      858.236
02/05/2014  18:41:00     -366.427     -184.221      -22.210      185.210      149.016       87.888    34302.597    22205.821     7724.387       11.646        3.212      410.129       90.488        0.049      335.100        5.509      858.264
02/05/2014  18:42:00     -229.185      -33.105        0.398      160.593       87.649       68.858    25789.988     7682.319     4741.365        4.591        1.911      231.564       91.086        0.155      335.103        5.514      858.287
02/05/2014  18:43:00     -205.965       17.416        0.714      157.469      101.420       67.729    24796.600    10286.096     4587.166        4.119        1.983      206.700       67.717        0.107      335.075        5.468      858.308
02/05/2014  18:44:00     -448.673      -88.235      -21.891      202.532      181.167       96.688    41019.281    32821.487     9348.516       14.637        4.159      457.267       88.373        0.037      335.039        5.407      858.301
02/05/2014  18:45:00     -439.990     -176.823       -3.362      196.847      177.732       94.137    38748.557    31588.697     8861.841       15.202        3.960      474.191      106.518        0.050      335.030        5.392      858.321
02/05/2014  18:46:00     -386.359     -122.138      -10.918      167.773      138.959       74.319    28147.673    19309.714     5523.248       10.864        2.649      405.204       69.133        0.029      335.029        5.390      858.308
02/05/2014  18:47:00     -539.252      -12.099      -38.163      201.928      145.105       78.112    40775.033    21055.546     6101.535       18.015        3.397      539.387       93.596        0.030      335.028        5.388      858.303
02/05/2014  18:48:00     -384.437      -83.764      -22.745      163.061      148.102       78.311    26588.940    21934.055     6132.597       10.498        2.733      393.457       80.802        0.042      335.020        5.374      858.298
02/05/2014  18:49:00     -426.916     -188.146      -14.833      179.776      115.360       88.694    32319.399    13307.859     7866.558       13.568        2.675      466.537       67.364        0.021      335.009        5.357      858.269
02/05/2014  18:50:00     -485.288      -86.494      -33.537      150.277      155.612       76.560    22583.275    24215.097     5861.433       14.838        2.633      492.936       73.378        0.022      334.973        5.298      858.268
02/05/2014  18:51:00     -581.937      -74.999      -31.007      198.361      168.438       86.115    39347.037    28371.387     7415.736       21.017        3.757      586.750       93.853        0.026      334.966        5.284      858.268
02/05/2014  18:52:00     -428.308     -104.613        8.839      226.447      135.197       87.817    51278.319    18278.291     7711.908       13.586        3.863      440.899       94.659        0.046      334.963        5.280      858.272
02/05/2014  18:53:00     -495.920     -163.024      -25.571      186.404      150.236       84.459    34746.605    22570.840     7133.358       16.880        3.223      522.028       88.071        0.028      334.975        5.301      858.290
02/05/2014  18:54:00     -328.676       -6.880       -4.939      195.455      142.755       85.739    38202.763    20378.895     7351.193        8.701        3.297      328.748       99.597        0.092      334.976        5.302      858.302
02/05/2014  18:55:00     -395.663      -18.291      -22.348      135.492      157.118       65.141    18357.983    24685.991     4243.326       10.233        2.364      396.086       54.717        0.019      334.939        5.240      858.250
02/05/2014  18:56:00     -218.426        8.337       11.266      155.344       96.696       69.242    24131.733     9350.123     4794.499        4.308        1.914      218.585       71.095        0.106      334.947        5.254      858.226
02/05/2014  18:57:00     -433.168       10.191      -28.650      154.857      118.206       74.634    23980.768    13972.579     5570.184       11.603        2.176      433.288       77.463        0.032      334.921        5.210      858.216
02/05/2014  18:58:00     -334.991      -97.057       -5.695      203.062      144.641       87.525    41234.029    20921.096     7660.599        9.573        3.491      348.767      107.020        0.094      334.929        5.223      858.224
02/05/2014  18:59:00     -441.750      -78.080      -30.516      147.146      165.186       73.062    21652.051    27286.489     5338.109       12.821        2.714      448.597       64.134        0.020      334.931        5.229      858.205
02/05/2014  19:00:00     -484.008     -142.775      -18.408      194.511      179.547       78.715    37834.633    32237.082     6196.115       16.562        3.813      504.627       94.078        0.035      334.935        5.233      858.191
02/05/2014  19:01:00     -487.349      -96.249      -27.706      158.986      160.125       85.437    25276.668    25639.916     7299.474       15.287        2.911      496.762       90.153        0.033      334.929        5.225      858.195
02/05/2014  19:02:00     -606.325      -39.343      -39.547      176.748      164.154       86.351    31239.929    26946.424     7456.435       21.818        3.282      607.600       81.526        0.018      334.926        5.219      858.194
02/05/2014  19:03:00     -525.604      -73.774      -14.159      189.692      151.233       87.835    35983.099    22871.287     7714.947       17.422        3.328      530.756       99.313        0.035      334.942        5.246      858.202
02/05/2014  19:04:00     -362.118      -92.704       -8.894      192.905      156.988       77.151    37212.159    24645.276     5952.349       10.379        3.390      373.796      101.966        0.074      334.987        5.320      858.218
02/05/2014  19:05:00     -156.130       33.830       16.967      139.910      134.568       66.932    19574.861    18108.537     4479.860        3.398        2.108      159.754       77.304        0.234      335.001        5.345      858.193
02/05/2014  19:06:00     -388.823      -87.926      -12.735      232.500      136.262       85.702    54056.206    18567.386     7344.838       11.951        3.998      398.641       80.047        0.040      334.975        5.301      858.170
02/05/2014  19:07:00     -487.715       40.994      -13.657      206.849      165.868       79.234    42786.424    27512.285     6277.954       15.814        3.829      489.435       86.931        0.032      334.946        5.251      858.143
02/05/2014  19:08:00     -343.259      -68.657       -0.376      194.719      141.862       97.866    37915.533    20124.808     9577.831        9.507        3.381      350.058       99.462        0.081      334.947        5.253      858.122
02/05/2014  19:09:00     -477.324      -85.333      -18.656      192.047      129.333       96.722    36881.891    16726.898     9355.147       14.921        3.148      484.892      105.250        0.047      334.945        5.249      858.147
02/05/2014  19:10:00     -511.119     -160.154      -11.727      227.524      157.403       95.413    51767.011    24775.677     9103.600       18.632        4.282      535.623      109.791        0.042      334.948        5.255      858.166
02/05/2014  19:11:00     -502.042     -145.097       -3.876      234.730      173.215       91.203    55097.955    30003.549     8317.922       18.325        4.671      522.589      108.595        0.043      334.945        5.251      858.175
02/05/2014  19:12:00     -441.626      -96.032      -27.446      189.054      172.693       83.839    35741.439    29822.968     7029.016       13.879        3.630      451.946       85.745        0.036      334.954        5.265      858.187
02/05/2014  19:13:00     -493.595      -12.045      -22.309      254.398      125.011       92.359    64718.525    15627.826     8530.221       16.656        4.444      493.742      111.024        0.051      334.953        5.263      858.203
02/05/2014  19:14:00     -537.944      -29.386      -31.319      187.024      162.490       74.209    34977.874    26402.855     5506.997       17.905        3.344      538.746       78.141        0.021      334.952        5.262      858.203
02/05/2014  19:15:00     -495.372     -136.383       -7.822      235.372      187.701       91.585    55399.745    35231.824     8387.731       18.152        4.951      513.804      113.340        0.049      334.943        5.248      858.192
02/05/2014  19:16:00     -533.297      -62.007      -25.584      226.465      124.621       83.458    51286.564    15530.455     6965.194       18.133        3.689      536.890      106.135        0.039      334.950        5.258      858.197
02/05/2014  19:17:00     -665.418     -124.193      -47.109      313.344      163.824       86.063    98184.718    26838.326     7406.827       29.640        6.621      676.908      124.495        0.034      334.961        5.278      858.166
02/05/2014  19:18:00     -464.954      -17.032      -39.566      197.687      139.513       75.639    39080.177    19463.752     5721.237       14.114        3.213      465.266       91.632        0.039      334.946        5.251      858.148
02/05/2014  19:19:00     -386.516      -70.230      -13.186      181.952      164.623       90.126    33106.427    27100.696     8122.669       11.140        3.416      392.845       87.792        0.050      334.949        5.255      858.122
02/05/2014  19:20:00     -447.698      -60.796      -30.400      249.395      142.138       88.748    62197.883    20203.101     7876.174       14.765        4.514      451.807       91.841        0.041      334.943        5.247      858.091
02/05/2014  19:21:00     -515.738     -172.260      -26.283      175.245      159.889       81.004    30710.896    25564.348     6561.671       17.958        3.142      543.746       85.874        0.025      334.925        5.218      858.090
02/05/2014  19:22:00     -521.803      -87.940      -26.756      186.872      165.317       76.301    34921.163    27329.828     5821.899       17.439        3.404      529.161       88.166        0.028      334.942        5.244      858.094
02/05/2014  19:23:00     -476.428      -54.072      -31.422      227.438      150.463       87.153    51728.209    22639.107     7595.586       15.642        4.098      479.487      103.350        0.046      334.974        5.299      858.077
02/05/2014  19:24:00     -520.518      -41.896      -32.075      241.459      178.095       89.782    58302.431    31717.710     8060.887       18.589        4.904      522.202      101.044        0.037      335.013        5.363      858.048
02/05/2014  19:25:00     -492.670     -122.258      -23.981      182.482      141.348       92.090    33299.631    19979.203     8480.550       15.999        3.088      507.613       97.326        0.037      335.002        5.345      858.024
02/05/2014  19:26:00     -407.070      -42.412      -14.765      213.260      173.370       96.352    45479.799    30057.093     9283.734       12.626        4.241      409.274       80.807        0.039      335.013        5.365      858.008
02/05/2014  19:27:00     -511.992      -54.633      -25.694      182.192      158.944       84.173    33193.902    25263.150     7085.112       16.565        3.277      514.899       96.027        0.035      335.034        5.399      858.010
02/05/2014  19:28:00     -555.557     -147.468      -16.947      225.685      172.970      103.796    50933.761    29918.730    10773.545       21.114        4.581      574.796      106.201        0.034      335.026        5.385      858.003
02/05/2014  19:29:00     -477.627     -124.756      -35.501      204.153      148.535       93.441    41678.251    22062.650     8731.146       15.870        3.624      493.652      100.226        0.041      335.090        5.492      857.997
02/05/2014  19:30:00     -346.822     -100.780       -2.360      194.615      151.635       92.125    37875.020    22993.310     8486.958        9.989        3.468      361.167       97.852        0.073      335.113        5.529      858.007
02/05/2014  19:31:00     -486.698      -89.314      -29.711      181.806      164.330       81.267    33053.360    27004.252     6604.254       15.619        3.333      494.825       85.535        0.030      335.056        5.434      858.027
02/05/2014  19:32:00     -444.651      -59.597      -23.439      190.391      161.291       83.026    36248.915    26014.833     6893.315       13.547        3.458      448.627       89.292        0.040      334.990        5.325      858.017
02/05/2014  19:33:00     -422.235      -90.017      -23.797      231.329      162.994       79.643    53513.052    26566.901     6343.017       13.667        4.321      431.724       94.715        0.048      334.962        5.277      857.988
02/05/2014  19:34:00     -513.101     -119.542      -37.162      158.595      122.421       75.638    25152.275    14986.819     5721.106       16.239        2.293      526.843       76.429        0.021      334.942        5.245      857.980
02/05/2014  19:35:00     -679.971     -122.495      -41.986      250.316      173.997       96.149    62657.956    30274.902     9244.593       29.064        5.109      690.916       98.062        0.020      334.920        5.207      857.974
02/05/2014  19:36:00     -519.147     -151.746      -24.285      207.003      206.399       91.004    42850.242    42600.509     8281.688       19.342        4.687      540.870       92.848        0.029      334.924        5.215      857.968
02/05/2014  19:37:00     -472.404       26.662      -20.667      224.165      143.896       95.281    50249.983    20706.133     9078.522       15.216        4.002      473.155      107.322        0.051      334.949        5.257      857.994
02/05/2014  19:38:00     -549.962      -92.502      -14.688      199.867      204.977       96.754    39946.860    42015.599     9361.341       20.126        4.566      557.687       99.415        0.032      334.938        5.238      858.049
02/05/2014  19:39:00     -437.224      -97.881       -6.473      235.142      140.468       93.391    55291.625    19731.378     8721.807       14.225        4.187      448.046      110.813        0.061      334.916        5.202      858.079
02/05/2014  19:40:00     -391.148      -64.524       -5.181      211.902      151.464       99.899    44902.418    22941.417     9979.824       11.749        3.891      396.434      117.380        0.088      334.884        5.148      858.134
02/05/2014  19:41:00     -432.287      -89.735      -11.737      207.016      180.811       92.214    42855.739    32692.635     8503.377       13.954        4.203      441.502       92.424        0.044      334.850        5.091      858.177
02/05/2014  19:42:00     -488.599     -167.074       -9.709      201.297      127.969       87.293    40520.440    16376.051     7620.120       16.562        3.226      516.375       90.460        0.031      334.856        5.100      858.199
02/05/2014  19:43:00     -401.732      -64.448      -10.827      138.473      156.526       67.460    19174.669    24500.391     4550.803       10.693        2.411      406.869       66.871        0.027      334.826        5.053      858.235
02/05/2014  19:44:00     -360.870     -151.783       -4.509      207.906      163.028       88.437    43224.804    26578.121     7821.053       11.544        3.881      391.491      101.236        0.067      334.828        5.056      858.244
02/05/2014  19:45:00     -484.219      -61.455      -12.368      186.496      128.630       70.108    34780.684    16545.724     4915.194       14.731        2.812      488.103       72.608        0.022      334.783        4.980      858.233
02/05/2014  19:46:00     -217.588      -44.760        0.730      119.637      100.477       54.621    14313.091    10095.598     2983.500        3.837        1.370      222.144       61.528        0.077      334.793        4.999      858.227
02/05/2014  19:47:00     -298.150       26.436        0.128      147.012      111.160       67.872    21612.516    12356.554     4606.578        6.408        1.929      299.320       63.962        0.046      334.781        4.977      858.194
02/05/2014  19:48:00     -511.852       19.928      -56.651      191.723      126.562       67.523    36757.773    16017.909     4559.331       16.146        2.867      512.240       78.194        0.023      334.779        4.973      858.159
02/05/2014  19:49:00     -463.720      -83.378      -36.432      144.222      134.757       68.713    20800.037    18159.515     4721.464       13.349        2.184      471.156       63.256        0.018      334.782        4.978      858.103
02/05/2014  19:50:00     -426.915      -45.013      -49.962      164.346      126.791       64.097    27009.602    16076.048     4108.366       11.698        2.360      429.281       46.227        0.012      334.775        4.966      858.111
02/05/2014  19:51:00     -537.038     -174.723      -20.897      252.050      185.790       98.625    63529.288    34517.851     9726.936       21.356        5.389      564.746      111.150        0.039      334.784        4.981      858.092
02/05/2014  19:52:00     -504.175     -153.285      -18.268      159.032      130.694       81.573    25291.276    17080.994     6654.147       16.352        2.451      526.962       81.717        0.024      334.792        4.995      858.129
02/05/2014  19:53:00     -445.975     -120.756      -19.963      149.938      174.170       80.419    22481.315    30335.269     6467.239       13.657        2.964      462.034       70.118        0.023      334.779        4.974      858.101
02/05/2014  19:54:00     -329.495      -97.971       14.065      196.293      161.720       92.784    38530.993    26153.448     8608.961        9.582        3.665      343.751      104.333        0.092      334.805        5.017      858.088
02/05/2014  19:55:00     -465.859      -33.161      -16.586      208.846      198.871       91.712    43616.813    39549.798     8411.031       15.497        4.579      467.038       99.878        0.046      334.825        5.051      858.071
02/05/2014  19:56:00     -346.922      -61.822      -28.570      147.525      115.031       80.556    21763.652    13232.028     6489.304        8.323        2.074      352.387       72.021        0.042      334.843        5.080      858.039
02/05/2014  19:57:00     -479.260      -91.977       -9.737      173.514      190.214       79.096    30107.146    36181.523     6256.183       15.538        3.627      488.006       80.797        0.027      334.817        5.038      858.049
02/05/2014  19:58:00     -358.497       -8.422      -21.690      191.785      145.639       87.763    36781.332    21210.575     7702.391        9.737        3.285      358.596       97.682        0.074      334.825        5.049      858.033
02/05/2014  19:59:00     -448.891      -17.531      -22.946      178.686      167.957       92.049    31928.516    28209.703     8473.034       13.546        3.431      449.233       97.631        0.047      334.835        5.066      858.021
02/05/2014  20:00:00     -347.809     -110.982       -4.173      245.385      134.040       84.821    60214.031    17966.779     7194.614       10.933        4.269      365.087      114.437        0.098      334.872        5.128      858.026
02/05/2014  20:01:00     -554.437       19.429      -44.113      195.868      153.151       84.098    38364.267    23455.303     7072.485       18.930        3.445      554.777       88.414        0.025      334.838        5.072      858.044
02/05/2014  20:02:00     -447.253      -76.722      -18.773      178.513      153.611       81.879    31866.840    23596.480     6704.104       13.421        3.108      453.786       79.728        0.031      334.819        5.041      858.045
02/05/2014  20:03:00     -347.688     -116.888        1.140      184.693      145.459       79.869    34111.605    21158.307     6379.132        9.809        3.082      366.810       93.043        0.064      334.835        5.067      858.029
02/05/2014  20:04:00     -368.458      -46.448       -6.360      174.738      119.946       82.999    30533.213    14386.990     6888.825        9.488        2.590      371.374       82.730        0.050      334.841        5.077      858.059
02/05/2014  20:05:00     -410.620      -75.126      -12.176      180.017      136.548       84.282    32406.035    18645.441     7103.438       11.627        2.908      417.436       83.147        0.040      334.842        5.079      858.067
02/05/2014  20:06:00     -542.623      -60.455      -25.340      161.307      147.114       83.032    26019.794    21642.564     6894.293       17.664        2.728      545.981       76.129        0.019      334.843        5.079      858.069
02/05/2014  20:07:00     -628.252      -77.532      -21.904      209.463      152.447       97.330    43874.700    23240.190     9473.153       23.888        3.829      633.018       96.761        0.023      334.845        5.082      858.073
02/05/2014  20:08:00     -472.600      -49.609      -36.206      203.341      142.724       81.854    41347.388    20370.057     6700.074       14.776        3.421      475.197       96.430        0.041      334.820        5.041      858.085
02/05/2014  20:09:00     -348.709       38.498      -18.088      204.303      121.666       62.659    41739.876    14802.557     3926.180        9.193        3.023      350.827       68.882        0.039      334.837        5.070      858.092
02/05/2014  20:10:00     -320.216      -76.023       -8.791      122.066       94.475       57.182    14900.203     8925.528     3269.802        6.774        1.355      329.117       58.848        0.032      334.819        5.042      858.093
02/05/2014  20:11:00     -308.494     -110.435      -19.019      162.567      165.127       79.090    26427.936    27266.933     6255.280        8.383        2.998      327.666       86.945        0.070      334.820        5.042      858.072
02/05/2014  20:12:00     -462.596     -176.718       -6.184      195.794      189.562       90.030    38335.407    35933.674     8105.420       16.380        4.119      495.201       94.043        0.036      334.820        5.042      858.062
02/05/2014  20:13:00     -356.898      -88.148      -22.004      148.240      129.554       58.337    21975.102    16784.271     3403.244        8.889        2.108      367.623       69.298        0.036      334.841        5.076      858.049
02/05/2014  20:14:00     -326.492      -14.913       -7.550      185.060      135.886       78.675    34247.299    18465.094     6189.785        8.288        2.945      326.832       90.558        0.077      334.829        5.057      858.052
02/05/2014  20:15:00     -391.571       10.892      -15.290      169.151      157.002       83.670    28612.111    24649.557     7000.735       10.696        3.013      391.723       76.326        0.038      334.810        5.025      858.049
02/05/2014  20:16:00     -232.561      -75.890      -12.252      149.506      111.837       68.899    22352.087    12507.575     4747.128        4.979        1.980      244.630       71.818        0.086      334.834        5.064      858.047
02/05/2014  20:17:00     -276.039     -121.017       -2.853      211.376      141.993       86.060    44679.760    20162.049     7406.238        8.154        3.612      301.401       99.807        0.110      334.843        5.079      858.062
02/05/2014  20:18:00     -441.304      -43.450      -24.517      210.384      138.090       72.509    44261.333    19068.843     5257.615       13.290        3.429      443.438       56.846        0.016      334.813        5.029      858.058
02/05/2014  20:19:00     -304.194      -95.162        1.101      165.997      159.984       80.667    27554.842    25594.734     6507.201        8.061        2.983      318.731       98.193        0.095      334.814        5.032      858.067
02/05/2014  20:20:00     -272.713     -129.827       -7.631      206.757      130.465       89.367    42748.418    17021.233     7986.446        7.951        3.388      302.039       98.346        0.106      334.832        5.061      858.057
02/05/2014  20:21:00     -385.695      -96.911      -24.028      161.797      117.678       79.230    26178.320    13848.148     6277.458       10.251        2.315      397.684       90.213        0.051      334.825        5.052      858.059
02/05/2014  20:22:00     -358.708      -32.734      -22.446      156.699      148.858       71.898    24554.605    22158.582     5169.272        9.106        2.594      360.198       71.487        0.039      334.830        5.058      858.074
02/05/2014  20:23:00     -218.658      -42.105       -4.084      140.487      138.419       82.852    19736.462    19159.950     6864.455        4.767        2.288      222.675       86.231        0.150      334.846        5.084      858.047
02/05/2014  20:24:00     -316.843     -126.647        0.047      197.271      144.787       79.724    38915.780    20963.338     6355.943        9.132        3.312      341.217       84.080        0.061      334.839        5.074      858.043
02/05/2014  20:25:00     -410.337     -121.505      -23.483      173.659      115.212       71.193    30157.426    13273.859     5068.437       11.609        2.425      427.948       70.164        0.027      334.831        5.059      858.022
02/05/2014  20:26:00     -265.366      -97.006        3.145      183.244       99.017       67.124    33578.382     9804.328     4505.588        6.386        2.394      282.540       56.096        0.039      334.834        5.066      858.054
02/05/2014  20:27:00     -309.147      -73.597      -16.628      139.464      147.799       82.857    19450.320    21844.676     6865.278        7.470        2.408      317.787       68.702        0.047      334.848        5.089      858.044
02/05/2014  20:28:00     -569.892      -75.959      -21.228      216.721      144.887       93.505    46968.089    20992.277     8743.260       20.384        3.835      574.932      101.969        0.031      334.826        5.052      858.034
02/05/2014  20:29:00     -466.439     -156.200      -20.873      171.186      114.339       78.704    29304.750    13073.329     6194.375       14.548        2.429      491.898       65.072        0.018      334.824        5.049      858.030
02/05/2014  20:30:00     -441.396     -165.047      -15.930      175.596      187.873       80.025    30834.044    35296.327     6404.043       14.742        3.627      471.244       86.430        0.034      334.811        5.027      858.040
02/05/2014  20:31:00     -431.718        9.383      -38.740      188.440      118.162       71.479    35509.762    13962.356     5109.307       12.127        2.729      431.820       84.378        0.038      334.818        5.038      858.006
02/05/2014  20:32:00     -316.559      -62.282      -11.041      216.582      156.569       80.661    46907.901    24513.719     6506.128        9.106        3.896      322.628       99.678        0.095      334.835        5.068      857.996
02/05/2014  20:33:00     -261.021      -78.792      -14.531      188.783      178.298       78.959    35638.884    31790.239     6234.476        7.410        3.683      272.654       88.186        0.105      334.834        5.065      857.997
02/05/2014  20:34:00     -424.333     -150.479        1.776      220.503      174.486      104.667    48621.499    30445.505    10955.256       14.635        4.501      450.225      122.135        0.074      334.811        5.026      857.959
02/05/2014  20:35:00     -375.178      -50.864      -23.397      148.851      130.474       74.140    22156.720    17023.393     5496.756        9.428        2.234      378.611       70.009        0.034      334.792        4.995      857.958
02/05/2014  20:36:00     -422.603      -57.350       -6.426      202.298      141.905       81.144    40924.312    20137.170     6584.333       12.477        3.382      426.476       94.054        0.049      334.774        4.965      857.947
02/05/2014  20:37:00     -347.277      -74.536      -24.116      160.746      145.068       87.814    25839.147    21044.712     7711.260        9.066        2.730      355.186       77.384        0.047      334.772        4.961      857.938
02/05/2014  20:38:00     -380.237     -117.394       -9.853      240.474      157.633       87.728    57827.585    24848.169     7696.278       12.440        4.519      397.947      106.797        0.072      334.767        4.954      857.923
02/05/2014  20:39:00     -314.091      -60.412       -7.851      243.728      120.956       88.111    59403.538    14630.250     7763.590        9.207        4.090      319.848      113.626        0.126      334.789        4.991      857.940
02/05/2014  20:40:00     -202.176     -124.027       10.650      178.329      125.875       96.938    31801.219    15844.460     9397.004        5.670        2.852      237.187       95.259        0.161      334.804        5.016      857.937
02/05/2014  20:41:00     -295.038      -38.221       -4.294      211.864      104.835       74.415    44886.426    10990.432     5537.531        7.496        3.071      297.503      101.110        0.116      334.762        4.946      857.948
02/05/2014  20:42:00     -365.877       11.448      -25.867      110.485      127.772       63.008    12206.839    16325.600     3970.035        8.358        1.625      366.056       52.540        0.021      334.745        4.916      857.930
02/05/2014  20:43:00     -373.107     -108.592       -9.818      217.312      142.898       76.154    47224.475    20419.832     5799.393       11.226        3.672      388.588       89.480        0.053      334.755        4.933      857.907
02/05/2014  20:44:00     -340.720      -23.132       -5.650      174.038      141.679       76.693    30289.347    20072.949     5881.867        8.644        2.812      341.505       77.186        0.051      334.751        4.927      857.887
02/05/2014  20:45:00     -222.988        4.802        4.805      104.364       98.377       58.822    10891.769     9677.953     3460.020        3.690        1.201      223.040       53.016        0.057      334.743        4.914      857.894
02/05/2014  20:46:00     -327.410      -47.006       -0.965      228.774      115.684       73.951    52337.376    13382.801     5468.709        9.029        3.559      330.767       84.650        0.065      334.728        4.889      857.877
02/05/2014  20:47:00     -414.431      -71.509      -28.510      167.642      162.612       69.379    28103.843    26442.546     4813.380       11.851        2.968      420.555       79.600        0.036      334.730        4.894      857.850
02/05/2014  20:48:00     -563.267     -100.003      -17.849      206.326      138.082       84.256    42570.346    19066.731     7098.995       19.815        3.437      572.075       94.172        0.027      334.752        4.929      857.817
02/05/2014  20:49:00     -354.460     -152.511      -15.848      231.173      146.735       94.496    53441.114    21531.303     8929.439       11.651        4.195      385.877      112.898        0.086      334.764        4.951      857.784
02/05/2014  20:50:00     -490.781      -76.198      -26.665      159.903      146.575       77.738    25569.071    21484.208     6043.184       15.023        2.655      496.661       82.203        0.027      334.767        4.953      857.762
02/05/2014  20:51:00     -404.105      -31.525       -9.054      173.904      128.391       72.333    30242.611    16484.150     5232.051       10.816        2.598      405.332       67.796        0.028      334.799        5.007      857.768
02/05/2014  20:52:00     -301.094     -184.635      -24.294      145.644      156.697       64.581    21212.222    24553.968     4170.679        8.763        2.497      353.197       55.819        0.025      334.797        5.005      857.751
02/05/2014  20:53:00     -264.672      -11.908      -18.683      127.696      130.916       71.221    16306.344    17138.937     5072.487        5.452        1.926      264.940       68.056        0.066      334.787        4.985      857.764
02/05/2014  20:54:00     -156.488        2.204       17.035      170.510      132.810       64.362    29073.692    17638.485     4142.502        3.781        2.543      156.504       62.027        0.157      334.819        5.043      857.748
02/05/2014  20:55:00     -173.627     -136.800       -4.655      157.335      152.597       66.053    24754.402    23285.843     4362.980        5.063        2.620      221.044       68.085        0.095      334.810        5.028      857.740
02/05/2014  20:56:00     -184.273      -31.687        7.995      103.741      114.086       53.230    10762.295    13015.608     2833.481        3.081        1.331      186.977       53.991        0.083      334.802        5.013      857.773
02/05/2014  20:57:00     -304.665     -147.798       -9.991      187.626      160.489       90.178    35203.403    25756.706     8131.997        9.192        3.455      338.622       86.731        0.066      334.806        5.018      857.735
02/05/2014  20:58:00     -190.776      -42.727        4.379      149.431      143.382       77.168    22329.627    20558.369     5954.849        4.353        2.442      195.502       85.095        0.189      334.811        5.026      857.725
02/05/2014  20:59:00     -313.628     -121.769       -9.483      267.331      212.503      114.237    71465.809    45157.540    13050.166       12.146        6.484      336.438      137.994        0.168      334.792        4.995      857.706
02/05/2014  21:00:00     -187.851      -99.686       26.643      200.275      170.347      100.499    40109.876    29018.224    10099.984        6.257        3.961      212.663      119.239        0.314      334.817        5.037      857.703
02/05/2014  21:01:00     -477.520     -132.323      -37.915      243.220      157.413       92.406    59155.771    24778.725     8538.931       16.971        4.624      495.515      112.402        0.051      334.794        5.000      857.778
02/05/2014  21:02:00     -306.787     -130.476      -10.310      202.032      149.042       82.871    40816.906    22213.415     6867.666        9.056        3.495      333.380       95.632        0.082      334.824        5.050      857.797
02/05/2014  21:03:00     -436.146     -136.016      -19.460      195.600      194.150      103.531    38259.416    37694.265    10718.727       14.787        4.334      456.863       99.476        0.047      334.806        5.019      857.829
02/05/2014  21:04:00     -359.005     -187.834        0.681      232.346      197.084      109.461    53984.851    38842.281    11981.621       13.447        5.240      405.174      132.398        0.107      334.815        5.034      857.812
02/05/2014  21:05:00     -172.754      -87.616        5.926      164.937      117.483       72.708    27204.119    13802.314     5286.499        4.192        2.315      193.702       75.649        0.153      334.844        5.082      857.804
02/05/2014  21:06:00     -263.701     -100.592       23.158      258.015      189.805      104.400    66571.568    36025.792    10899.428        9.683        5.675      282.235      140.417        0.248      334.835        5.067      857.788
02/05/2014  21:07:00     -224.406      -50.936       -2.175      177.750      108.264       77.765    31594.894    11721.072     6047.396        5.115        2.468      230.114       81.345        0.125      334.845        5.084      857.788
02/05/2014  21:08:00     -285.297     -135.863       -4.793      201.907      181.051       94.431    40766.620    32779.296     8917.120        9.116        4.123      315.996      114.889        0.132      334.838        5.072      857.780
02/05/2014  21:09:00     -364.943     -103.180       -1.066      269.976      231.426      115.762    72887.292    53557.977    13400.752       14.182        6.992      379.249      128.748        0.115      334.830        5.059      857.802
02/05/2014  21:10:00     -438.730     -117.908       -3.510      198.948      199.625       97.360    39580.228    39850.029     9479.061       14.764        4.445      454.298      104.991        0.053      334.806        5.020      857.820
02/05/2014  21:11:00     -229.385     -102.194       16.904      203.792      203.454      107.411    41531.330    41393.487    11537.066        7.889        4.723      251.120      124.942        0.248      334.828        5.056      857.790
02/05/2014  21:12:00     -336.700     -129.987      -21.892      161.551      172.277       79.862    26098.648    29679.394     6377.947        9.644        3.108      360.921       79.486        0.049      334.809        5.024      857.774
02/05/2014  21:13:00     -356.472     -103.784       -2.002      185.121      164.039       92.376    34269.908    26908.829     8533.300       10.377        3.486      371.273       98.857        0.071      334.782        4.978      857.744
02/05/2014  21:14:00     -284.488      -90.217       -3.336      182.582      151.176       90.460    33336.209    22854.094     8182.924        7.672        3.219      298.450       77.350        0.067      334.796        5.002      857.731
02/05/2014  21:15:00     -332.017      -60.469        4.068      209.594      164.707       87.648    43929.790    27128.526     7682.116        9.631        3.937      337.479       77.158        0.052      334.791        4.993      857.708
02/05/2014  21:16:00     -122.423      -42.418       48.860      210.207      138.655      101.317    44186.799    19225.124    10265.218        4.641        3.684      129.563      111.956        0.747      334.826        5.052      857.672
02/05/2014  21:17:00     -302.450      -95.042       -5.045      232.480      146.672      103.863    54046.777    21512.649    10787.558        9.343        4.317      317.032      132.661        0.175      334.810        5.026      857.705
02/05/2014  21:18:00     -124.528      -93.327       13.668      169.014       98.590       65.843    28565.752     9720.003     4335.266        3.351        2.131      155.618       81.652        0.275      334.830        5.058      857.706
02/05/2014  21:19:00     -100.650      -72.125       14.254      170.239      112.910       69.291    28981.295    12748.567     4801.175        3.103        2.327      123.824       78.030        0.397      334.820        5.044      857.694
02/05/2014  21:20:00     -334.287     -200.324       -0.158      264.756      187.741       87.193    70095.898    35246.761     7602.533       13.239        5.647      389.715      109.347        0.079      334.804        5.016      857.658
02/05/2014  21:21:00     -332.933     -184.512      -20.132      220.912      201.743       92.274    48802.140    40700.419     8514.551       12.164        4.901      380.643      105.969        0.078      334.782        4.978      857.645
02/05/2014  21:22:00     -230.002      -42.957       12.242      234.000      122.787       80.214    54755.946    15076.717     6434.269        6.557        3.813      233.979      106.250        0.206      334.816        5.035      857.646
02/05/2014  21:23:00     -406.639     -172.072      -26.155      316.731      190.160      119.640   100318.611    36160.812    14313.847       17.320        7.540      441.548      157.878        0.128      334.783        4.980      857.624
02/05/2014  21:24:00     -375.931     -130.558       -6.946      217.257      177.123       82.614    47200.691    31372.412     6825.139       12.189        4.270      397.956       89.809        0.051      334.770        4.958      857.651
02/05/2014  21:25:00     -191.076      -69.599      -18.962      190.665      155.085       84.473    36352.962    24051.447     7135.620        5.462        3.377      203.357       79.282        0.152      334.790        4.992      857.630
02/05/2014  21:26:00     -468.711      -16.749      -38.362      205.536      176.026       85.248    42244.874    30985.203     7267.220       15.096        4.025      469.010       89.867        0.037      334.763        4.946      857.661
02/05/2014  21:27:00     -239.289       33.892       -0.864      168.427      132.165       78.082    28367.785    17467.471     6096.773        5.516        2.597      241.678       72.776        0.091      334.764        4.948      857.657
02/05/2014  21:28:00     -331.164      -84.855        3.694      220.626      149.067       97.938    48675.634    22220.983     9591.774        9.867        4.024      341.863       99.150        0.084      334.751        4.928      857.631
02/05/2014  21:29:00     -422.398      -76.038      -40.639      197.737      151.264       67.281    39099.884    22880.686     4526.720       12.617        3.325      429.188       68.479        0.025      334.752        4.928      857.640
02/05/2014  21:30:00     -291.902      -57.731       -6.874      194.834      127.901       86.425    37960.436    16358.678     7469.340        7.518        3.089      297.556       97.854        0.108      334.749        4.925      857.647
02/05/2014  21:31:00     -350.007      -73.969      -20.131      172.203      170.649       72.132    29653.818    29121.245     5203.018        9.617        3.199      357.737       65.660        0.034      334.728        4.889      857.676
02/05/2014  21:32:00     -406.955     -165.146      -42.899      192.632      156.196       84.577    37107.185    24397.274     7153.217       13.168        3.433      439.187       57.374        0.017      334.729        4.889      857.699
02/05/2014  21:33:00     -467.663      -69.290      -19.502      315.997      162.419       99.396    99853.859    26379.816     9879.487       17.998        6.806      472.768      142.503        0.091      334.741        4.909      857.717
02/05/2014  21:34:00     -350.018     -128.090      -23.360      174.936      175.339       92.014    30602.509    30743.801     8466.592       10.463        3.491      372.719       92.905        0.062      334.739        4.908      857.727
02/05/2014  21:35:00     -515.188     -117.013      -23.562      166.989      190.514       92.169    27885.382    36295.590     8495.179       17.616        3.634      528.309       92.013        0.030      334.724        4.881      857.735
02/05/2014  21:36:00     -243.852      -79.445      -14.152      156.913      141.128       81.521    24621.737    19917.214     6645.623        5.857        2.559      256.467       73.254        0.082      334.731        4.893      857.722
02/05/2014  21:37:00     -370.088      -27.691      -40.068      247.133      111.413       80.026    61074.929    12412.965     6404.167       10.960        3.995      371.123       86.532        0.054      334.720        4.874      857.738
02/05/2014  21:38:00     -204.953      -38.230        4.775      155.728      143.251       62.740    24251.196    20520.825     3936.262        4.609        2.435      208.488       65.416        0.098      334.733        4.898      857.740
02/05/2014  21:39:00     -251.462      -18.030      -13.353      191.210      120.767       59.676    36561.098    14584.626     3561.217        5.921        2.735      252.108       72.240        0.082      334.731        4.893      857.743
02/05/2014  21:40:00     -147.590        2.810      -15.734      162.736       82.553       62.660    26483.025     6815.040     3926.334        2.963        1.861      147.617       49.437        0.112      334.737        4.904      857.731
02/05/2014  21:41:00     -356.826      -16.601      -19.724      187.980      132.675       80.137    35336.459    17602.761     6421.877        9.367        2.968      357.212       85.193        0.057      334.682        4.812      857.728
02/05/2014  21:42:00     -342.501        3.566       -6.201      171.736      129.001       76.893    29493.134    16641.232     5912.595        8.469        2.602      342.519       87.609        0.065      334.677        4.805      857.723
02/05/2014  21:43:00     -309.411      -31.426       -5.734      157.842      131.744       69.476    24914.105    17356.519     4826.869        7.192        2.355      311.003       74.345        0.057      334.674        4.798      857.739
02/05/2014  21:44:00     -595.162     -110.887      -23.693      273.134      175.516      102.489    74602.291    30805.795    10504.022       24.147        5.796      605.403      126.375        0.044      334.645        4.750      857.706
02/05/2014  21:45:00     -406.126      -40.184       -1.939      187.833      170.474       82.855    35281.319    29061.545     6864.956       11.887        3.560      408.109       92.863        0.052      334.636        4.735      857.699
02/05/2014  21:46:00     -408.146     -146.290      -19.866      206.573      149.336       81.496    42672.283    22301.368     6641.635       12.999        3.581      433.571       83.574        0.037      334.647        4.752      857.689
02/05/2014  21:47:00     -270.648       -0.838       -9.261      161.750      135.372       72.182    26163.077    18325.691     5210.241        6.151        2.485      270.650       82.989        0.094      334.636        4.735      857.720
02/05/2014  21:48:00     -159.665       14.362        8.584      144.597      102.487       64.118    20908.247    10503.484     4111.124        3.064        1.776      160.310       70.041        0.191      334.659        4.775      857.717
02/05/2014  21:49:00     -387.058       32.664      -13.684      145.269      116.990       67.887    21103.006    13686.741     4608.582        9.523        1.970      388.434       74.322        0.037      334.598        4.673      857.722
02/05/2014  21:50:00     -495.236     -101.497      -38.352      151.725      134.849       70.161    23020.416    18184.283     4922.526       15.157        2.306      505.530       47.399        0.009      334.583        4.644      857.736
02/05/2014  21:51:00     -479.849     -100.369      -16.854      190.950      203.531       89.311    36462.051    41424.840     7976.495       16.322        4.293      490.234       93.159        0.036      334.579        4.639      857.701
02/05/2014  21:52:00     -507.048       -0.397      -22.429      244.753      166.054       77.799    59903.960    27573.904     6052.758       17.555        4.677      507.048       92.734        0.033      334.561        4.611      857.718
02/05/2014  21:53:00     -533.879     -150.739      -22.733      246.241      161.040       90.433    60634.670    25934.001     8178.191       20.149        4.737      554.751      109.571        0.039      334.564        4.616      857.697
02/05/2014  21:54:00     -436.323     -113.961      -16.978      236.216      211.050      110.334    55798.189    44542.102    12173.639       15.806        5.626      450.960      126.040        0.078      334.574        4.631      857.685
02/05/2014  21:55:00     -511.096     -122.679      -12.632      183.864      162.770       86.443    33805.886    26494.128     7472.414       17.209        3.389      525.613       95.471        0.033      334.558        4.604      857.700
02/05/2014  21:56:00     -386.246      -91.464      -23.176      178.556      135.385       79.781    31882.194    18329.182     6365.034       10.732        2.829      396.928       75.557        0.036      334.562        4.612      857.700
02/05/2014  21:57:00     -251.162      -86.487      -15.720      187.448      107.304       78.932    35136.815    11514.193     6230.328        6.184        2.644      265.636       74.742        0.079      334.586        4.652      857.684
02/05/2014  21:58:00     -357.530      -68.277      -29.166      127.062      145.504       73.979    16144.694    21171.408     5472.885        8.806        2.139      363.991       63.732        0.031      334.542        4.580      857.694
02/05/2014  21:59:00     -490.789       -3.014      -17.740      198.203      144.844       85.839    39284.357    20979.729     7368.303       15.440        3.382      490.798       88.076        0.032      334.507        4.521      857.713
02/05/2014  22:00:00     -348.305      -86.587      -19.678      175.115      141.832       82.999    30665.354    20116.404     6888.769        9.343        2.884      358.906       83.149        0.054      334.507        4.522      857.708
02/05/2014  22:01:00     -346.330      -77.822      -18.818      174.826      171.025       84.593    30564.203    29249.657     7156.020        9.665        3.348      354.966       84.175        0.056      334.491        4.496      857.682
02/05/2014  22:02:00     -184.551      -68.526       -9.038      181.366      125.622       62.411    32893.564    15781.009     3895.115        4.569        2.628      196.862       58.335        0.088      334.505        4.521      857.664
02/05/2014  22:03:00     -356.179     -135.611      -21.859      164.075      131.078       74.855    26920.731    17181.473     5603.274        9.771        2.485      381.122       66.928        0.031      334.472        4.465      857.649
02/05/2014  22:04:00     -458.300     -104.233      -36.714      155.976      153.316       75.690    24328.431    23505.837     5728.987       13.790        2.678      470.003       59.418        0.016      334.440        4.412      857.636
02/05/2014  22:05:00     -214.622      -41.741        5.286      175.172      151.777       76.540    30685.065    23036.388     5858.355        5.370        2.979      218.643       93.557        0.183      334.455        4.437      857.630
02/05/2014  22:06:00     -138.789     -127.860       -8.440      147.675      129.774       77.285    21807.966    16841.362     5972.903        4.014        2.231      188.708       80.095        0.180      334.462        4.448      857.640
02/05/2014  22:07:00     -298.206     -111.633      -23.323      164.558      137.738       69.560    27079.396    18971.715     4838.609        7.640        2.544      318.416       72.616        0.052      334.411        4.365      857.642
02/05/2014  22:08:00     -123.699      -24.184       -2.222      162.544       83.332       55.355    26420.670     6944.245     3064.181        2.615        1.821      126.041       59.799        0.225      334.458        4.443      857.629
02/05/2014  22:09:00     -194.415      -49.594      -10.616      130.713      103.235       63.709    17085.898    10657.470     4058.858        3.608        1.590      200.641       48.616        0.059      334.413        4.367      857.616
02/05/2014  22:10:00     -173.063     -184.027       10.279      171.873      116.703       88.242    29540.489    13619.517     7786.595        5.743        2.547      252.620       91.285        0.131      334.431        4.396      857.613
02/05/2014  22:11:00     -190.034     -160.067      -10.144      167.556      126.370       80.530    28074.936    15969.376     6485.110        5.618        2.526      248.465       76.401        0.095      334.399        4.343      857.581
02/05/2014  22:12:00      -76.540      -60.615       37.196      149.273       96.378       84.602    22282.458     9288.783     7157.455        2.482        1.936       97.634       84.395        0.747      334.446        4.422      857.568
02/05/2014  22:13:00     -285.033     -159.098        0.852      185.266      162.536       90.539    34323.622    26418.112     8197.289        8.774        3.447      326.429       95.937        0.086      334.361        4.281      857.578
02/05/2014  22:14:00     -204.252      -87.626       -1.506      177.714      145.766       81.047    31582.441    21247.752     6568.610        5.439        2.970      222.255       97.854        0.194      334.364        4.285      857.547
02/05/2014  22:15:00     -490.852      -52.175      -21.741      220.331      167.087       96.809    48545.680    27918.057     9372.019       16.497        4.292      493.617      100.902        0.042      334.332        4.231      857.551
02/05/2014  22:16:00     -195.921      -36.569       17.835      131.232      160.462       87.316    17221.837    25748.172     7624.104        4.531        2.530      199.304       74.708        0.141      334.379        4.311      857.554
02/05/2014  22:17:00     -241.960      -96.958       -4.201      150.563      123.803       65.866    22669.311    15327.194     4338.387        5.514        2.117      260.664       66.522        0.065      334.350        4.262      857.564
02/05/2014  22:18:00     -366.268      -77.110       -8.964      147.514      132.586       52.253    21760.260    17578.936     2730.381        9.112        2.103      374.297       55.699        0.022      334.344        4.252      857.560
02/05/2014  22:19:00     -272.981     -161.462      -29.367      156.959      122.962       78.533    24636.162    15119.558     6167.465        7.368        2.296      317.157       80.205        0.064      334.375        4.304      857.518
02/05/2014  22:20:00     -354.551      -82.523      -10.816      162.447      141.223       74.652    26389.062    19944.010     5572.890        9.226        2.595      364.028       77.392        0.045      334.352        4.264      857.531
02/05/2014  22:21:00     -259.599       -4.648      -17.509      111.730      106.881       52.701    12483.666    11423.466     2777.343        4.720        1.334      259.641       41.750        0.026      334.361        4.280      857.546
02/05/2014  22:22:00     -294.428     -126.319      -10.803      244.969      118.041      100.958    60009.815    13933.610    10192.445        9.343        4.207      320.382      122.492        0.146      334.393        4.335      857.510
02/05/2014  22:23:00     -415.237     -118.806        0.123      210.649      159.545       96.697    44372.864    25454.480     9350.358       13.284        3.959      431.899      106.702        0.061      334.357        4.275      857.532
02/05/2014  22:24:00     -515.777     -203.379      -26.736      203.971      172.737       83.378    41604.105    29838.242     6951.948       19.324        3.920      554.427       94.068        0.029      334.360        4.278      857.551
02/05/2014  22:25:00     -225.035     -122.952      -10.567      180.337      166.347       83.531    32521.374    27671.259     6977.511        6.651        3.359      256.433       91.993        0.129      334.383        4.317      857.537
02/05/2014  22:26:00     -294.060     -139.432        9.902      169.368      149.170       85.211    28685.564    22251.669     7260.833        8.209        2.910      325.442       87.877        0.073      334.387        4.323      857.528
02/05/2014  22:27:00     -184.158     -147.647        6.021      147.506      124.251       83.103    21757.999    15438.244     6906.086        4.992        2.205      236.038       87.957        0.139      334.411        4.362      857.541
02/05/2014  22:28:00     -280.607     -137.017       -8.837      163.865      177.559       74.635    26851.818    31527.164     5570.450        8.076        3.197      312.273       86.588        0.077      334.363        4.284      857.539
02/05/2014  22:29:00     -309.097     -125.642       -9.420      179.327      163.850       90.816    32158.130    26846.797     8247.554        8.932        3.363      333.657       90.985        0.074      334.356        4.271      857.536
02/05/2014  22:30:00     -430.771     -202.319       -8.188      175.384      176.650       92.763    30759.376    31205.341     8604.898       14.856        3.528      475.917       88.367        0.034      334.331        4.230      857.573
02/05/2014  22:31:00     -380.496     -242.975       12.461      166.455      139.215       82.316    27707.293    19380.803     6775.848       12.891        2.693      451.458       89.853        0.040      334.338        4.243      857.567
02/05/2014  22:32:00     -258.086     -180.185       12.040      169.120      138.377       81.479    28601.414    19148.200     6638.822        7.680        2.719      314.762       79.710        0.064      334.361        4.279      857.563
02/05/2014  22:33:00     -365.294     -187.137      -15.303      143.568      142.018       64.472    20611.895    20169.243     4156.670       10.681        2.247      410.439       53.788        0.017      334.319        4.209      857.552
02/05/2014  22:34:00     -355.803     -163.749        1.545      179.453      159.756       88.505    32203.479    25521.991     7833.117       10.947        3.278      391.675       90.072        0.053      334.325        4.220      857.534
02/05/2014  22:35:00     -413.016      -66.878       -9.453      207.992      149.939       82.582    43260.800    22481.589     6819.762       12.384        3.628      418.395       95.222        0.052      334.336        4.237      857.570
02/05/2014  22:36:00     -380.668     -164.516      -22.506      153.921      147.691       86.204    23691.812    21812.748     7431.079       11.270        2.647      414.697       79.049        0.036      334.351        4.263      857.589
02/05/2014  22:37:00     -288.302     -270.753        5.825      190.414      147.756       96.012    36257.613    21831.947     9218.211       11.187        3.365      395.506      110.758        0.078      334.390        4.328      857.570
02/05/2014  22:38:00     -306.649     -162.355      -26.131      139.886      127.514       68.637    19568.225    16259.823     4711.094        8.080        2.027      346.977       63.948        0.034      334.359        4.277      857.565
02/05/2014  22:39:00     -260.611      -55.470       -4.737      181.883       91.108       69.036    33081.527     8300.738     4765.929        5.858        2.307      266.449       82.391        0.096      334.366        4.290      857.551
02/05/2014  22:40:00     -288.971     -225.268       -4.632      208.670      155.049      102.416    43542.962    24040.191    10489.000       10.616        3.904      366.401      109.382        0.089      334.372        4.298      857.524
02/05/2014  22:41:00     -181.371     -134.189      -13.585      104.719       84.648       51.460    10966.024     7165.353     2648.103        3.593        1.039      225.615       55.528        0.061      334.361        4.280      857.527
02/05/2014  22:42:00     -158.844     -127.891        6.706       91.990       78.248       53.147     8462.247     6122.742     2824.584        2.952        0.870      203.930       56.057        0.076      334.380        4.313      857.511
02/05/2014  22:43:00     -309.957     -118.886      -15.562      144.454      113.281       63.813    20866.904    12832.612     4072.115        7.410        1.889      331.974       57.120        0.030      334.334        4.234      857.492
02/05/2014  22:44:00     -373.262      -55.650      -23.777      164.804      102.360       61.644    27160.198    10477.620     3800.007        9.221        2.072      377.388       65.622        0.030      334.314        4.201      857.490
02/05/2014  22:45:00     -308.246     -228.464      -11.810      169.602      127.157       81.610    28764.913    16169.013     6660.253        9.946        2.580      383.681       90.554        0.056      334.331        4.229      857.506
02/05/2014  22:46:00     -139.695      -21.140        5.786      142.167      124.401       72.524    20211.369    15475.530     5259.698        3.046        2.047      141.285       76.005        0.289      334.354        4.270      857.520
02/05/2014  22:47:00     -181.480      -77.239        4.919      106.552       88.778       51.698    11353.389     7881.579     2672.650        3.041        1.095      197.233       56.998        0.084      334.347        4.257      857.554
02/05/2014  22:48:00     -173.309     -116.233        6.613      116.357      108.920       56.241    13538.939    11863.656     3163.062        3.607        1.428      208.677       58.443        0.078      334.368        4.291      857.555
02/05/2014  22:49:00     -336.184     -164.411      -42.628      103.836       93.280       51.646    10782.008     8701.080     2667.354        8.201        1.108      374.233       47.913        0.016      334.336        4.235      857.546
02/05/2014  22:50:00     -160.473      -39.876        4.637      181.014       77.368       52.659    32766.012     5985.769     2772.989        3.444        2.076      165.353       63.910        0.149      334.401        4.349      857.536
02/05/2014  22:51:00     -347.764     -177.280      -15.373      164.331      130.051       62.438    27004.616    16913.366     3898.459       10.020        2.391      390.344       77.835        0.040      334.364        4.284      857.536
02/05/2014  22:52:00     -402.247     -223.698      -13.058      152.641      118.167       73.228    23299.412    13963.355     5362.338       12.731        2.131      460.265       68.461        0.022      334.335        4.237      857.533
02/05/2014  22:53:00     -250.538     -194.640       -8.847      168.422      139.396       70.772    28365.877    19431.369     5008.721        7.676        2.640      317.260       82.519        0.068      334.370        4.295      857.536
02/05/2014  22:54:00     -326.095     -181.081       -6.559      159.644      126.819       71.175    25486.146    16083.073     5065.915        9.290        2.332      372.999       75.325        0.041      334.342        4.248      857.500
02/05/2014  22:55:00     -163.576      -78.547       13.814      110.741       98.396       57.143    12263.653     9681.834     3265.316        2.916        1.261      181.457       60.488        0.111      334.374        4.301      857.492
02/05/2014  22:56:00     -205.091      -38.942       -1.392      104.277       80.476       42.528    10873.620     6476.398     1808.607        3.137        0.958      208.755       49.715        0.057      334.309        4.195      857.468
02/05/2014  22:57:00     -203.160     -124.975       -9.679      120.656       66.419       43.395    14557.862     4411.531     1883.090        3.892        1.043      238.522       39.230        0.027      334.351        4.265      857.466
02/05/2014  22:58:00     -241.748      -97.279        3.037      200.972      140.419       66.682    40389.863    19717.504     4446.434        6.622        3.228      260.586       87.217        0.112      334.362        4.283      857.469
02/05/2014  22:59:00     -157.709      -68.401        4.648      124.102      134.557       58.797    15401.374    18105.533     3457.095        3.326        1.848      171.904       71.771        0.174      334.357        4.275      857.440
02/05/2014  23:00:00     -212.356     -106.440       -6.134      204.486      146.230       69.966    41814.556    21383.195     4895.257        6.227        3.405      237.539       72.596        0.093      334.351        4.266      857.431
02/05/2014  23:01:00     -228.268      -64.261       -6.998      163.240      144.638       66.992    26647.413    20920.031     4487.887        5.416        2.603      237.141       75.784        0.102      334.331        4.231      857.399
02/05/2014  23:02:00     -368.278      -85.933      -13.092      188.441      109.996       68.730    35509.948    12099.013     4723.852        9.775        2.617      378.171       76.587        0.041      334.316        4.205      857.385
02/05/2014  23:03:00     -319.866      -42.759       -9.503      134.572      114.173       57.727    18109.527    13035.500     3332.460        6.935        1.724      322.712       57.349        0.032      334.313        4.199      857.408
02/05/2014  23:04:00     -128.953       -5.415       12.593       82.544       70.051       43.436     6813.536     4907.099     1886.645        1.521        0.680      129.067       34.796        0.073      334.307        4.191      857.397
02/05/2014  23:05:00     -219.360      -22.998      -11.069      111.956       73.036       48.971    12534.060     5334.264     2398.149        3.451        1.013      220.562       51.494        0.055      334.274        4.135      857.380
02/05/2014  23:06:00     -221.002      -61.360        3.810      144.249      118.625       57.139    20807.636    14071.975     3264.842        4.538        1.907      229.362       69.532        0.092      334.280        4.145      857.374
02/05/2014  23:07:00     -325.954      -92.078      -14.686      117.988      117.075       64.138    13921.230    13706.536     4113.684        7.334        1.587      338.710       62.460        0.034      334.286        4.154      857.403
02/05/2014  23:08:00     -328.747      -89.850      -26.700      211.269      135.594       70.720    44634.606    18385.651     5001.346        9.243        3.401      340.804       80.075        0.055      334.296        4.170      857.412
02/05/2014  23:09:00     -385.804       -2.446      -24.297      149.442      128.669       64.963    22332.913    16555.741     4220.254        9.627        2.155      385.812       60.161        0.024      334.269        4.127      857.439
02/05/2014  23:10:00     -308.789      -37.850      -17.960      135.947      117.067       67.507    18481.665    13704.743     4557.197        6.692        1.837      311.100       69.580        0.050      334.272        4.130      857.475
02/05/2014  23:11:00     -275.415       36.677      -15.788      222.062      104.078       63.757    49311.337    10832.231     4064.894        7.082        3.210      277.846       83.997        0.091      334.296        4.172      857.490
02/05/2014  23:12:00     -288.904      -26.309      -14.811      105.966      100.621       59.672    11228.884    10124.552     3560.712        5.464        1.246      290.100       55.391        0.036      334.248        4.093      857.490
02/05/2014  23:13:00     -317.978      -49.869      -23.974      153.828      133.385       58.837    23663.112    17791.500     3461.847        7.454        2.246      321.865       55.154        0.029      334.253        4.100      857.501
02/05/2014  23:14:00     -365.218      -28.946      -34.737      129.776      104.346       52.822    16841.728    10888.124     2790.212        8.297        1.526      366.363       52.892        0.021      334.246        4.087      857.500
02/05/2014  23:15:00     -414.895      -79.101       -5.203      150.551      118.834       64.344    22665.638    14121.521     4140.175       10.967        2.046      422.368       58.234        0.019      334.213        4.033      857.490
02/05/2014  23:16:00     -251.697     -151.016       -9.219      159.118      135.369       67.663    25318.671    18324.638     4578.242        6.722        2.411      293.525       78.689        0.072      334.229        4.061      857.501
02/05/2014  23:17:00     -265.970      -77.287       -5.969      114.542       94.492       52.529    13119.883     8928.734     2759.300        5.077        1.240      276.971       51.007        0.034      334.223        4.050      857.520
02/05/2014  23:18:00     -133.686      -21.134        3.775      105.200       77.824       38.735    11066.972     6056.596     1500.413        1.848        0.931      135.346       48.267        0.127      334.250        4.096      857.530
02/05/2014  23:19:00     -107.806        2.455       11.365       76.090       56.580       37.108     5789.715     3201.250     1376.973        1.106        0.518      107.834       28.588        0.070      334.270        4.131      857.536
02/05/2014  23:20:00     -407.538      -84.040      -35.240      187.250      111.913       53.953    35062.644    12524.452     2910.891       11.244        2.525      416.113       75.228        0.033      334.223        4.050      857.533
02/05/2014  23:21:00     -410.756     -124.564      -20.807      140.392       99.335       60.690    19710.029     9867.504     3683.238       10.896        1.663      429.228       62.262        0.021      334.204        4.018      857.532
02/05/2014  23:22:00     -330.940     -125.891      -17.414      148.152      140.154       76.538    21949.075    19643.015     5858.006        8.655        2.373      354.076       70.517        0.040      334.255        4.104      857.533
02/05/2014  23:23:00     -258.606      -29.769       -9.321      112.823       83.010       59.962    12729.134     6890.681     3595.439        4.553        1.161      260.314       61.328        0.056      334.286        4.155      857.553
02/05/2014  23:24:00     -212.780      -27.842      -17.081       63.187       79.546       40.662     3992.556     6327.642     1653.381        2.916        0.599      214.593       28.784        0.018      334.261        4.114      857.562
02/05/2014  23:25:00      -83.902      -31.701        8.639       97.044       83.021       46.661     9417.552     6892.462     2177.206        1.330        0.924       89.691       48.382        0.291      334.304        4.188      857.546
02/05/2014  23:26:00     -148.086       59.816      -33.476       94.378       80.573       46.682     8907.279     6491.952     2179.245        2.210        0.879      159.710       48.805        0.093      334.251        4.099      857.550
02/05/2014  23:27:00     -281.826       -6.661      -23.257      114.382      140.149       53.438    13083.356    19641.685     2855.661        5.779        1.779      281.904       50.237        0.032      334.247        4.091      857.530
02/05/2014  23:28:00     -273.185     -122.198       -5.266       95.571       93.221       45.166     9133.846     8690.084     2039.995        5.472        0.993      299.270       33.417        0.012      334.242        4.082      857.500
02/05/2014  23:29:00     -224.444      -78.109       -7.629      153.492      119.897       69.527    23559.750    14375.341     4834.070        4.964        2.138      237.647       77.942        0.108      334.293        4.167      857.476
02/05/2014  23:30:00     -317.000        0.078      -23.881      123.316       83.758       45.204    15206.899     7015.441     2043.357        6.266        1.213      317.000       48.612        0.024      334.286        4.155      857.471
02/05/2014  23:31:00     -294.366      -27.071       -8.821      129.848       84.891       63.634    16860.432     7206.430     4049.318        5.778        1.406      295.608       61.389        0.043      334.262        4.113      857.462
02/05/2014  23:32:00     -229.411     -103.509       -3.628       91.780       96.000       46.758     8423.570     9215.990     2186.270        4.159        0.991      251.681       48.515        0.037      334.277        4.139      857.453
02/05/2014  23:33:00     -147.968      -94.144       23.219      110.150       84.682       48.637    12133.082     7171.090     2365.556        2.648        1.083      175.378       49.059        0.078      334.335        4.238      857.468
02/05/2014  23:34:00     -219.613     -103.020       -2.900      101.985      100.427       49.928    10400.918    10085.680     2492.757        4.091        1.149      242.576       52.400        0.047      334.341        4.246      857.485
02/05/2014  23:35:00     -151.215      -77.885       -9.798       53.437       61.088       35.019     2855.560     3731.797     1226.329        1.842        0.391      170.095       27.150        0.025      334.323        4.219      857.486
02/05/2014  23:36:00     -123.910       -3.851       -1.764       47.299       40.967       29.431     2237.203     1678.263      866.165        1.008        0.239      123.970       28.274        0.052      334.339        4.247      857.480
02/05/2014  23:37:00      -39.886      -66.716        8.861       56.177       57.272       26.208     3155.871     3280.087      686.840        0.662        0.356       77.730       28.674        0.136      334.414        4.372      857.481
02/05/2014  23:38:00      -11.084      -57.664       16.262       61.920       32.750       26.099     3834.100     1072.555      681.155        0.465        0.279       58.720       31.390        0.286      334.501        4.516      857.471
02/05/2014  23:39:00      -75.514       -0.872       -7.451       22.818       22.754       13.712      520.651      517.743      188.029        0.349        0.061       75.519        9.635        0.016      334.329        4.230      857.467
02/05/2014  23:40:00      -77.577       21.205      -10.078       40.334       14.682       12.586     1626.804      215.559      158.419        0.428        0.100       80.423       13.096        0.027      334.395        4.341      857.457
02/05/2014  23:41:00      -31.897      -58.058       -8.028       30.297       28.816       15.395      917.937      830.361      237.002        0.322        0.099       66.243       14.047        0.045      334.456        4.440      857.445
02/05/2014  23:42:00      -19.668      -69.169        9.002       42.668       50.928       23.849     1820.517     2593.650      568.797        0.512        0.249       71.911       30.052        0.175      334.514        4.538      857.434
02/05/2014  23:43:00      -67.538       29.984       -5.127       39.255       26.772       22.206     1540.968      716.754      493.114        0.412        0.138       73.895       16.937        0.053      334.471        4.465      857.435
02/05/2014  23:44:00      -56.370      -81.851        0.915       26.306       63.950       15.460      692.018     4089.603      239.022        0.745        0.251       99.384       11.880        0.014      334.512        4.534      857.450
02/05/2014  23:45:00      -46.097     -118.857       -1.105       42.447       53.829       22.853     1801.777     2897.570      522.245        1.074        0.261      127.484       14.617        0.013      334.601        4.680      857.444
02/05/2014  23:46:00     -133.015      -62.726       -8.388       54.050       45.013       28.464     2921.356     2026.125      810.174        1.373        0.288      147.064       25.784        0.031      334.464        4.453      857.446
02/05/2014  23:47:00     -135.746     -120.219       -1.548       69.237       55.306       31.373     4793.811     3058.712      984.279        2.086        0.442      181.327       31.705        0.031      334.458        4.442      857.422
02/05/2014  23:48:00      -74.960     -104.429        2.979       35.591       48.727       25.623     1266.731     2374.295      656.540        1.041        0.215      128.548       22.145        0.030      334.442        4.418      857.429
02/05/2014  23:49:00      -63.685      -58.631       -0.953       25.675       20.208       16.130      659.224      408.344      260.166        0.441        0.066       86.564       10.296        0.014      334.455        4.441      857.434
02/05/2014  23:50:00      -26.957      -21.124        6.433       27.506       26.903       14.868      756.559      723.767      221.072        0.146        0.085       34.248       12.798        0.140      334.542        4.581      857.431
02/05/2014  23:51:00      -58.850       -9.573        2.326       40.994       29.735       19.773     1680.493      884.152      390.978        0.326        0.148       59.623       20.656        0.120      334.514        4.536      857.429
02/05/2014  23:52:00      -81.438       29.067      -14.451       31.378       17.985       15.403      984.560      323.463      237.238        0.462        0.077       86.470       15.410        0.032      334.415        4.373      857.442
02/05/2014  23:53:00     -138.699       -0.736      -13.905       69.985       57.767       30.485     4897.958     3337.065      929.363        1.430        0.458      138.701       28.846        0.043      334.392        4.335      857.461
02/05/2014  23:54:00     -129.284      -25.895       -3.164       33.365       38.555       24.650     1113.215     1486.451      607.635        1.030        0.160      131.852       18.841        0.020      334.392        4.334      857.449
02/05/2014  23:55:00      -95.190       -9.836       -3.424       49.115       27.149       22.743     2412.319      737.051      517.258        0.642        0.183       95.697       24.748        0.067      334.425        4.391      857.437
02/05/2014  23:56:00     -102.585     -133.098        1.615       74.387       84.438       43.886     5533.415     7129.834     1925.944        2.141        0.729      168.044       41.217        0.060      334.488        4.491      857.433
02/05/2014  23:57:00      -58.077      -45.495       13.042       53.189       71.223       32.946     2829.114     5072.689     1085.431        0.730        0.449       73.775       26.909        0.133      334.490        4.496      857.435
02/05/2014  23:58:00     -211.350      -64.802      -14.460       60.116       75.629       41.366     3613.989     5719.724     1711.136        3.006        0.552      221.062       39.545        0.032      334.440        4.412      857.430
02/05/2014  23:59:00     -161.330      -89.366        8.512       78.731       72.848       41.047     6198.554     5306.826     1684.870        2.364        0.660      184.428       47.924        0.068      334.435        4.406      857.429
